[[{"header":{"parameterUnit":"m.s-1","parameterCategory":1,"la1":30.6,"la2":28.766,"lo1":-90.7593,"lo2":-88.6598,"dy":0.0162,"dx":0.0183,"nx":116,"ny":114,"refTime":"2023-05-23T00:00:00:Z","depth":0,"parameterNumber":2,"parameterNumberName":"U-component_of_WINDS"},"data":[0.0,0.0,0.0,0.0,0.0,0.0,0.0,0.0,0.0,0.0,0.0,0.0,0.0,0.0,0.0,0.0,0.0,0.0,0.0,0.0,0.0,0.0,0.0,0.0,0.0,0.0,0.0,0.0,0.0,0.0,0.0,0.0,0.0,0.0,0.0,0.0,0.0,0.0,0.0,0.0,0.0,0.0,0.0,0.0,0.0,0.0,0.0,0.0,0.0,0.0,0.0,0.0,0.0,0.0,0.0,0.0,0.0,0.0,0.0,0.0,0.0,0.0,0.0,0.0,0.0,0.0,0.0,0.0,0.0,0.0,0.0,0.0,0.0,0.0,0.0,0.0,0.0,0.0,0.0,0.0,0.0,0.0,0.0,0.0,0.0,0.0,0.0,0.0,0.0,0.0,0.0,0.0,0.0,0.0,0.0,0.0,0.0,0.0,0.0,0.0,0.0,0.0,0.0,0.0,0.0,0.0,0.0,0.0,0.0,0.0,0.0,0.0,0.0,0.0,0.0,0.0,0.0,0.0,0.0,0.0,0.0,0.0,0.0,0.0,0.0,0.0,0.0,0.0,0.0,0.0,0.0,0.0,0.0,0.0,0.0,0.0,0.0,0.0,0.0,0.0,0.0,0.0,0.0,0.0,0.0,0.0,0.0,0.0,0.0,0.0,0.0,0.0,0.0,0.0,0.0,0.0,0.0,0.0,0.0,0.0,0.0,0.0,0.0,0.0,0.0,0.0,0.0,0.0,0.0,0.0,0.0,0.0,0.0,0.0,0.0,0.0,0.0,0.0,0.0,0.0,0.0,0.0,0.0,0.0,0.0,0.0,0.0,0.0,0.0,0.0,0.0,0.0,0.0,0.0,0.0,0.0,0.0,0.0,0.0,0.0,0.0,0.0,0.0,0.0,0.0,0.0,0.0,0.0,0.0,0.0,0.0,0.0,0.0,0.0,0.0,0.0,0.0,0.0,0.0,0.0,0.0,0.0,0.0,0.0,0.0,0.0,0.0,0.0,0.0,0.0,0.0,0.0,0.0,0.0,0.0,0.0,0.0,0.0,0.0,0.0,0.0,0.0,0.0,0.0,0.0,0.0,0.0,0.0,0.0,0.0,0.0,0.0,0.0,0.0,0.0,0.0,0.0,0.0,0.0,0.0,0.0,0.0,0.0,0.0,0.0,0.0,0.0,0.0,0.0,0.0,0.0,0.0,0.0,0.0,0.0,0.0,0.0,0.0,0.0,0.0,0.0,0.0,0.0,0.0,0.0,0.0,0.0,0.0,0.0,0.0,0.0,0.0,0.0,0.0,0.0,0.0,0.0,0.0,0.0,0.0,0.0,0.0,0.0,0.0,0.0,0.0,0.0,0.0,0.0,0.0,0.0,0.0,0.0,0.0,0.0,0.0,0.0,0.0,0.0,0.0,0.0,0.0,0.0,0.0,0.0,0.0,0.0,0.0,0.0,0.0,0.0,0.0,0.0,0.0,0.0,0.0,0.0,0.0,0.0,0.0,0.0,0.0,0.0,0.0,0.0,0.0,0.0,0.0,0.0,0.0,0.0,0.0,0.0,0.0,0.0,0.0,0.0,0.0,0.0,0.0,0.0,0.0,0.0,0.0,0.0,0.0,0.0,0.0,0.0,0.0,0.0,0.0,0.0,0.0,0.0,0.0,0.0,0.0,0.0,0.0,0.0,0.0,0.0,0.0,0.0,0.0,0.0,0.0,0.0,0.0,0.0,0.0,0.0,0.0,0.0,0.0,0.0,0.0,0.0,0.0,0.0,0.0,0.0,0.0,0.0,0.0,0.0,0.0,0.0,0.0,0.0,0.0,0.0,0.0,0.0,0.0,0.0,0.0,0.0,0.0,0.0,0.0,0.0,0.0,0.0,0.0,0.0,0.0,0.0,0.0,0.0,0.0,0.0,0.0,0.0,0.0,0.0,0.0,0.0,0.0,0.0,0.0,0.0,0.0,0.0,0.0,0.0,0.0,0.0,0.0,0.0,0.0,0.0,0.0,0.0,0.0,0.0,0.0,0.0,0.0,0.0,0.0,0.0,0.0,0.0,0.0,0.0,0.0,0.0,0.0,0.0,0.0,0.0,0.0,0.0,0.0,0.0,0.0,0.0,0.0,0.0,0.0,0.0,0.0,0.0,0.0,0.0,0.0,0.0,0.0,0.0,0.0,0.0,0.0,0.0,0.0,0.0,0.0,0.0,0.0,0.0,0.0,0.0,0.0,0.0,0.0,0.0,0.0,0.0,0.0,0.0,0.0,0.0,0.0,0.0,0.0,0.0,0.0,0.0,0.0,0.0,0.0,0.0,0.0,0.0,0.0,0.0,0.0,0.0,0.0,0.0,0.0,0.0,0.0,0.0,0.0,0.0,0.0,0.0,0.0,0.0,0.0,0.0,0.0,0.0,0.0,0.0,0.0,0.0,0.0,0.0,0.0,0.0,0.0,0.0,0.0,0.0,0.0,0.0,0.0,0.0,0.0,0.0,0.0,0.0,0.0,0.0,0.0,0.0,0.0,0.0,0.0,0.0,0.0,0.0,0.0,0.0,0.0,0.0,0.0,0.0,0.0,0.0,0.0,0.0,0.0,0.0,0.0,0.0,0.0,0.0,0.0,0.0,0.0,0.0,0.0,0.0,0.0,0.0,0.0,0.0,0.0,0.0,0.0,0.0,0.0,0.0,0.0,0.0,0.0,0.0,0.0,0.0,0.0,0.0,0.0,0.0,0.0,0.0,0.0,0.0,0.0,0.0,0.0,0.0,0.0,0.0,0.0,0.0,0.0,0.0,0.0,0.0,0.0,0.0,0.0,0.0,0.0,0.0,0.0,0.0,0.0,0.0,0.0,0.0,0.0,0.0,0.0,0.0,0.0,0.0,0.0,0.0,0.0,0.0,0.0,0.0,0.0,0.0,0.0,0.0,0.0,0.0,0.0,0.0,0.0,0.0,0.0,0.0,0.0,0.0,0.0,0.0,0.0,0.0,0.0,0.0,0.0,0.0,0.0,0.0,0.0,0.0,0.0,0.0,0.0,0.0,0.0,0.0,0.0,0.0,0.0,0.0,0.0,0.0,0.0,0.0,0.0,0.0,0.0,0.0,0.0,0.0,0.0,0.0,0.0,0.0,0.0,0.0,0.0,0.0,0.0,0.0,0.0,0.0,0.0,0.0,0.0,0.0,0.0,0.0,0.0,0.0,0.0,0.0,0.0,0.0,0.0,0.0,0.0,0.0,0.0,0.0,0.0,0.0,0.0,0.0,0.0,0.0,0.0,0.0,0.0,0.0,0.0,0.0,0.0,0.0,0.0,0.0,0.0,0.0,0.0,0.0,0.0,0.0,0.0,0.0,0.0,0.0,0.0,0.0,0.0,0.0,0.0,0.0,0.0,0.0,0.0,0.0,0.0,0.0,0.0,0.0,0.0,0.0,0.0,0.0,0.0,0.0,0.0,0.0,0.0,0.0,0.0,0.0,0.0,0.0,0.0,0.0,0.0,0.0,0.0,0.0,0.0,0.0,0.0,0.0,0.0,0.0,0.0,0.0,0.0,0.0,0.0,0.0,0.0,0.0,0.0,0.0,0.0,0.0,0.0,0.0,0.0,0.0,0.0,0.0,0.0,0.0,0.0,0.0,0.0,0.0,0.0,0.0,0.0,0.0,0.0,0.0,0.0,0.0,0.0,0.0,0.0,0.0,0.0,0.0,0.0,0.0,0.0,0.0,0.0,0.0,0.0,0.0,0.0,0.0,0.0,0.0,0.0,0.0,0.0,0.0,0.0,0.0,0.0,0.0,0.0,0.0,0.0,0.0,0.0,0.0,0.0,0.0,0.0,0.0,0.0,0.0,0.0,0.0,0.0,0.0,0.0,0.0,0.0,0.0,0.0,0.0,0.0,0.0,0.0,0.0,0.0,0.0,0.0,0.0,0.0,0.0,0.0,0.0,0.0,0.0,0.0,0.0,0.0,0.0,0.0,0.0,0.0,0.0,0.0,0.0,0.0,0.0,0.0,0.0,0.0,0.0,0.0,0.0,0.0,0.0,0.0,0.0,0.0,0.0,0.0,0.0,0.0,0.0,0.0,0.0,0.0,0.0,0.0,0.0,0.0,0.0,0.0,0.0,0.0,0.0,0.0,0.0,0.0,0.0,0.0,0.0,0.0,0.0,0.0,0.0,0.0,0.0,0.0,0.0,0.0,0.0,0.0,0.0,0.0,0.0,0.0,0.0,0.0,0.0,0.0,0.0,0.0,0.0,0.0,0.0,0.0,0.0,0.0,0.0,0.0,0.0,0.0,0.0,0.0,0.0,0.0,0.0,0.0,0.0,0.0,0.0,0.0,0.0,0.0,0.0,0.0,0.0,0.0,0.0,0.0,0.0,0.0,0.0,0.0,0.0,0.0,0.0,0.0,0.0,0.0,0.0,0.0,0.0,0.0,0.0,0.0,0.0,0.0,0.0,0.0,0.0,0.0,0.0,0.0,0.0,0.0,0.0,0.0,0.0,0.0,0.0,0.0,0.0,0.0,0.0,0.0,0.0,0.0,0.0,0.0,0.0,0.0,0.0,0.0,0.0,0.0,0.0,0.0,0.0,0.0,0.0,0.0,0.0,0.0,0.0,0.0,0.0,0.0,0.0,0.0,0.0,0.0,0.0,0.0,0.0,0.0,0.0,0.0,0.0,0.0,0.0,0.0,0.0,0.0,0.0,0.0,0.0,0.0,0.0,0.0,0.0,0.0,0.0,0.0,0.0,0.0,0.0,0.0,0.0,0.0,0.0,0.0,0.0,0.0,0.0,0.0,0.0,0.0,0.0,0.0,0.0,0.0,0.0,0.0,0.0,0.0,0.0,0.0,0.0,0.0,0.0,0.0,0.0,0.0,0.0,0.0,0.0,0.0,0.0,0.0,0.0,0.0,0.0,0.0,0.0,0.0,0.0,0.0,0.0,0.0,0.0,0.0,0.0,0.0,0.0,0.0,0.0,0.0,0.0,0.0,0.0,0.0,0.0,0.0,0.0,0.0,0.0,0.0,0.0,0.0,0.0,0.0,0.0,0.0,0.0,0.0,0.0,0.0,0.0,0.0,0.0,0.0,0.0,0.0,0.0,0.0,0.0,0.0,0.0,0.0,0.0,0.0,0.0,0.0,0.0,0.0,0.0,0.0,0.0,0.0,0.0,0.0,0.0,0.0,0.0,0.0,0.0,0.0,0.0,0.0,0.0,0.0,0.0,0.0,0.0,0.0,0.0,0.0,0.0,0.0,0.0,0.0,0.0,0.0,0.0,0.0,0.0,0.0,0.0,0.0,0.0,0.0,0.0,0.0,0.0,0.0,0.0,0.0,0.0,0.0,0.0,0.0,0.0,0.0,0.0,0.0,0.0,0.0,0.0,0.0,0.0,0.0,0.0,0.0,0.0,0.0,0.0,0.0,0.0,0.0,0.0,0.0,0.0,0.0,0.0,0.0,0.0,0.0,0.0,0.0,0.0,0.0,0.0,0.0,0.0,0.0,0.0,0.0,0.0,0.0,0.0,0.0,0.0,0.0,0.0,0.0,0.0,0.0,0.0,0.0,0.0,0.0,0.0,0.0,0.0,0.0,0.0,0.0,0.0,0.0,0.0,0.0,0.0,0.0,0.0,0.0,0.0,0.0,0.0,0.0,0.0,0.0,0.0,0.0,0.0,0.0,0.0,0.0,0.0,0.0,0.0,0.0,0.0,0.0,0.0,0.0,0.0,0.0,0.0,0.0,0.0,0.0,0.0,0.0,0.0,0.0,0.0,0.0,0.0,0.0,0.0,0.0,0.0,0.0,0.0,0.0,0.0,0.0,0.0,0.0,0.0,0.0,0.0,0.0,0.0,0.0,0.0,0.0,0.0,0.0,0.0,0.0,0.0,0.0,0.0,0.0,0.0,0.0,0.0,0.0,0.0,0.0,0.0,0.0,0.0,0.0,0.0,0.0,0.0,0.0,0.0,0.0,0.0,0.0,0.0,0.0,0.0,0.0,0.0,0.0,0.0,0.0,0.0,0.0,0.0,0.0,0.0,0.0,0.0,0.0,0.0,0.0,0.0,0.0,0.0,0.0,0.0,0.0,0.0,0.0,0.0,0.0,2.5236,0.0,0.0,0.0,0.0,0.0,0.0,0.0,0.0,0.0,0.0,0.0,0.0,0.0,0.0,0.0,0.0,0.0,0.0,0.0,0.0,0.0,0.0,0.0,0.0,0.0,0.0,0.0,0.0,0.0,0.0,0.0,0.0,0.0,0.0,0.0,0.0,0.0,0.0,0.0,2.5579,2.5806,2.6236,2.6617,2.6588,2.6193,0.0,0.0,0.0,0.0,0.0,0.0,0.0,0.0,0.0,0.0,0.0,0.0,0.0,0.0,0.0,0.0,0.0,0.0,0.0,0.0,0.0,0.0,0.0,0.0,0.0,0.0,0.0,0.0,0.0,0.0,0.0,0.0,0.0,0.0,0.0,0.0,0.0,0.0,0.0,0.0,0.0,0.0,0.0,0.0,0.0,0.0,0.0,0.0,0.0,0.0,0.0,0.0,0.0,0.0,0.0,0.0,0.0,0.0,0.0,0.0,0.0,0.0,0.0,0.0,0.0,0.0,0.0,0.0,0.0,0.0,0.0,2.5686,0.0,0.0,0.0,0.0,0.0,0.0,0.0,0.0,0.0,0.0,0.0,0.0,0.0,0.0,0.0,0.0,0.0,0.0,0.0,0.0,0.0,0.0,0.0,0.0,2.56,2.5607,2.5531,2.5471,0.0,0.0,0.0,0.0,0.0,0.0,0.0,2.5456,2.5552,2.5725,2.5944,2.6423,2.7129,2.7948,2.7981,2.7371,2.7885,0.0,0.0,0.0,0.0,0.0,0.0,0.0,0.0,0.0,0.0,0.0,0.0,0.0,0.0,0.0,0.0,0.0,0.0,0.0,0.0,0.0,0.0,0.0,0.0,0.0,0.0,0.0,0.0,0.0,0.0,0.0,0.0,0.0,0.0,0.0,0.0,0.0,0.0,0.0,0.0,0.0,0.0,0.0,0.0,0.0,0.0,0.0,0.0,0.0,0.0,0.0,0.0,0.0,0.0,0.0,0.0,0.0,0.0,0.0,0.0,0.0,0.0,0.0,2.5031,2.4903,2.5052,2.5279,2.538,2.5425,2.657,2.6948,2.6722,2.6643,0.0,0.0,0.0,0.0,0.0,0.0,0.0,0.0,0.0,0.0,0.0,0.0,0.0,0.0,0.0,0.0,0.0,0.0,0.0,0.0,0.0,2.5621,2.5591,2.5607,2.5531,2.5464,0.0,0.0,0.0,0.0,0.0,0.0,2.548,2.5446,2.5799,2.6637,2.7454,2.7923,2.8039,2.8846,2.9198,2.914,2.8424,2.808,2.8027,0.0,0.0,0.0,0.0,0.0,0.0,0.0,0.0,0.0,0.0,0.0,0.0,0.0,0.0,0.0,0.0,0.0,0.0,0.0,0.0,0.0,0.0,0.0,0.0,0.0,0.0,0.0,0.0,0.0,0.0,0.0,0.0,0.0,0.0,0.0,0.0,0.0,0.0,0.0,0.0,0.0,2.3696,2.41,0.0,0.0,0.0,0.0,0.0,0.0,0.0,0.0,0.0,0.0,0.0,0.0,0.0,2.3526,2.3604,2.3526,2.3486,2.3486,2.3421,2.3737,2.4402,2.4523,2.4955,2.5709,2.6545,0.0,2.6443,2.6074,0.0,0.0,0.0,0.0,0.0,0.0,0.0,0.0,0.0,0.0,0.0,0.0,0.0,0.0,0.0,0.0,0.0,0.0,0.0,0.0,0.0,2.5613,2.5604,2.56,2.5565,2.5543,2.5518,2.5487,0.0,0.0,0.0,2.561,2.6157,2.6155,2.6611,2.7589,2.8496,2.8931,2.8946,2.9751,3.016,3.0166,2.9741,2.9564,2.9566,2.9552,0.0,0.0,0.0,0.0,0.0,0.0,0.0,0.0,0.0,0.0,0.0,0.0,0.0,0.0,0.0,0.0,0.0,0.0,0.0,0.0,0.0,0.0,0.0,0.0,0.0,0.0,0.0,0.0,0.0,0.0,0.0,0.0,0.0,0.0,0.0,0.0,0.0,0.0,0.0,2.3452,2.3469,2.3868,2.3934,2.3949,0.0,0.0,0.0,0.0,0.0,0.0,0.0,0.0,0.0,2.4862,2.4388,2.4061,2.3922,2.3607,2.3437,2.3437,2.3057,2.3079,2.3405,2.3638,2.3939,2.4344,2.5231,2.5646,2.5786,2.6684,2.7041,2.7041,0.0,0.0,0.0,0.0,2.6492,2.6697,0.0,0.0,0.0,0.0,0.0,0.0,0.0,0.0,0.0,0.0,0.0,0.0,2.5619,2.56,2.5593,2.5593,2.5601,2.5604,2.5605,2.5536,0.0,0.0,2.5611,2.6033,2.6715,2.7193,2.7805,2.8557,2.9432,2.9869,2.9867,3.0478,3.0754,3.0743,3.0754,3.0745,3.0756,3.0715,3.0696,3.0664,0.0,0.0,0.0,0.0,0.0,0.0,0.0,0.0,0.0,0.0,0.0,0.0,0.0,0.0,0.0,0.0,0.0,0.0,0.0,0.0,0.0,0.0,0.0,0.0,0.0,0.0,0.0,0.0,0.0,0.0,0.0,0.0,0.0,0.0,0.0,0.0,0.0,2.3663,2.3501,2.3877,2.3842,2.3806,0.0,0.0,0.0,0.0,0.0,0.0,2.5889,2.5484,2.5217,2.5179,2.4469,2.401,2.3728,2.3478,2.329,2.3246,2.2968,2.2804,2.2743,2.3045,2.3183,2.3169,2.4166,2.4782,2.5155,2.6553,2.7126,2.7109,2.6994,2.6899,2.6754,2.6738,2.6852,2.6997,0.0,0.0,0.0,0.0,0.0,0.0,0.0,0.0,0.0,0.0,0.0,2.5694,2.5699,2.5639,2.56,2.5598,2.5605,2.5603,2.5601,2.5551,2.549,2.5495,2.6169,2.6625,2.6784,2.8548,2.9472,2.953,3.0394,3.0834,3.084,3.0863,3.0888,3.0897,3.0884,3.0784,3.0604,3.0678,3.0656,3.0603,3.0599,0.0,0.0,0.0,0.0,0.0,0.0,0.0,0.0,0.0,0.0,0.0,0.0,0.0,0.0,0.0,0.0,0.0,0.0,0.0,0.0,0.0,0.0,0.0,0.0,0.0,0.0,0.0,0.0,0.0,0.0,0.0,0.0,0.0,0.0,0.0,0.0,0.0,0.0,2.4808,2.4673,0.0,0.0,0.0,0.0,2.4918,2.5227,2.5303,2.5005,2.4333,2.3876,2.3709,2.2589,2.1955,2.1921,2.2199,2.2237,2.1998,2.281,2.3028,2.283,2.308,2.3067,2.2909,2.4078,2.4602,2.463,2.4786,2.535,2.605,2.6079,2.6079,2.6168,2.6438,2.642,2.6347,0.0,0.0,0.0,0.0,0.0,0.0,0.0,0.0,2.567,2.5696,2.5652,2.5644,2.5632,2.5644,2.5652,2.5668,2.566,2.5664,2.5664,2.5609,2.5796,2.6303,2.659,2.7297,2.8515,2.979,3.045,3.0448,3.0743,3.0909,3.0898,3.0894,3.0905,3.0899,3.0908,3.084,3.0728,3.0711,3.0678,3.0646,3.0518,3.0422,0.0,0.0,0.0,0.0,0.0,0.0,0.0,0.0,0.0,0.0,0.0,0.0,0.0,0.0,0.0,0.0,0.0,0.0,0.0,0.0,0.0,0.0,0.0,0.0,0.0,0.0,0.0,0.0,0.0,0.0,0.0,0.0,0.0,0.0,0.0,0.0,0.0,2.5476,2.5362,0.0,2.5013,2.5345,2.5434,2.5045,2.5462,2.5623,2.5479,2.5182,2.4972,2.4896,2.4185,2.3609,2.3216,2.2995,2.2667,2.2247,2.2511,2.2616,2.2562,2.2644,2.2697,2.2697,2.3121,2.351,2.3839,2.3832,2.4702,2.5961,2.6145,2.6202,2.6252,2.6542,2.6696,2.6808,0.0,0.0,0.0,0.0,0.0,0.0,0.0,0.0,2.5684,2.5678,2.5652,2.5636,2.5634,2.5676,2.5696,2.5696,2.5703,2.5687,2.5668,2.5873,2.6234,2.6786,2.7384,2.8415,2.9912,3.0573,3.0899,3.0899,3.0899,3.0909,3.0898,3.0898,3.0897,3.0905,3.0901,3.0852,3.0817,3.1076,3.0987,3.0678,3.0519,3.0389,3.0311,0.0,0.0,0.0,0.0,0.0,0.0,0.0,0.0,0.0,0.0,0.0,0.0,0.0,0.0,0.0,0.0,0.0,0.0,0.0,0.0,0.0,0.0,0.0,0.0,0.0,0.0,0.0,0.0,0.0,0.0,0.0,0.0,0.0,0.0,0.0,2.5871,2.6357,2.6241,2.6046,2.5863,2.6072,2.613,2.5913,2.6174,2.6273,2.6123,2.5925,2.5832,2.577,2.5173,2.4624,2.3997,2.3768,2.3326,2.2701,2.2994,2.3086,2.2988,2.3073,2.3115,2.3115,2.3226,2.3486,2.3851,2.3878,2.4535,2.56,2.5878,2.5971,2.6001,2.6408,2.6585,2.6689,0.0,0.0,0.0,0.0,0.0,0.0,0.0,2.571,2.5671,2.5604,2.5665,2.5698,2.5707,2.5694,2.5703,2.5703,2.5692,2.5688,2.564,2.6372,2.6821,2.6876,2.859,2.9932,3.0784,3.0863,3.0899,3.0899,3.0899,3.0889,3.0898,3.0898,3.0898,3.0895,3.0923,3.0891,3.0891,3.1768,3.1605,3.0761,3.0634,3.0499,3.0465,0.0,0.0,0.0,0.0,0.0,0.0,0.0,0.0,0.0,0.0,0.0,0.0,0.0,0.0,0.0,0.0,0.0,0.0,0.0,0.0,0.0,0.0,0.0,0.0,0.0,0.0,0.0,0.0,0.0,0.0,0.0,0.0,0.0,2.6446,2.7163,2.7705,2.7492,2.7243,2.719,2.7306,2.7222,2.7248,2.7384,2.7458,2.7264,2.6795,2.6499,2.6274,2.6077,2.5342,2.4667,2.4075,2.4382,2.4109,2.3345,2.4182,2.439,2.4112,2.4447,2.439,2.4112,2.4447,2.4677,2.4778,2.4778,2.4905,2.5037,2.5334,2.5379,2.5342,2.6047,2.6092,2.5922,0.0,0.0,0.0,0.0,0.0,0.0,0.0,2.5656,2.5644,2.5659,2.5646,2.5652,2.5698,2.5702,2.5703,2.5703,2.5704,2.5948,2.6516,2.6752,2.7443,2.8695,2.9788,3.0537,3.0866,3.0894,3.0899,3.0899,3.0894,3.0895,3.0907,3.0897,3.0898,3.0937,3.1511,3.176,3.1797,3.2611,3.2798,3.2499,3.2367,3.2228,3.2102,0.0,0.0,0.0,0.0,0.0,0.0,0.0,0.0,0.0,0.0,0.0,0.0,0.0,0.0,0.0,0.0,0.0,0.0,0.0,0.0,0.0,0.0,0.0,0.0,0.0,0.0,0.0,0.0,0.0,0.0,0.0,0.0,2.882,2.7993,2.8014,2.8129,2.8246,2.8168,2.8027,2.7745,2.8059,2.818,2.7922,2.8354,2.8595,2.8476,2.7984,2.7702,2.767,2.7154,2.6556,2.5977,2.5607,2.5122,2.4549,2.4323,2.4171,2.4112,2.4229,2.4216,2.4247,2.4363,2.4536,2.4778,2.4778,2.5018,2.5384,2.5845,2.6015,2.6096,2.6942,2.7154,2.71,0.0,0.0,0.0,0.0,0.0,0.0,0.0,2.5619,2.5609,2.5656,2.5618,2.564,2.5683,2.5703,2.57,2.5704,2.5699,2.6033,2.685,2.7573,2.8437,2.9464,3.0315,3.0827,3.0897,3.0899,3.0899,3.0899,3.0891,3.0894,3.0892,3.0894,3.1073,3.1425,3.1885,3.229,3.2669,3.3482,3.3815,3.3751,3.3967,3.3506,3.2723,3.2855,3.2504,3.1915,3.1893,3.131,3.0586,3.0592,0.0,0.0,0.0,0.0,0.0,0.0,0.0,0.0,0.0,0.0,0.0,0.0,0.0,0.0,0.0,0.0,0.0,0.0,0.0,0.0,0.0,0.0,0.0,0.0,2.9822,3.0135,2.9693,2.9488,2.9028,2.8032,2.8819,2.8921,2.7607,2.7777,2.8271,2.9043,2.8527,2.8249,2.8425,2.8116,2.7853,2.7657,2.7367,2.7169,2.7041,2.6663,2.6147,2.5314,2.4778,2.4505,2.4447,2.4229,2.4157,0.0,2.4305,2.4478,2.4734,2.4778,2.5018,0.0,0.0,0.0,0.0,0.0,2.7034,2.7086,0.0,0.0,0.0,0.0,0.0,0.0,0.0,2.561,2.5605,2.5607,2.5605,2.5622,2.5683,2.5703,2.5703,2.5691,2.5689,2.6034,2.6843,2.8528,2.9498,2.9507,3.0401,3.0901,3.0903,3.0899,3.0899,3.0899,3.0899,3.0909,3.0898,3.1008,3.1423,3.2102,3.2316,3.2787,3.3507,3.4386,3.4695,3.4701,3.5256,3.4447,3.2959,3.3524,3.3164,3.2369,3.2686,3.1999,3.0887,3.1018,0.0,0.0,0.0,0.0,0.0,0.0,0.0,0.0,0.0,0.0,0.0,0.0,0.0,0.0,0.0,0.0,0.0,0.0,0.0,0.0,0.0,0.0,0.0,0.0,3.114,3.1168,3.0793,3.0653,2.9687,2.7294,2.8943,2.9268,2.6732,2.6476,2.7493,2.9898,2.8118,2.7096,2.7541,0.0,0.0,0.0,0.0,2.6959,2.7441,2.7579,2.7129,2.6103,2.5577,2.5308,2.5308,2.4691,2.4413,2.4413,2.4445,2.4562,2.4762,2.4922,2.5037,2.5195,2.5424,2.5647,2.5948,2.619,2.6244,2.6297,0.0,0.0,0.0,0.0,0.0,0.0,0.0,2.561,2.5591,2.5595,2.5593,2.5627,2.5697,2.5703,2.5696,2.5692,2.5643,2.5975,2.6833,2.8532,2.953,2.9578,3.0422,3.0895,3.0898,3.0907,3.0899,3.0899,3.0899,3.0905,3.0915,3.162,3.1991,3.2165,3.3573,3.425,3.4419,3.5281,3.5589,3.5475,3.5488,3.5144,3.4604,3.4641,3.4247,3.363,3.3545,3.281,3.1923,3.211,3.176,3.1222,3.1479,3.1497,0.0,0.0,0.0,0.0,0.0,0.0,0.0,0.0,0.0,0.0,0.0,0.0,0.0,0.0,0.0,0.0,0.0,0.0,0.0,3.0773,3.1015,3.0472,2.8352,2.8045,2.7751,2.7089,2.7366,2.6646,2.4152,2.3927,2.4935,2.7415,2.716,2.7248,2.802,2.7723,2.6864,2.5456,2.6417,2.6993,2.7104,2.8,2.8356,2.8134,0.0,0.0,2.7211,2.6567,2.6283,2.6283,2.5704,2.5608,2.573,2.59,2.6156,2.6375,2.5768,2.5647,2.5893,2.5948,2.5988,2.6002,0.0,0.0,0.0,0.0,0.0,0.0,0.0,2.561,2.5595,2.555,2.554,2.5578,2.5633,2.5618,2.5601,2.559,2.5993,2.6257,2.6257,2.8326,2.9366,2.8973,3.0209,3.0894,3.0894,3.0903,3.088,3.086,3.088,3.0905,3.0914,3.1757,3.2361,3.2819,3.412,3.4913,3.5287,3.5684,3.5795,3.5698,3.5514,3.5302,3.5081,3.4908,3.4502,3.3954,3.3533,3.2942,3.2332,3.2231,3.1984,3.1746,3.1965,3.1893,3.175,0.0,0.0,0.0,0.0,0.0,0.0,0.0,0.0,0.0,0.0,0.0,0.0,0.0,0.0,3.1588,0.0,0.0,3.1295,3.1295,3.1735,3.1567,3.0285,3.0564,2.9003,2.3895,2.4361,2.4182,2.1821,2.1622,2.2723,2.541,2.5748,2.5615,2.5077,2.7529,2.7941,2.5713,2.7624,2.8817,2.9062,2.9596,2.9636,2.9153,2.8566,2.8268,2.8211,2.7619,2.7325,2.7266,2.6681,2.6451,2.6512,2.6356,2.643,2.662,2.6145,2.6147,2.6378,2.6523,2.6523,2.658,0.0,0.0,0.0,0.0,0.0,0.0,0.0,2.561,2.5579,2.5507,2.5505,2.5525,2.5582,2.554,2.5502,2.5486,2.6203,2.6337,2.5629,2.7943,2.9023,2.834,2.997,3.0909,3.0899,3.0899,3.086,3.0821,3.088,3.0903,3.0912,3.1894,3.2734,3.3453,3.4496,3.5311,3.5894,3.5833,3.5749,3.5649,3.5489,3.5258,3.5066,3.487,3.4461,3.3954,3.3421,3.2916,3.2502,3.2127,3.193,3.1875,3.2001,3.1893,3.1649,3.1203,3.0885,0.0,0.0,0.0,0.0,0.0,0.0,0.0,0.0,0.0,3.1564,3.1727,3.2366,3.2887,3.2979,3.2687,3.2162,3.128,3.1596,3.1451,3.0064,3.0633,2.8023,1.9503,2.1434,2.2211,1.9119,1.8809,1.9987,2.2848,2.3307,2.3182,2.2491,2.6307,2.7891,2.6586,2.8556,3.0033,3.0843,3.1165,3.0892,2.9953,2.9481,2.9241,2.9227,2.8627,2.8322,2.8278,2.7732,2.7492,2.7506,2.7047,2.6889,2.7012,2.6951,2.6951,2.706,2.7105,2.7143,2.7143,0.0,0.0,0.0,0.0,0.0,0.0,0.0,0.0,2.5579,2.5507,2.5495,2.5528,2.5591,2.555,2.5478,2.543,2.5621,2.5682,2.5511,2.7344,2.8401,2.8303,2.9962,3.0899,3.0899,3.0841,3.0841,3.0899,3.0899,3.0899,3.0921,3.2518,3.3301,3.3476,3.5125,3.5861,3.5909,3.5827,3.5726,3.5612,3.5463,3.5239,3.4982,3.4793,3.4483,3.4124,3.3762,3.3214,3.2669,3.2472,3.2091,3.1654,3.1783,3.1746,3.1184,2.9034,2.8211,2.7363,2.464,2.3415,2.3073,2.3846,2.335,2.2872,0.0,0.0,2.7825,2.8531,3.1433,3.3979,3.4376,3.4427,3.3081,2.9085,2.8502,2.6333,2.0002,1.9251,1.8117,1.4904,2.0091,2.1453,1.5188,1.4605,1.569,1.8382,1.8668,2.0376,2.4281,2.2701,2.3557,2.7672,2.7171,2.7838,2.9935,3.1499,3.1946,3.1315,3.12,3.12,3.1185,3.0499,3.0187,3.0187,2.9492,2.9321,2.9473,2.9004,2.8766,2.8766,2.8447,2.8241,2.8042,2.7141,2.6809,2.687,0.0,0.0,0.0,0.0,0.0,0.0,0.0,0.0,0.0,0.0,2.5407,2.539,2.5427,2.5399,2.5369,2.5331,2.5464,2.5537,2.549,2.6789,2.7776,2.8283,2.9474,3.0353,3.0821,3.0801,3.0801,3.0841,3.0841,3.086,3.0938,3.2104,3.2909,3.3457,3.4688,3.5483,3.589,3.5833,3.5727,3.5574,3.5416,3.5083,3.4715,3.4569,3.4208,3.3698,3.3343,3.3032,0.0,3.2161,3.1966,3.193,3.1728,3.0533,2.9015,2.802,2.6674,2.4821,2.1513,2.0665,2.0691,0.0,2.0038,2.0813,2.5509,2.7411,2.9059,3.2015,3.3908,3.4306,3.1882,3.1248,2.9616,0.0,2.4789,2.4113,2.1288,2.145,2.058,1.7093,1.87,1.8633,1.4819,1.4453,1.5011,1.6376,1.7983,1.9034,1.9311,2.181,2.3405,2.3866,2.5548,2.6743,2.7344,2.8074,2.8823,2.9576,2.9576,3.0251,3.1482,3.1219,3.0896,3.0464,3.0208,2.995,2.978,2.9484,2.9421,2.9608,2.9484,2.917,2.8812,2.808,2.7854,2.7917,0.0,0.0,0.0,0.0,0.0,0.0,0.0,0.0,0.0,0.0,2.5332,2.5293,2.5262,2.5282,2.5282,2.5282,2.5395,2.5479,2.5493,2.6429,2.7366,2.8264,2.9123,2.9982,3.0782,3.0801,3.0801,3.0801,3.0801,3.0841,3.0919,3.1711,3.2439,3.3086,3.4203,3.5002,3.5554,3.5706,3.5708,3.555,3.534,3.4978,3.4576,3.4458,3.3986,3.3372,3.3027,3.2908,3.2802,3.2038,3.2038,3.2122,3.1112,2.9414,2.769,2.7184,2.5011,2.2044,1.8547,1.7677,0.0,1.7312,1.6784,1.785,2.3432,2.5183,2.6612,3.0088,3.1672,3.1502,2.845,2.7648,2.5998,2.1499,2.1316,2.1279,1.9973,2.0557,1.9891,1.6592,1.5559,1.471,1.354,1.3365,1.3533,1.3833,1.6,1.6896,1.5873,1.9787,2.1918,2.1698,2.3579,2.4681,2.4888,2.4869,2.5863,2.7785,2.693,2.8269,3.1482,3.1482,3.1219,3.0777,3.0837,3.0644,3.0329,3.0072,3.0058,3.0254,3.0194,2.9903,2.9532,2.9247,2.8894,2.8651,0.0,0.0,0.0,0.0,0.0,0.0,0.0,0.0,0.0,0.0,0.0,0.0,0.0,2.5192,2.5192,2.5192,2.5331,2.5432,2.5493,2.6373,2.7327,2.8264,2.9123,2.9982,3.0782,3.0801,3.0801,3.0801,3.0801,3.0841,3.0919,3.1711,3.2107,3.2207,3.3923,3.4686,3.4691,3.5397,3.5639,3.547,3.5219,3.4981,3.4753,3.4498,3.4037,3.3458,3.3057,3.2939,3.2912,3.2454,3.242,3.214,2.95,2.8637,2.8207,2.6393,2.2851,1.8742,1.5057,0.0,1.345,1.4241,1.3521,1.2616,1.2872,1.4992,1.7142,1.8061,2.128,2.4137,2.4723,2.488,2.3405,1.8839,1.8324,1.6691,1.1424,1.0879,1.073,1.001,0.9842,0.9861,0.0,0.9913,0.9831,1.0091,1.0989,1.3099,1.6644,1.5265,1.7196,2.3512,2.1178,2.0848,2.3073,2.3087,2.4346,2.6823,2.376,2.5519,3.1482,3.1482,3.1482,3.1467,3.167,3.1727,3.1727,3.1306,3.1102,3.0911,3.0629,3.0375,3.0211,3.0389,2.9685,2.8587,0.0,0.0,0.0,0.0,0.0,0.0,0.0,0.0,0.0,0.0,0.0,0.0,0.0,0.0,0.0,0.0,2.5038,2.506,2.5213,2.5602,2.6305,2.7328,2.8254,2.9123,2.9982,3.0528,3.0801,3.0801,3.0801,3.0841,3.0919,3.1177,3.158,3.212,3.2717,3.3585,3.4606,3.4768,3.5032,3.5345,3.5083,3.4716,3.4288,3.3891,3.357,3.3302,0.0,3.283,3.2943,3.2621,3.2958,3.3327,3.2265,2.9016,2.4653,1.9737,1.7337,1.5833,1.3444,0.0,1.2463,1.2155,1.1161,1.1306,1.5068,1.6517,1.7943,2.1028,2.3245,2.3715,2.0793,1.9907,1.8172,1.3653,1.2536,1.1702,1.0105,0.8939,0.8225,0.8134,0.6624,0.0,0.0,0.0,0.0,0.9923,1.0799,1.1543,1.2214,1.2249,1.3185,1.5451,1.5175,1.5306,1.6094,1.6717,1.8216,2.0585,2.1622,2.3212,2.5262,2.5109,2.634,2.8561,2.8457,2.9805,3.2038,3.1796,3.1781,3.1766,3.1652,3.1276,3.0911,3.1116,3.0644,2.9917,0.0,0.0,0.0,0.0,0.0,0.0,0.0,0.0,0.0,0.0,0.0,0.0,0.0,0.0,0.0,0.0,0.0,2.4841,2.4915,2.5043,2.5572,2.6565,2.756,2.8491,2.9372,3.0243,3.0696,3.0696,3.0732,3.0781,3.084,3.088,3.1189,3.1675,3.1981,3.2678,3.3666,3.411,3.4455,3.4737,3.4737,3.4445,3.3906,3.3514,3.3273,0.0,3.283,3.2848,3.2811,3.1579,3.1737,3.1994,2.9404,2.5869,2.156,1.5914,1.4949,1.5217,1.2594,1.1651,1.1315,1.0662,0.9904,1.0275,1.3831,1.4748,1.556,1.8241,1.9538,1.9111,1.5725,1.4816,1.3626,1.0598,0.9937,0.9396,0.8404,0.7508,0.6066,0.3921,0.2181,0.122,0.0,0.0,0.0,0.8603,0.9758,1.0019,0.9405,1.0255,1.0768,1.0768,1.1353,1.1605,1.1605,1.2202,1.3263,1.4791,1.9067,2.0515,1.9458,2.0463,2.2352,2.4797,2.4621,2.6793,3.044,3.0332,3.1086,3.2287,3.2287,3.1992,3.1637,3.1766,3.1522,3.116,0.0,0.0,0.0,0.0,0.0,0.0,0.0,0.0,0.0,0.0,0.0,0.0,0.0,0.0,0.0,0.0,0.0,0.0,2.4592,2.4712,2.5152,2.5995,2.7045,2.802,2.8888,2.989,3.0427,3.0466,3.0601,3.0661,3.0667,3.0819,3.0873,3.0913,3.1694,3.1987,3.199,3.3388,3.3862,3.3745,3.4233,3.4147,3.3688,3.3372,3.3093,3.2827,3.2925,3.2906,3.2365,2.9571,2.893,2.8193,2.1609,1.9789,1.9168,1.484,1.5378,1.6445,1.202,1.0366,0.9836,0.9836,0.9666,0.9405,0.9144,0.9584,1.0024,0.9767,1.0467,1.0814,0.0,0.0,0.9845,0.9483,0.973,0.8814,0.5796,0.5526,0.3393,0.0,0.0,0.0,0.0,0.0,0.0,0.538,0.0,0.7796,0.7796,0.8844,0.9456,0.9369,0.9653,0.9749,0.9749,0.9749,0.9836,0.9952,1.5944,1.7242,1.4437,1.7434,1.9381,2.0396,2.0314,2.2812,2.6953,2.6897,2.8837,3.1883,3.2101,3.2204,3.2144,3.2408,3.2437,3.2272,0.0,0.0,0.0,0.0,0.0,0.0,0.0,0.0,0.0,0.0,0.0,0.0,0.0,0.0,0.0,0.0,0.0,0.0,2.4388,2.4457,2.4657,2.4966,2.5968,2.6891,2.7723,2.8576,2.9298,2.9908,3.0132,3.0253,3.0263,3.0546,3.0687,3.0686,3.0943,3.1379,3.1929,3.2189,3.2852,3.369,3.3515,3.3626,3.3831,3.2947,3.2952,3.3309,3.2684,3.1402,2.9899,2.9156,0.0,0.0,0.0,1.8804,1.8096,1.3174,1.2276,1.2344,0.9804,0.8978,0.8798,0.8707,0.8097,0.7669,0.8097,0.7179,0.6724,0.7826,0.7705,0.7683,0.0,0.0,0.0,0.372,0.1723,0.0,-0.2886,-0.4409,0.0,-0.7403,0.0,-0.981,-1.1318,-0.9141,0.0,0.0,-0.3055,-0.1605,-0.2376,0.0944,0.2855,0.2681,0.5987,0.7661,0.7305,0.8177,0.9052,0.9908,1.1502,1.1892,1.1117,1.1768,1.3644,1.6338,1.5978,1.8345,2.2443,2.2274,2.3137,2.4912,2.8259,2.9133,2.8943,3.2285,3.3308,3.2879,0.0,0.0,0.0,0.0,0.0,0.0,0.0,0.0,0.0,0.0,0.0,0.0,0.0,0.0,0.0,0.0,0.0,0.0,0.0,2.4192,2.4242,2.4409,2.5329,2.6046,2.6503,2.7384,2.8249,2.9052,2.9246,2.9574,3.0018,3.0255,3.0462,3.0594,3.0618,3.0874,3.1323,3.1409,3.1785,0.0,0.0,3.2919,3.3002,3.2764,3.2939,3.328,3.2798,3.0219,0.0,0.0,0.0,1.9394,1.7419,1.6328,1.5206,1.2574,0.0,1.0453,0.9405,0.8536,0.7841,0.7665,0.7231,0.6881,0.7048,0.658,0.6304,0.7129,0.6558,0.0,0.6565,0.0,0.0,0.0,0.0,0.0,-0.7163,-0.928,-1.1488,0.0,-1.5814,0.0,-1.9263,-1.7898,-1.7119,0.0,-0.9985,-0.5549,-0.608,-0.3735,-0.2472,-0.2557,0.3591,0.7659,0.9212,0.6302,0.6063,0.8536,0.8619,0.8707,0.8707,0.8536,0.9857,1.2041,0.0,1.3905,1.8017,1.7676,1.9026,2.1529,2.405,2.4976,2.5415,2.9927,3.1429,3.1353,0.0,0.0,0.0,0.0,0.0,0.0,0.0,0.0,0.0,0.0,0.0,0.0,0.0,0.0,0.0,0.0,0.0,0.0,0.0,0.0,2.3937,2.4058,2.4798,2.526,2.5352,2.6209,2.7065,2.7884,2.8161,2.8742,2.9639,2.9902,3.0181,3.0457,3.0443,3.0454,3.0489,3.0797,3.0601,3.0187,3.1616,3.1616,3.0931,0.0,3.2667,3.2429,3.204,2.8754,0.0,0.0,1.6394,1.3741,1.4547,1.3547,1.2147,1.2439,1.1311,0.9836,0.9575,0.836,0.7051,0.6969,0.6969,0.6792,0.6349,0.6694,0.7041,0.6962,0.0,0.5132,0.4614,0.0781,-0.2475,-0.3223,0.0,-0.8423,-1.0917,-1.3105,-1.622,-2.0984,-2.3372,-2.5524,-2.7939,-2.7917,-2.7806,-2.7973,-1.6266,-0.9035,-0.8914,-0.8341,-0.7542,-0.6685,0.0769,0.6549,1.0326,0.3118,0.1384,0.5039,0.5846,0.621,0.6216,0.6861,0.7577,0.8281,0.7834,0.0,1.3593,1.3265,1.5487,1.9177,1.9888,2.0587,2.1752,2.6247,2.8238,2.9147,0.0,0.0,0.0,0.0,0.0,0.0,0.0,0.0,0.0,0.0,2.2505,2.363,0.0,0.0,0.0,0.0,0.0,0.0,0.0,0.0,0.0,2.3458,2.3606,2.3986,2.4653,2.4849,2.5391,2.6284,2.7204,2.7827,2.8196,2.9157,2.9636,2.9693,2.9965,2.9974,2.9771,2.9957,2.8965,2.7488,2.9663,2.8478,2.5904,3.0158,0.0,0.0,2.6922,0.0,0.0,0.0,1.5523,1.4452,1.4451,1.3715,1.2698,1.1838,1.0773,0.9575,0.8009,0.7312,0.7228,0.7573,0.7661,0.7485,0.7051,0.5874,0.0,0.0,0.455,0.3829,0.5184,0.0611,-0.4587,-0.8142,0.0,0.0,0.0,0.0,-2.5318,0.0,0.0,0.0,0.0,0.0,0.0,0.0,0.0,-2.4387,-2.3525,-1.9997,-1.535,-0.9473,-0.6355,-0.4148,-0.3052,-0.4854,-0.5233,-0.4069,-0.0343,0.1468,0.1733,0.5388,0.7228,0.7316,0.6871,0.0,0.8987,0.9322,1.0363,1.2191,1.6669,1.8072,1.8062,2.2562,2.636,2.9302,0.0,0.0,0.0,0.0,0.0,0.0,0.0,0.0,2.0561,2.0645,2.1359,2.2238,2.3268,2.3801,0.0,0.0,0.0,0.0,0.0,0.0,0.0,0.0,0.0,0.0,2.3819,2.3795,0.0,0.0,0.0,2.6322,2.694,2.8088,2.7938,2.6724,2.7595,2.7747,2.728,2.6205,2.6568,2.7712,2.6048,2.5249,2.5396,0.0,0.0,0.0,0.0,0.0,0.0,0.0,1.5833,1.6628,1.5202,1.3973,1.3008,1.2585,1.1277,0.9836,0.9405,0.854,0.7845,0.836,0.8448,0.8273,0.7929,0.0,0.0,0.0,0.455,0.321,0.4107,0.0,0.0,0.0,0.0,0.0,0.0,0.0,0.0,0.0,0.0,0.0,0.0,0.0,0.0,0.0,0.0,-3.1698,-2.8148,-2.4124,-1.8594,-1.134,-1.2627,-1.0231,-0.351,-0.7905,-0.7828,-0.3316,-0.094,0.1468,0.386,0.6122,0.7139,0.7051,0.6789,0.0,0.7044,0.7224,0.8017,0.942,1.2069,1.3371,1.4388,1.8887,2.3293,2.7233,0.0,0.0,0.0,0.0,0.0,0.0,0.0,2.005,2.0093,2.0348,2.047,2.0947,2.2019,2.2937,2.3527,0.0,0.0,0.0,0.0,0.0,0.0,0.0,0.0,0.0,0.0,0.0,0.0,0.0,0.0,0.0,0.0,0.0,0.0,0.0,0.0,2.5196,2.4217,2.3131,2.4051,0.0,0.0,2.269,0.0,0.0,0.0,0.0,0.0,0.0,0.0,0.0,1.6174,1.825,1.5522,1.3954,1.3154,1.3261,1.1832,1.0361,1.0885,0.9845,0.8719,0.9323,0.9414,0.9152,0.8894,0.8105,0.0,0.0,0.6623,0.5214,0.6176,0.0,0.4904,0.0,0.0,0.0,0.0,0.0,0.0,0.0,0.0,0.0,0.0,0.0,0.0,0.0,0.0,0.0,-3.0629,-2.7079,-2.2439,-1.6331,-1.8768,-1.5497,-0.5654,-1.1533,-1.1198,-0.4662,-0.2381,0.0516,0.4041,0.6125,0.7054,0.7054,0.6881,0.0,0.0,0.6609,0.7401,0.8686,1.0143,1.1578,1.3427,1.798,2.2385,2.6461,0.0,0.0,0.0,0.0,0.0,0.0,0.0,1.9934,1.9738,1.9692,2.006,2.0318,2.0242,2.1621,2.2779,0.0,0.0,0.0,0.0,0.0,0.0,0.0,0.0,0.0,0.0,0.0,0.0,0.0,0.0,0.0,0.0,0.0,0.0,0.0,0.0,0.0,0.0,2.3801,0.0,0.0,0.0,0.0,0.0,0.0,0.0,0.0,0.0,0.0,0.0,0.0,0.0,1.7245,1.4504,1.3395,1.3034,1.2828,0.0,0.0,1.0274,0.9923,0.984,1.0371,1.0458,1.0289,0.9859,0.0,0.0,1.2522,1.2282,1.2761,1.6854,1.4324,1.1027,0.0,0.0,-1.546,0.0,0.0,0.0,0.0,0.0,0.0,0.0,0.0,0.0,0.0,0.0,0.0,-3.5809,-3.3093,-3.0894,-2.9327,-2.5227,-2.2581,-2.1446,-2.0197,-1.9085,-1.8013,-1.0162,-0.5984,-0.4905,0.3144,0.6792,0.6792,0.6795,0.0,0.0,0.7925,0.8627,0.9103,1.5282,1.7802,1.8529,2.3293,2.7264,3.0274,0.0,0.0,0.0,0.0,0.0,0.0,2.0211,2.0022,1.9802,1.9567,1.9515,1.9632,1.9971,2.0356,2.1088,0.0,0.0,0.0,0.0,0.0,0.0,0.0,0.0,0.0,0.0,0.0,0.0,0.0,0.0,0.0,0.0,0.0,0.0,0.0,0.0,0.0,0.0,0.0,0.0,0.0,0.0,0.0,0.0,0.0,0.0,0.0,0.0,0.0,0.0,0.0,0.0,0.0,1.3252,1.2454,0.0,0.0,1.2594,1.2169,1.2328,1.1809,1.13,1.2083,1.1671,1.0992,1.0824,0.0,1.2901,1.4356,1.5602,1.6977,1.8769,1.9865,1.8789,1.3546,0.3652,0.0,0.0,0.0,0.0,0.0,0.0,0.0,0.0,0.0,0.0,0.0,0.0,0.0,-3.8338,-3.461,-3.2604,-3.286,-2.8211,-2.4964,-2.3498,-2.2794,-2.0345,-1.6133,-1.2694,-0.8147,-0.2726,0.095,0.4043,0.6523,0.6523,0.0,0.0,0.7489,0.8189,0.909,1.5349,1.8098,1.9114,2.3238,2.7319,3.0691,0.0,0.0,0.0,0.0,0.0,2.0346,2.0214,2.005,1.9805,1.954,1.9175,1.9093,1.9501,1.9423,1.9774,2.0863,0.0,0.0,0.0,0.0,0.0,0.0,0.0,0.0,0.0,0.0,0.0,2.1625,0.0,0.0,0.0,0.0,0.0,0.0,0.0,0.0,0.0,0.0,0.0,0.0,0.0,0.0,0.0,0.0,0.0,0.0,0.0,0.0,0.0,0.0,0.0,0.0,0.0,0.0,0.0,0.0,1.3945,1.3632,1.658,1.4957,1.3136,1.5774,1.3918,1.1946,0.0,0.0,1.5879,1.8272,1.9095,2.0133,2.2582,2.2968,2.153,1.7441,0.7836,-0.2053,-1.0463,0.0,0.0,0.0,0.0,0.0,0.0,0.0,0.0,0.0,0.0,0.0,-4.0018,-3.6543,-3.4627,-3.4776,-3.0816,-2.7393,-2.4578,-2.4073,-2.105,-1.5518,-1.4328,-0.9736,-0.2387,-0.0943,0.2175,0.6343,0.6343,0.0,0.0,0.7051,0.7929,0.9217,1.6498,1.9683,2.0871,2.6354,2.9916,3.1908,0.0,0.0,0.0,0.0,0.0,0.0,0.0,1.9924,1.9644,1.9526,1.9099,1.8733,1.8529,1.893,1.9173,1.9039,0.0,0.0,0.0,0.0,0.0,0.0,0.0,0.0,0.0,0.0,2.0991,2.0716,2.0718,2.0396,0.0,0.0,0.0,0.0,0.0,0.0,0.0,0.0,0.0,0.0,0.0,0.0,0.0,0.0,0.0,0.0,0.0,0.0,0.0,0.0,0.0,0.0,0.0,0.0,0.0,0.0,1.6319,1.5407,2.3185,1.9581,1.5255,2.1923,1.7594,1.3505,0.0,0.0,1.7457,2.5418,2.3353,2.259,3.0767,2.3352,1.7179,2.0853,0.5121,0.0,-0.6684,0.0,0.0,0.0,0.0,0.0,0.0,0.0,0.0,0.0,0.0,0.0,-4.1071,-4.0023,-3.8489,-3.6456,-3.3813,-3.0714,-2.7107,-2.4901,-2.2461,-1.9766,-1.5831,-1.1589,-0.6895,-0.2471,0.1915,0.0,0.0,0.0,0.0,0.6962,0.7929,0.9531,2.0162,2.4231,2.5211,3.4807,3.6908,3.4928,0.0,0.0,0.0,0.0,0.0,0.0,0.0,1.9924,1.9644,1.9526,1.9099,1.8715,1.8526,1.8478,1.8567,1.8836,0.0,0.0,0.0,0.0,0.0,0.0,0.0,0.0,0.0,0.0,2.0765,2.0634,1.9672,1.939,1.974,1.6419,1.5471,0.0,0.0,0.0,0.0,0.0,0.0,0.0,0.0,0.0,0.0,0.0,0.0,0.0,0.0,0.0,0.0,0.0,0.0,0.0,0.0,0.0,0.0,2.5865,2.432,0.0,2.5536,2.2161,1.8874,2.346,1.9793,1.6256,2.0858,0.0,2.3388,2.3322,2.4037,2.4682,2.4732,1.9885,1.4609,1.0783,0.2933,0.0,0.0,0.0,0.0,0.0,0.0,0.0,0.0,0.0,0.0,0.0,0.0,0.0,-4.111,-4.0785,-3.9969,-3.8558,-3.7057,-3.3669,-2.8253,-2.7763,-2.5001,-1.9863,-1.8952,-1.6142,-1.1758,-1.0336,-0.5667,0.0,0.0,0.0,0.0,1.0119,1.0481,0.9823,2.2721,2.6257,2.5087,3.3152,3.5652,3.4886,0.0,0.0,0.0,0.0,0.0,0.0,0.0,1.9953,1.9717,1.9458,1.9097,1.877,1.8524,1.827,1.819,1.8407,0.0,0.0,0.0,0.0,0.0,0.0,0.0,0.0,0.0,2.04,2.0028,1.9728,1.8707,1.8278,1.8361,1.5752,1.5056,1.5904,1.3106,0.0,0.0,0.0,0.0,0.0,0.0,0.0,2.0934,0.0,0.0,0.0,0.0,0.0,0.0,0.0,0.0,0.0,0.0,0.0,0.0,0.0,3.0464,2.9322,0.0,2.3984,2.032,2.5144,2.2447,0.0,0.0,2.5442,2.4769,2.3686,2.2994,2.1845,1.9606,1.3926,0.8172,0.3622,-0.2362,0.0,0.0,0.0,0.0,0.0,0.0,0.0,0.0,0.0,0.0,0.0,0.0,0.0,-4.111,-4.111,-4.0785,-4.0127,-3.9099,-3.6048,-3.0784,-2.646,-2.183,-1.6896,-1.2662,-1.001,-0.901,-0.901,-0.603,0.0,0.0,0.0,0.0,1.1212,1.2165,1.1696,2.3985,2.7403,2.6208,3.2639,3.471,3.4249,0.0,0.0,0.0,0.0,0.0,0.0,0.0,0.0,1.9824,1.9361,1.9146,1.8877,1.8544,1.829,1.8044,1.7794,0.0,0.0,0.0,0.0,0.0,0.0,0.0,0.0,0.0,1.9579,1.8954,1.8305,1.7868,1.7105,1.6071,1.5564,1.5062,1.4477,1.2609,0.0,0.0,0.0,0.0,0.0,0.0,0.0,0.0,0.0,0.0,0.0,0.0,0.0,0.0,0.0,0.0,0.0,0.0,0.0,0.0,0.0,0.0,0.0,0.0,2.5346,2.0716,0.0,0.0,0.0,0.0,0.0,0.0,2.5581,2.0576,1.549,1.5146,0.6468,-0.068,-0.0799,0.0,0.0,0.0,0.0,0.0,0.0,0.0,0.0,0.0,0.0,0.0,0.0,0.0,0.0,-4.1078,-4.1085,-4.111,-4.1085,-4.0129,-3.7868,-3.4229,-2.2187,-1.4758,-1.1942,0.0137,0.3412,-0.118,-0.1227,-0.1088,0.0,0.0,0.0,0.0,1.1495,1.3741,1.5222,2.4608,2.8002,2.8209,3.3076,3.4218,3.3309,0.0,0.0,0.0,0.0,0.0,0.0,0.0,0.0,0.0,0.0,1.9316,1.9031,1.8563,1.8428,1.8208,0.0,0.0,0.0,0.0,0.0,0.0,0.0,0.0,0.0,0.0,1.9281,1.8769,1.8305,1.753,1.6685,1.572,1.488,1.4351,1.4071,1.2169,1.1297,0.0,0.0,0.0,0.0,0.0,0.0,0.0,0.0,0.0,0.0,2.7973,2.8339,0.0,0.0,0.0,0.0,0.0,0.0,0.0,0.0,3.1081,2.8734,2.9281,0.0,2.8115,3.1756,2.9286,2.6705,0.0,0.0,0.0,0.0,0.0,0.0,0.0,0.0,0.0,0.0,0.0,0.0,0.0,0.0,0.0,0.0,0.0,0.0,0.0,0.0,0.0,0.0,0.0,-4.0988,-4.0943,-4.1038,-4.1078,-4.103,-4.0823,-3.8967,-3.5285,-2.3256,-1.5501,-1.1942,0.0138,0.1803,-0.5741,-0.5747,-0.3932,0.0,0.0,0.0,1.6303,2.0797,2.124,1.9926,2.8402,3.0103,2.8225,3.2243,3.3511,3.3309,0.0,0.0,0.0,0.0,0.0,0.0,0.0,0.0,0.0,0.0,0.0,0.0,0.0,0.0,0.0,0.0,0.0,0.0,0.0,0.0,0.0,0.0,0.0,0.0,1.9406,1.8936,1.8397,1.7787,1.7242,1.6527,1.5623,1.4628,1.4222,1.4165,1.2209,1.14,0.0,0.0,0.0,0.0,1.9041,0.0,0.0,0.0,0.0,0.0,2.758,2.7891,0.0,2.9237,2.9946,3.0219,0.0,0.0,0.0,0.0,3.0598,2.9577,2.9995,2.9451,2.9059,3.0475,2.9529,2.826,2.8236,0.0,0.0,0.0,0.0,0.0,0.0,0.0,0.0,0.0,0.0,0.0,0.0,0.0,0.0,0.0,0.0,0.0,0.0,0.0,0.0,0.0,0.0,-4.0907,-4.0907,-4.0996,-4.1038,-4.0996,-4.1071,-4.0137,-3.8151,-2.6006,-1.6064,-0.8375,0.3837,0.5842,-0.1098,0.3,0.2825,0.0,0.0,0.0,1.9457,2.3947,2.4721,2.3699,3.0296,3.1762,3.0398,3.2515,3.3309,3.3309,0.0,0.0,0.0,0.0,0.0,0.0,0.0,0.0,0.0,0.0,0.0,0.0,0.0,0.0,0.0,0.0,0.0,0.0,0.0,0.0,0.0,0.0,0.0,1.9288,1.9049,1.8721,1.8135,1.7269,1.7173,1.6612,1.557,1.4686,1.4165,1.392,1.2307,1.1653,0.0,0.0,0.0,0.0,1.9575,0.0,0.0,0.0,0.0,0.0,0.0,0.0,0.0,2.9134,2.9789,2.9897,2.9196,0.0,0.0,0.0,0.0,0.0,3.1862,2.9909,2.7987,2.7987,2.8554,2.8574,2.676,0.0,0.0,0.0,0.0,0.0,0.0,0.0,0.0,0.0,0.0,0.0,0.0,0.0,0.0,0.0,0.0,0.0,0.0,0.0,0.0,0.0,0.0,-4.0633,-4.0679,-4.0742,-4.0791,-4.0781,-4.0984,-4.1078,-4.1071,-2.8787,-1.6457,-0.4157,0.819,1.1939,0.8186,1.5751,1.3025,0.2737,0.0,0.0,2.1437,2.5225,2.6831,2.7281,3.1334,3.2897,3.3005,3.3203,3.3309,3.324,0.0,0.0,0.0,0.0,0.0,0.0,0.0,0.0,0.0,0.0,0.0,0.0,0.0,0.0,0.0,0.0,0.0,0.0,0.0,0.0,0.0,0.0,1.9859,1.9472,1.9645,1.9109,1.8422,1.7558,1.7733,1.6883,1.5006,1.4755,1.3558,1.1692,1.171,1.1844,1.2159,1.4134,1.6803,1.9855,2.1969,0.0,0.0,0.0,0.0,0.0,0.0,0.0,0.0,2.8202,2.8653,2.87,2.8525,0.0,0.0,0.0,0.0,0.0,3.1534,3.1662,3.1573,3.1573,2.9371,2.6696,2.4768,0.0,0.0,0.0,0.0,0.0,0.0,0.0,0.0,0.0,0.0,0.0,0.0,0.0,0.0,0.0,0.0,0.0,0.0,0.0,0.0,0.0,0.0,0.0,-3.9719,-3.9766,-3.9813,-3.9806,-4.0602,-4.0988,-4.0926,-2.8744,-1.6457,-0.4157,0.819,1.5152,1.7186,1.8592,1.8074,1.6223,0.0,2.2811,3.0389,3.1102,3.1545,3.1868,3.2625,3.3058,3.3256,3.3293,3.3309,3.3102,0.0,0.0,0.0,0.0,0.0,0.0,0.0,0.0,0.0,0.0,0.0,0.0,0.0,0.0,0.0,0.0,0.0,0.0,0.0,0.0,0.0,2.1149,2.0143,1.9603,1.9566,1.8988,1.8436,1.7974,1.7828,1.6938,1.5344,1.4376,1.3198,1.2026,1.1933,1.2255,1.2969,1.4976,1.7601,2.0576,0.0,0.0,0.0,0.0,0.0,0.0,0.0,0.0,0.0,0.0,2.8444,2.8411,2.8411,0.0,0.0,0.0,0.0,0.0,3.0895,3.1706,3.2398,3.2398,3.0338,2.7746,0.0,0.0,0.0,0.0,0.0,0.0,0.0,0.0,0.0,0.0,0.0,0.0,0.0,0.0,0.0,0.0,0.0,0.0,0.0,0.0,0.0,0.0,0.0,0.0,-4.0159,-3.9372,-3.9113,-3.9586,-4.0048,-4.0288,-4.025,-3.5095,-2.6302,-1.4068,-0.8399,-0.3874,-0.0188,1.1228,1.3824,0.9954,0.0,2.8619,3.2398,3.2398,3.2523,3.2773,3.2843,3.3005,3.3065,3.2118,3.1708,3.1453,0.0,0.0,0.0,0.0,0.0,0.0,0.0,0.0,0.0,0.0,0.0,0.0,0.0,0.0,0.0,0.0,0.0,0.0,0.0,0.0,2.1565,2.146,2.0483,1.9839,1.9632,1.9064,1.8669,1.8369,1.7974,1.705,1.5555,1.3852,1.2842,1.2548,1.2283,1.288,1.419,1.6109,1.8568,2.1349,0.0,0.0,0.0,0.0,0.0,0.0,0.0,0.0,0.0,0.0,0.0,0.0,0.0,0.0,0.0,2.8348,2.9366,3.0428,3.0428,3.1382,3.2398,3.2398,0.0,0.0,0.0,0.0,0.0,0.0,0.0,0.0,0.0,0.0,0.0,0.0,0.0,0.0,0.0,0.0,0.0,0.0,0.0,0.0,0.0,0.0,0.0,0.0,0.0,0.0,-4.0284,-3.8912,-3.8465,-3.9267,-3.9527,-3.9668,-3.9651,-4.0474,-3.4691,-2.2518,-2.2513,-1.9615,-1.3654,0.5431,1.0386,0.5059,2.4164,3.2453,3.2453,3.2523,3.2578,3.2617,3.1977,3.152,3.1091,2.9705,2.948,2.9565,0.0,0.0,0.0,0.0,0.0,0.0,0.0,0.0,0.0,0.0,0.0,0.0,0.0,0.0,0.0,0.0,0.0,0.0,0.0,0.0,2.1777,2.1323,2.0649,2.0243,2.0235,1.9874,1.9376,1.8664,1.8612,1.7396,1.5028,1.3253,1.2335,1.2144,1.2232,1.3544,1.5884,1.8501,2.1045,2.3433,2.506,0.0,0.0,0.0,0.0,0.0,0.0,0.0,0.0,0.0,0.0,0.0,0.0,0.0,2.7136,2.8122,2.9366,3.0428,3.0428,3.1382,3.2398,3.2398,2.7086,0.0,2.6013,1.3115,0.0,0.3568,0.0,0.0,0.0,0.0,0.0,0.0,0.0,0.0,0.0,0.0,0.0,0.0,0.0,0.0,0.0,0.0,0.0,0.0,0.0,0.0,-3.894,-3.8053,-3.7785,-3.8294,-3.9142,-3.9586,-3.9526,-4.0376,-3.4683,-2.2596,-2.2545,-1.6417,-0.4726,0.8221,1.3751,1.3863,2.6931,3.2578,3.2594,3.2773,3.2951,3.2734,2.952,2.727,2.5879,2.5747,2.6881,2.8184,0.0,0.0,0.0,0.0,0.0,0.0,0.0,0.0,0.0,0.0,0.0,0.0,0.0,0.0,0.0,0.0,0.0,0.0,0.0,0.0,2.2005,2.1505,2.0926,2.0512,2.0304,1.9797,1.9347,1.8959,1.7396,1.6083,1.4971,1.3341,1.2693,1.2979,1.3032,1.4482,1.6975,1.9197,2.1494,2.3764,2.5291,2.5754,0.0,0.0,0.0,0.0,0.0,0.0,0.0,0.0,2.6997,2.6709,2.7565,2.7369,2.7019,2.8073,2.9366,3.0105,2.8862,3.0438,3.157,2.7974,2.2455,0.0,0.0,1.1969,0.2725,-0.4484,-1.1729,0.0,0.0,0.0,0.0,0.0,0.0,0.0,0.0,0.0,0.0,0.0,0.0,0.0,0.0,0.0,0.0,0.0,0.0,0.0,0.0,-3.7889,-3.7327,-3.774,-3.8682,-3.9029,-3.8758,-4.0123,-3.8477,-3.3916,-3.3875,-3.1447,-2.63,-0.6367,0.2709,0.3833,2.3822,3.2523,3.2594,3.2648,3.2881,3.2788,2.9418,2.6335,2.3696,2.2533,2.3244,2.456,0.0,0.0,0.0,0.0,0.0,0.0,0.0,0.0,0.0,0.0,0.0,0.0,0.0,0.0,0.0,0.0,0.0,0.0,2.3259,2.2824,2.2286,2.1639,2.1197,2.0745,2.0304,1.9797,1.9435,1.9176,1.686,1.5463,1.4982,1.358,1.3113,1.3484,1.3511,1.5304,1.8452,1.979,2.1953,2.4538,2.5406,2.5642,0.0,0.0,0.0,0.0,0.0,0.0,0.0,0.0,2.6634,2.6037,2.6805,2.6448,2.5966,2.6836,2.8412,2.9552,2.7967,2.9174,3.0163,2.7327,0.0,0.0,0.9998,0.4473,-0.3163,-1.3116,-1.8876,0.0,0.0,0.0,0.0,0.0,0.0,0.0,0.0,0.0,0.0,0.0,0.0,0.0,0.0,0.0,0.0,0.0,0.0,0.0,0.0,-3.7902,-3.7234,-3.7499,-3.8107,-3.8405,-3.8285,-3.941,-4.0018,-4.013,-3.9844,-4.0098,-4.0095,-1.9403,-0.7875,-0.3036,1.7697,2.7725,2.9405,2.9448,2.8335,2.6497,2.5356,2.3121,2.034,1.8945,1.9907,2.1617,0.0,0.0,0.0,0.0,0.0,0.0,0.0,0.0,0.0,0.0,0.0,0.0,0.0,0.0,0.0,0.0,0.0,0.0,2.3259,2.3045,2.251,2.1639,2.1399,2.0991,2.0304,1.9945,1.966,1.9376,1.7382,1.5903,1.4994,1.3916,1.3416,1.3494,1.3516,1.6087,2.0412,2.0467,2.2675,2.6068,2.5594,2.5269,2.5013,0.0,0.0,0.0,0.0,0.0,0.0,0.0,2.6011,2.5022,2.5795,2.4912,2.38,2.4085,2.6442,2.8729,2.7925,2.7631,2.827,0.0,0.0,0.0,-0.1968,-1.1591,-2.0161,-2.2243,0.0,0.0,0.0,0.0,0.0,0.0,0.0,0.0,0.0,0.0,0.0,0.0,0.0,0.0,0.0,0.0,0.0,0.0,0.0,0.0,0.0,-3.7975,-3.7524,-3.7499,-3.7499,-3.7725,-3.8198,-3.818,-3.8348,-3.8681,-3.7829,-3.8608,-4.0359,-2.8086,-1.5841,-0.3655,0.8807,1.7259,2.2277,2.244,1.8566,1.2895,1.6448,1.6644,1.5011,1.5011,1.7171,1.9809,0.0,0.0,0.0,0.0,0.0,0.0,0.0,0.0,0.0,0.0,0.0,0.0,0.0,0.0,0.0,0.0,0.0,0.0,2.3247,2.3168,2.2669,2.1622,2.1549,2.0959,1.9747,1.9095,1.864,1.8422,1.6786,1.572,1.5209,1.4327,1.4053,1.4248,1.4576,1.6889,2.0615,2.0676,2.2771,2.5957,2.5269,2.4902,2.4728,0.0,0.0,0.0,0.0,0.0,0.0,0.0,0.0,0.0,2.5631,2.4939,2.4,2.4283,2.5619,2.6296,2.3135,2.5588,0.0,2.3916,0.0,0.0,0.0,-1.6992,0.0,0.0,0.0,0.0,0.0,0.0,0.0,0.0,0.0,0.0,0.0,0.0,0.0,0.0,0.0,0.0,0.0,0.0,0.0,0.0,0.0,0.0,0.0,-3.8423,-3.8029,-3.7524,-3.7812,-3.7899,-3.7725,-3.804,-3.8229,-3.8339,-3.8069,-3.8436,-3.8915,-2.6621,-1.9028,-1.4767,0.0045,0.8221,1.1241,1.4206,1.4235,1.2635,1.3677,1.389,1.3626,1.3626,1.517,1.7114,0.0,0.0,0.0,0.0,0.0,0.0,0.0,0.0,0.0,0.0,0.0,0.0,0.0,0.0,0.0,0.0,0.0,0.0,0.0,2.3116,2.2529,2.1753,2.1428,2.0667,1.9384,1.8577,1.7948,1.753,1.6655,1.6029,1.5717,1.5067,1.4749,1.4794,1.528,1.7397,2.0715,2.0793,2.2733,2.5701,2.4997,2.4795,2.4782,0.0,0.0,0.0,0.0,0.0,0.0,0.0,0.0,0.0,2.5092,2.42,2.3229,2.3995,2.5209,2.5914,2.3983,2.6125,0.0,0.0,0.0,0.0,0.0,0.0,0.0,0.0,0.0,0.0,0.0,0.0,0.0,0.0,0.0,0.0,0.0,0.0,0.0,0.0,0.0,0.0,0.0,0.0,0.0,0.0,0.0,0.0,0.0,-3.8658,-3.8328,-3.772,-3.7837,-3.7881,-3.7787,-3.7548,-3.7507,-3.7608,-3.711,-3.7018,-3.7113,-3.0279,-2.468,-1.9676,-0.6378,0.0418,0.2277,0.5072,0.7092,0.8521,0.9882,1.1592,1.3137,1.3789,1.4851,1.6003,0.0,0.0,0.0,0.0,0.0,0.0,0.0,0.0,0.0,0.0,0.0,0.0,0.0,0.0,0.0,0.0,0.0,0.0,0.0,0.0,2.2334,2.1978,2.1118,2.0154,1.9101,1.8305,1.7544,1.6795,1.6795,1.6642,1.6385,1.5853,1.5511,1.532,1.5911,1.7834,2.0705,2.0982,2.2736,2.5307,2.4806,2.4791,2.4999,2.449,0.0,0.0,0.0,0.0,0.0,0.0,0.0,0.0,2.4452,2.3075,2.1886,2.3282,2.4944,2.6579,2.7819,0.0,0.0,0.0,0.0,0.0,0.0,0.0,0.0,0.0,0.0,0.0,0.0,0.0,0.0,0.0,0.0,0.0,0.0,0.0,0.0,0.0,0.0,0.0,0.0,0.0,0.0,0.0,0.0,0.0,0.0,-3.8818,-3.8486,-3.8059,-3.772,-3.7736,-3.8123,-3.6949,-3.6446,-3.6642,-3.5511,-3.5031,-3.5292,-3.6595,-3.137,-2.0688,-1.1589,-0.6758,-0.5158,-0.4091,-0.1393,0.2426,0.564,0.9424,1.313,1.4504,1.5328,1.5674,0.0,0.0,0.0,0.0,0.0,0.0,0.0,0.0,0.0,0.0,0.0,0.0,0.0,0.0,0.0,0.0,0.0,0.0,0.0,0.0,2.2961,2.2479,2.059,1.9302,1.8779,1.7868,1.7199,1.6876,1.6693,1.6434,1.6209,1.5803,1.5825,1.6277,1.7588,1.9086,2.0704,2.2119,2.3512,2.4782,2.4829,2.4788,2.4732,2.4917,2.5282,0.0,0.0,0.0,0.0,0.0,0.0,0.0,2.4851,2.3479,2.1847,2.1975,2.324,2.4404,2.3329,2.6322,0.0,0.0,0.0,0.0,0.0,0.0,0.0,0.0,0.0,0.0,0.0,0.0,0.0,0.0,0.0,0.0,0.0,0.0,0.0,0.0,0.0,0.0,0.0,0.0,0.0,0.0,0.0,0.0,-3.9389,-3.9357,-3.9045,-3.8486,-3.8077,-3.7823,-3.7649,-3.7076,-3.6626,0.0,-3.6105,-3.5593,-3.4914,-3.5494,-3.262,-2.6783,-2.031,-1.5615,-1.24,-0.8913,-0.3678,0.2167,0.3115,0.7042,1.2272,1.2857,1.3197,1.3451,0.0,0.0,0.0,0.0,0.0,0.0,0.0,0.0,0.0,0.0,0.0,0.0,0.0,0.0,0.0,0.0,0.0,0.0,0.0,0.0,2.3304,2.277,2.0397,1.9021,1.8853,1.706,1.6027,1.5832,1.5894,1.6114,1.6452,1.7028,1.7014,1.6645,1.9025,2.039,2.1009,2.2911,2.4383,2.5397,2.5255,2.5363,2.5553,2.5511,2.5806,2.6257,2.6257,0.0,0.0,0.0,0.0,0.0,0.0,0.0,2.1769,2.2903,2.2906,2.2975,0.0,0.0,0.0,0.0,0.0,0.0,0.0,0.0,0.0,0.0,0.0,0.0,0.0,0.0,0.0,0.0,0.0,0.0,0.0,0.0,0.0,0.0,0.0,0.0,0.0,0.0,0.0,0.0,0.0,-3.9693,-3.9693,-3.9575,-3.9357,-3.9045,-3.856,-3.8194,-3.8032,-3.7487,-3.7094,-3.686,-3.6492,-3.5766,-3.4738,-3.5074,-3.366,-3.067,-2.6089,-2.1642,-1.7218,-1.3041,-0.6984,-0.0261,0.1645,0.5295,0.9819,1.2433,1.3093,1.2784,0.0,0.0,0.0,0.0,0.0,0.0,0.0,0.0,0.0,0.0,0.0,0.0,0.0,0.0,0.0,0.0,0.0,0.0,0.0,0.0,0.0,2.3007,2.048,1.9078,1.9012,1.6363,1.4949,1.4775,1.5218,1.5769,1.6441,1.7822,1.7858,1.6895,1.9962,2.1386,2.1613,2.3746,2.5322,2.637,2.6001,2.6141,2.6553,2.6262,2.6455,2.6884,2.6884,2.6884,2.6884,2.6832,0.0,0.0,0.0,0.0,2.1741,2.3988,2.3114,2.2474,0.0,0.0,1.7611,0.0,0.0,0.0,0.0,0.0,0.0,0.0,0.0,0.0,0.0,0.0,0.0,0.0,0.0,0.0,0.0,0.0,0.0,0.0,0.0,0.0,0.0,0.0,0.0,0.0,0.0,-3.9889,-3.9889,-3.9693,-3.9551,-3.9502,-3.9036,-3.8707,-3.8585,-3.798,-3.765,-3.7505,-3.6678,-3.581,-3.4944,-3.4981,-3.4211,-3.2732,-2.9267,-2.5279,-2.0883,-1.6231,-1.0316,-0.3795,0.0518,0.3994,0.7063,1.2006,1.3309,1.2687,0.0,0.0,0.0,0.0,0.0,0.0,0.0,0.0,0.0,0.0,0.0,0.0,0.0,0.0,0.0,0.0,0.0,0.0,0.0,0.0,0.0,2.3356,2.0822,1.9291,1.9012,1.6363,1.5062,1.523,1.5758,1.5747,0.0,0.0,1.6393,1.7497,1.9721,2.1426,2.2751,2.5031,2.6333,2.6812,2.6857,2.6771,2.6662,2.728,2.7464,2.7299,2.7181,2.7233,2.7248,2.6937,2.5988,0.0,0.0,0.0,2.2056,2.2694,2.3323,2.3765,0.0,0.0,0.0,0.0,0.0,0.0,0.0,0.0,0.0,0.0,0.0,0.0,0.0,0.0,0.0,0.0,0.0,0.0,0.0,0.0,0.0,0.0,0.0,0.0,0.0,0.0,0.0,0.0,-3.9889,-3.9889,-3.9889,-3.9867,-3.9735,-3.9526,-3.9408,-3.9127,-3.8615,-3.8504,-3.8132,-3.7505,-3.6678,-3.6156,-3.5881,-3.4922,-3.3838,-3.24,-2.8135,-2.5833,-2.4505,-1.7268,-1.1894,-0.7562,-0.1024,0.314,0.5964,0.9525,1.1305,1.1821,0.0,0.0,0.0,0.0,0.0,0.0,0.0,0.0,0.0,0.0,0.0,0.0,0.0,0.0,0.0,0.0,0.0,0.0,0.0,0.0,0.0,2.4581,2.1207,1.927,1.9135,1.5872,1.4213,1.4273,1.4819,0.0,0.0,1.5123,1.6269,0.0,0.0,2.3607,2.4426,2.684,2.783,2.781,2.8014,2.7808,2.7433,2.7754,2.776,2.759,2.7386,2.7473,2.7595,2.6974,2.6496,2.5983,2.5217,0.0,0.0,0.0,2.2194,0.0,1.8839,0.0,0.0,0.0,0.0,0.0,0.0,0.0,0.0,0.0,0.0,0.0,0.0,0.0,0.0,0.0,0.0,0.0,0.0,0.0,0.0,0.0,0.0,0.0,0.0,0.0,0.0,0.0,-3.9257,-3.9414,-3.9414,-3.9186,-3.9186,-3.9483,-3.9107,-3.8755,-3.8505,-3.8579,-3.8231,-3.7505,-3.7132,-3.662,-3.595,-3.514,-3.417,-3.2902,-3.0584,-2.8126,-2.5335,-1.9644,-1.5118,-1.1025,-0.3509,0.0699,0.2983,0.6763,0.9597,1.1735,0.0,0.0,0.0,0.0,0.0,0.0,0.0,0.0,0.0,0.0,0.0,0.0,0.0,0.0,0.0,0.0,0.0,0.0,0.0,0.0,0.0,2.5411,2.1779,1.9896,2.0162,1.6752,1.5171,1.5524,0.0,0.0,1.5496,1.5951,1.7306,0.0,2.2998,2.5001,0.0,0.0,2.8881,2.8833,2.8839,2.851,2.8054,2.8107,2.8057,2.7925,2.774,2.781,2.7913,2.7218,2.707,2.701,2.5661,2.5114,0.0,0.0,0.0,0.0,0.0,0.0,0.0,0.0,0.0,0.0,0.0,0.0,0.0,0.0,0.0,0.0,0.0,0.0,0.0,0.0,0.0,0.0,0.0,0.0,0.0,0.0,0.0,0.0,0.0,0.0,0.0,0.0,-3.8802,-3.8952,-3.9008,-3.8707,-3.8718,-3.9178,-3.8623,-3.8272,-3.8095,-3.8158,-3.7911,-3.7358,-3.719,-3.6649,-3.5698,-3.5124,-3.4252,-3.3145,-3.2641,-3.0265,-2.6388,-2.1686,-1.8013,-1.4482,-0.592,-0.1315,0.0879,0.4734,0.8517,1.1821,0.0,0.0,0.0,0.0,0.0,0.0,0.0,0.0,0.0,0.0,0.0,0.0,0.0,2.5318,2.5369,2.5487,2.5505,2.5449,2.5327,2.5308,2.5242,2.5132,2.2656,0.0,2.2777,2.0299,1.9674,2.1084,0.0,0.0,1.8646,1.8454,1.9623,2.1928,2.2421,2.4121,2.6726,0.0,0.0,0.0,2.892,2.8429,2.8235,2.8589,2.8605,0.0,0.0,2.8414,2.8383,2.764,2.7654,2.7764,2.6226,2.604,2.6016,0.0,0.0,0.0,0.0,0.0,0.0,0.0,0.0,0.0,0.0,0.0,0.0,0.0,0.0,0.0,0.0,0.0,0.0,0.0,0.0,0.0,0.0,0.0,0.0,0.0,0.0,0.0,0.0,0.0,0.0,0.0,-3.8868,-3.8868,-3.898,-3.8924,-3.8678,-3.8279,-3.8248,-3.7896,-3.729,-3.7061,-3.6978,-3.6939,-3.6416,-3.5786,-3.5107,-3.4528,-3.3614,-3.2437,-3.2398,-3.1275,-2.9018,-2.2405,-1.9604,-1.8369,-0.7678,-0.1938,0.0791,0.4138,0.8182,1.1992,0.0,0.0,0.0,0.0,0.0,0.0,0.0,0.0,0.0,0.0,0.0,0.0,0.0,2.5241,2.526,2.5365,2.5444,2.5442,2.5309,2.5305,2.5249,2.5114,2.3222,2.2429,2.2998,2.1283,2.0759,0.0,0.0,1.8718,2.0622,1.9421,2.0625,2.3816,2.4724,2.6461,2.8745,2.9707,0.0,0.0,0.0,0.0,0.0,0.0,0.0,0.0,0.0,0.0,0.0,2.9185,2.9526,2.9693,2.7542,2.7033,2.6502,0.0,0.0,0.0,0.0,0.0,0.0,0.0,0.0,0.0,0.0,0.0,0.0,0.0,0.0,0.0,0.0,0.0,0.0,0.0,0.0,0.0,0.0,0.0,0.0,0.0,0.0,0.0,0.0,0.0,0.0,0.0,0.0,-3.8234,-3.8281,-3.7995,-3.7821,-3.7814,-3.7557,-3.7309,-3.7071,-3.6533,-3.6381,-3.6649,-3.6446,-3.5865,-3.4951,-3.4733,-3.3403,-3.117,-3.117,-3.0616,-2.924,-2.3153,-1.9732,-1.7591,-1.0877,-0.4633,0.0792,0.2285,0.6322,1.123,0.0,0.0,0.0,0.0,0.0,0.0,0.0,0.0,0.0,0.0,0.0,0.0,0.0,0.0,2.5133,2.5255,2.5348,2.5467,2.56,2.5596,2.5628,2.5695,2.4529,2.4127,2.4678,2.3353,2.3121,0.0,0.0,0.0,0.0,2.1824,2.2857,2.5956,2.7231,2.8539,0.0,0.0,0.0,3.0054,0.0,0.0,2.9328,0.0,0.0,0.0,0.0,0.0,0.0,0.0,0.0,0.0,0.0,0.0,0.0,0.0,0.0,0.0,0.9187,0.0,0.0,0.0,0.0,0.0,0.0,0.0,0.0,0.0,0.0,0.0,0.0,0.0,0.0,0.0,0.0,0.0,0.0,0.0,0.0,0.0,0.0,0.0,0.0,0.0,0.0,0.0,0.0,0.0,-3.7667,-3.7356,-3.7266,-3.7434,-3.6876,-3.6601,-3.6584,-3.6138,-3.5977,-3.6088,-3.6028,-3.547,-3.4382,-3.4333,-3.3024,-3.0793,-3.0335,-2.9746,-2.8675,-2.3347,-1.973,-1.702,-1.2557,-0.601,0.088,0.1229,0.5352,1.0895,0.0,0.0,0.0,0.0,0.0,0.0,0.0,0.0,0.0,2.4512,0.0,0.0,0.0,0.0,0.0,2.5248,2.5258,2.5547,2.6203,2.6246,2.6427,2.6879,2.6606,2.693,2.7966,2.6736,2.7066,2.9089,2.5513,2.4797,2.6764,0.0,2.6365,2.8423,2.9677,3.007,2.9867,0.0,3.0559,3.0576,0.0,2.9918,3.0728,0.0,0.0,0.0,3.1272,3.1239,0.0,3.0822,0.0,0.0,0.0,0.0,0.0,0.0,0.0,0.0,0.0,0.0,0.0,0.0,0.0,0.0,0.0,0.0,0.0,0.0,0.0,0.0,0.0,0.0,0.0,0.0,0.0,0.0,0.0,0.0,0.0,0.0,0.0,0.0,0.0,0.0,0.0,0.0,-3.696,-3.696,-3.7135,-3.7073,-3.7013,-3.7013,-3.6182,-3.5722,-3.5722,-3.5837,-3.5661,-3.5291,-3.5152,-3.4513,-3.3391,-3.3219,-3.2501,-3.1409,-2.9968,-2.8793,-2.7499,-2.3108,-1.9739,-1.702,-1.264,-0.6002,0.1143,0.1316,0.5436,1.0982,0.0,0.0,0.0,0.0,0.0,0.0,0.0,0.0,0.0,0.0,0.0,0.0,2.4623,2.5299,2.6034,2.6735,2.6886,2.6982,2.7058,2.7062,2.7019,2.6898,2.7177,2.7537,2.7985,2.7869,2.8215,2.9089,2.6463,2.6365,2.8688,2.7157,2.7736,0.0,3.0642,3.0886,3.0825,3.0931,0.0,0.0,3.1203,3.1636,0.0,0.0,0.0,0.0,0.0,3.2547,3.2045,0.0,3.2746,3.2491,0.0,0.0,0.0,0.0,0.0,0.0,1.0219,0.0,0.0,0.0,0.0,0.0,0.0,0.0,0.0,0.0,0.0,0.0,0.0,0.0,0.0,0.0,0.0,0.0,0.0,0.0,0.0,0.0,0.0,0.0,0.0,0.0,0.0,0.0,-3.584,-3.6002,-3.6446,-3.5761,-3.5346,-3.5346,-3.4847,-3.4561,-3.4561,-3.4944,-3.5118,-3.4994,-3.4994,-3.435,-3.3219,-3.202,-3.1411,-3.1146,-2.7656,-2.654,-2.7063,-2.4649,-2.0737,-1.5991,-1.4173,-0.7491,0.1143,0.1316,0.501,1.012,0.0,0.0,0.0,0.0,0.0,0.0,2.4228,2.4247,2.4266,0.0,0.0,0.0,2.5375,2.6015,2.6637,2.7161,2.7343,2.754,2.7805,2.7794,2.7789,2.7863,2.8138,2.8331,2.8458,2.825,2.8537,2.9428,2.7658,2.7936,3.0077,2.9071,2.9548,3.1236,0.0,0.0,0.0,0.0,0.0,0.0,3.2165,0.0,0.0,3.3867,3.393,0.0,0.0,0.0,3.3255,3.3292,3.3309,0.0,0.0,0.0,0.0,0.0,0.0,0.0,0.0,0.0,0.0,0.0,0.0,0.0,-1.3566,-1.5675,0.0,0.0,0.0,0.0,0.0,0.0,0.0,0.0,0.0,0.0,0.0,0.0,0.0,0.0,0.0,0.0,0.0,-3.417,-3.4493,-3.4745,-3.4775,-3.4994,-3.5559,-3.4795,-3.4541,-3.4964,-3.4366,-3.402,-3.402,-3.4577,-3.4625,-3.4202,-3.4675,-3.4202,-3.2826,-3.1445,-3.066,-3.0182,-2.6598,-2.5326,-2.5509,-2.3356,-1.9612,-1.5198,-1.4296,-0.7835,0.0969,0.1056,0.4754,0.968,0.0,0.0,0.0,0.0,0.0,0.0,0.0,2.4281,2.4357,0.0,2.5092,2.5907,2.6737,2.695,2.7046,2.7139,2.7325,2.7751,2.8464,2.8465,2.8723,2.932,2.9307,2.9296,2.9365,2.8489,2.8682,3.0017,2.9133,2.9438,3.0957,3.1045,3.1429,3.1967,0.0,0.0,0.0,0.0,0.0,3.2929,3.2982,3.393,0.0,0.0,3.5675,0.0,3.515,3.4725,3.4523,3.3578,3.3309,0.0,0.0,0.0,0.0,0.0,1.8907,0.0,0.0,0.0,0.0,0.0,0.0,0.0,-1.0559,-1.2828,-1.516,0.0,0.0,0.0,0.0,0.0,0.0,0.0,0.0,0.0,0.0,0.0,0.0,0.0,0.0,0.0,-3.3383,-3.3588,-3.3655,-3.3721,-3.3772,-3.4022,-3.4414,-3.3972,-3.4137,-3.5052,-3.4186,-3.3721,-3.3721,-3.4268,-3.4088,-3.3182,-3.4251,-3.3834,-3.217,-3.0976,-2.988,-2.8697,-2.6131,-2.4566,-2.3591,-2.0391,-1.7324,-1.4494,-1.3323,-0.7364,0.0707,0.0707,0.4498,0.9579,0.0,0.0,0.0,0.0,0.0,0.0,0.0,0.0,2.5096,2.5705,2.6075,2.6667,2.7567,2.7701,2.7962,2.8611,2.8849,2.9042,2.9191,2.9288,2.964,3.0296,3.0312,3.0539,3.1022,3.0779,3.0734,3.0873,3.093,3.1084,3.1293,3.1603,3.1792,3.193,0.0,0.0,0.0,0.0,0.0,3.5035,3.4957,0.0,3.7219,3.7528,3.7642,3.754,3.6429,3.5574,3.4743,0.0,3.345,3.2992,0.0,0.0,0.0,0.0,0.0,0.0,0.0,0.0,0.0,0.0,0.0,0.0,-0.9234,-1.1804,-1.3971,0.0,0.0,0.0,0.0,0.0,0.0,0.0,0.0,0.0,0.0,0.0,0.0,0.0,0.0,0.0,-3.0911,-3.1516,-3.2109,-3.2664,-3.3077,-3.3166,-3.2879,-3.2734,-3.2772,-3.2955,-3.2772,-3.268,-3.268,-3.3219,-3.3375,-3.3182,-3.3407,-3.2609,-3.0836,-2.896,-2.7857,-2.7183,-2.3441,-2.2318,-2.2908,-1.8635,-1.5731,-1.3788,-1.1832,-0.6189,0.0707,0.0707,0.4498,0.9579,0.0,0.0,0.0,0.0,0.0,0.0,0.0,0.0,0.0,0.0,2.6636,2.7292,2.8145,2.8695,2.9168,2.9577,3.0074,3.0409,3.0541,3.0476,3.068,3.1169,3.1125,3.1196,3.1434,3.1427,3.1415,3.149,3.1685,3.1773,3.1857,3.2039,3.2109,3.2144,3.2273,0.0,0.0,0.0,3.4513,3.5352,3.5932,0.0,3.8164,3.8689,3.885,3.8665,3.7624,3.6303,3.4931,3.436,3.3872,0.0,0.0,2.9551,2.7273,0.0,1.8806,1.5606,0.0,0.0,0.0,0.1672,0.0,0.0,0.0,-1.0043,-1.181,-1.3297,0.0,0.0,0.0,0.0,0.0,0.0,0.0,0.0,0.0,0.0,0.0,0.0,0.0,0.0,-2.8697,-2.926,-3.011,-3.1261,-3.189,-3.2312,-3.2382,-3.212,-3.2064,-3.2398,-3.212,-3.191,-3.1838,-3.2407,-3.2501,-3.2145,-3.2703,-3.181,-2.9675,-2.8112,-2.6683,-2.5257,-2.1642,-2.0478,-2.0708,-1.5947,-1.34,-1.2355,-1.052,-0.5706,0.0355,0.0355,0.415,0.9396,2.2543,0.0,0.0,0.0,0.0,0.0,2.5835,2.6083,0.0,0.0,0.0,0.0,0.0,0.0,0.0,0.0,3.0815,3.1316,0.0,0.0,3.1403,3.1866,3.1819,3.1796,3.181,3.1861,3.1973,3.2146,3.2146,3.2255,3.242,3.242,3.2491,0.0,0.0,0.0,0.0,0.0,0.0,3.5578,0.0,3.7567,3.8308,3.908,3.9439,3.9333,3.8306,3.6571,3.4726,3.4726,0.0,3.3382,3.3145,3.0849,0.0,0.0,0.0,0.0,0.0,0.0,0.0,0.0,0.0,-0.3899,0.0,0.0,0.0,-1.0129,0.0,0.0,0.0,0.0,0.0,0.0,0.0,0.0,0.0,0.0,0.0,0.0,0.0,0.0,0.0,-2.7196,-2.8265,-2.9709,-3.0629,-3.1379,-3.1977,-3.1682,-3.1739,-3.2231,-3.1739,-3.1351,-3.1087,-3.1652,-3.1537,-3.0881,-3.189,-3.1055,-2.8507,-2.7588,-2.5834,-2.3402,-2.0526,-1.9186,-1.8621,-1.3671,-1.1412,-1.0979,-0.8905,-0.477,0.0089,0.0445,0.4249,0.9209,2.3588,2.3816,0.0,0.0,0.0,0.0,2.5952,2.6271,0.0,0.0,0.0,0.0,0.0,0.0,0.0,0.0,0.0,0.0,3.0893,0.0,0.0,3.2129,3.2371,3.2737,3.3247,3.3505,3.3442,3.3046,3.3046,3.2996,3.2852,3.2852,3.3044,0.0,3.3208,0.0,0.0,0.0,3.5774,0.0,3.7867,3.7769,0.0,3.8538,3.9111,3.9139,3.7799,3.5814,3.3834,0.0,3.3917,3.3614,0.0,2.9611,2.7362,0.0,0.0,0.0,0.0,0.0,0.0,0.0,-0.1236,0.0,0.0,0.0,-0.9875,-0.9962,0.0,-1.1872,-1.2747,0.0,0.0,0.0,0.0,0.0,0.0,0.0,0.0,0.0,0.0,0.0,0.0,-2.5779,-2.7328,-2.8058,-2.9558,-3.045,-3.0495,-3.1146,-3.1524,-3.1582,-3.1409,-3.1029,-3.0389,-3.0925,-3.0851,-3.0147,-3.0911,-2.9864,-2.7196,-2.6732,-2.4989,-2.222,-2.0197,-1.9186,-1.8621,-1.3671,-1.1412,-1.0711,-0.5832,-0.231,0.0178,0.1959,0.5411,0.9209,2.3492,2.4065,0.0,0.0,0.0,0.0,0.0,0.0,0.0,0.0,0.0,0.0,0.0,0.0,0.0,0.0,0.0,3.205,0.0,0.0,0.0,0.0,0.0,0.0,3.3491,3.3807,3.3788,3.3444,3.3455,3.3339,3.3086,3.3553,3.3802,0.0,3.4261,0.0,3.5461,0.0,3.5998,0.0,0.0,0.0,0.0,3.8904,3.9349,3.8681,3.7584,3.612,3.4722,0.0,3.4445,0.0,0.0,0.0,0.0,0.0,0.0,0.0,0.0,0.0,0.0,0.0,0.0,0.0,-0.6045,0.0,-0.8253,0.0,0.0,0.0,0.0,0.0,0.0,0.0,0.0,0.0,0.0,0.0,0.0,0.0,0.0,0.0,0.0,0.0,0.0,0.0,-2.6932,-2.7889,-2.8815,-2.9205,-2.9742,-3.0584,-3.0488,-3.0305,-2.9979,-2.9605,-2.9268,-2.9129,-2.9038,-2.7866,-2.5952,-2.5211,-2.338,-2.076,-1.9335,-1.8301,-1.7326,-1.2856,-1.0914,-1.0297,-0.4335,-0.1514,-0.0624,0.0892,0.4433,0.8404,2.3692,0.0,0.0,0.0,0.0,0.0,0.0,0.0,0.0,0.0,0.0,0.0,3.116,3.1517,0.0,0.0,3.232,3.2654,0.0,0.0,3.2798,0.0,0.0,0.0,0.0,3.3788,3.3979,3.3962,3.4018,3.3949,3.3808,3.4402,3.4652,3.4704,0.0,3.5553,3.5876,0.0,0.0,3.6207,3.6256,3.6353,3.6707,3.8496,3.8753,3.8044,3.7145,3.6098,3.5172,3.5365,3.4745,0.0,3.0199,0.0,0.0,0.0,0.0,0.0,1.2242,0.0,0.0,0.0,0.0,0.0,0.0,0.0,0.0,0.0,0.0,0.0,0.0,0.0,-1.023,0.0,0.0,0.0,0.0,0.0,0.0,0.0,0.0,0.0,0.0,0.0,0.0,0.0,0.0,-2.576,-2.705,-2.7394,-2.8072,-2.9386,-2.9267,-2.9182,-2.9219,-2.8561,-2.8228,-2.8247,-2.767,-2.6629,-2.5168,-2.4126,-2.2222,-1.9571,-1.8532,-1.7147,-1.5493,-1.1855,-1.0149,-0.9265,-0.3634,-0.1517,-0.1339,0.1158,0.4517,0.7865,2.4582,2.474,0.0,0.0,0.0,0.0,0.0,0.0,0.0,0.0,0.0,0.0,0.0,0.0,0.0,0.0,0.0,3.1912,3.1873,0.0,3.2354,0.0,0.0,3.3232,0.0,0.0,3.4281,3.4851,3.4869,3.5,3.5313,3.5301,3.5595,3.6095,3.5492,3.5769,3.6741,3.6199,3.6139,3.6405,3.6667,3.7094,3.7478,0.0,3.6697,3.7106,3.6177,0.0,0.0,3.4529,3.448,0.0,0.0,0.0,0.0,0.0,0.0,0.0,0.0,0.0,0.0,0.123,0.0,0.0,0.0,0.0,-0.7139,0.0,0.0,0.0,0.0,-0.7841,-0.7439,0.0,0.0,0.0,0.0,0.0,0.0,0.0,0.0,0.0,0.0,0.0,0.0,0.0,0.0,0.0,-2.5444,-2.6299,-2.7103,-2.7864,-2.7709,-2.7709,-2.7802,-2.8233,-2.8168,-2.755,-2.7419,-2.6629,-2.5168,-2.4126,-2.1976,-1.8903,-1.7777,-1.586,-1.318,-1.0656,-0.8939,-0.753,-0.3916,-0.2324,-0.143,0.4174,0.6913,0.8127,0.0,0.0,0.0,0.0,0.0,0.0,0.0,2.9739,0.0,0.0,0.0,0.0,0.0,0.0,3.1564,0.0,0.0,3.2038,3.1875,3.265,0.0,0.0,0.0,3.4181,0.0,0.0,0.0,0.0,0.0,3.5489,3.5584,3.579,3.59,3.5942,0.0,3.6042,0.0,0.0,0.0,0.0,0.0,3.6576,3.7377,0.0,0.0,3.6177,3.5256,3.4767,0.0,3.4691,3.3112,3.0451,2.7031,2.3759,2.0454,1.6805,1.4781,0.0,0.0,0.0,0.6997,-0.0088,0.0,0.0,0.0,0.0,0.0,0.0,0.0,0.0,0.0,0.0,0.0,0.0,0.0,0.0,0.0,0.0,0.0,0.0,0.0,0.0,0.0,0.0,0.0,0.0,-2.0671,0.0,0.0,-2.4051,-2.4803,-2.6021,-2.5918,-2.5886,-2.6027,-2.6071,-2.5807,-2.524,-2.5216,-2.472,-2.3672,-2.148,-1.9625,-1.7929,-1.6308,-1.44,-1.2298,-1.0418,-0.8491,-0.6552,-0.3472,-0.1787,-0.0715,0.3288,0.5326,0.6731,2.5159,0.0,0.0,0.0,0.0,0.0,0.0,0.0,0.0,0.0,3.1295,0.0,3.1565,0.0,3.1507,0.0,3.1637,3.1869,3.2107,3.2889,0.0,3.2981,3.434,0.0,0.0,0.0,0.0,0.0,0.0,3.6011,3.6197,3.6308,3.6295,3.6155,0.0,3.6216,3.6131,0.0,3.5817,0.0,0.0,3.5951,0.0,0.0,3.5921,3.618,0.0,3.4546,3.4317,3.1934,2.9579,2.6521,2.0728,1.7087,1.4365,1.1249,1.0489,0.9904,0.6452,0.673,0.0,-0.1322,-0.2202,0.0,-0.6225,0.0,0.0,0.0,0.0,0.0,0.0,0.0,0.0,0.0,0.0,0.0,0.0,-0.7228,0.0,0.0,0.0,0.0,0.0,0.0,0.0,-1.8052,-1.855,-1.9483,0.0,0.0,-2.2221,-2.3788,-2.3486,-2.3717,-2.4459,-2.4149,-2.3883,-2.3649,-2.3368,-2.3095,-2.2681,-1.9984,-1.816,-1.7017,-1.5148,-1.2983,-1.0697,-0.9566,-0.7621,-0.5149,-0.2854,-0.1341,0.0,0.3639,0.6283,0.8392,0.0,0.0,0.0,0.0,2.8336,0.0,0.0,0.0,3.0935,0.0,3.0912,3.1015,3.1372,3.0992,3.0905,3.132,3.1196,0.0,3.2468,3.2947,0.0,0.0,3.4745,3.4978,3.4561,0.0,0.0,0.0,0.0,0.0,3.7091,3.6803,3.6741,3.6736,3.6377,0.0,3.635,3.6028,3.5633,3.5241,3.5021,3.4941,3.4988,3.4844,3.5591,3.6511,3.4864,3.4203,3.3078,2.6386,2.3917,2.191,1.1825,0.8604,0.7762,0.4507,0.5208,0.6362,0.2879,0.2009,0.1138,-0.2472,0.0,0.0,0.0,0.0,-0.9924,0.0,0.0,0.0,0.0,0.0,0.0,0.0,0.0,0.0,0.0,0.0,0.0,0.0,0.0,0.0,0.0,0.0,-1.4963,-1.6495,-1.7261,-1.7917,0.0,0.0,-1.9455,-2.1237,-2.0671,-2.1187,-2.2944,-2.2403,-2.2254,-2.2648,-2.2017,-2.1811,-2.2113,-1.9584,-1.7654,-1.6106,-1.4323,-1.1627,-0.8456,-0.8269,-0.6322,-0.34,-0.2237,-0.0895,0.0805,0.5315,0.9352,1.2528,2.4846,2.5966,2.6836,0.0,2.8388,2.9436,0.0,0.0,0.0,0.0,3.0733,3.0933,3.1508,3.1465,3.1639,3.2283,3.2521,0.0,0.0,0.0,0.0,3.4019,3.5392,3.5802,3.5092,3.6266,0.0,3.7037,0.0,0.0,3.715,3.6736,3.6509,3.6426,0.0,0.0,3.6028,3.449,3.3042,3.1641,3.0258,3.0007,0.0,0.0,2.8008,2.8975,3.0507,2.7696,2.2922,2.1133,1.703,1.2237,0.9525,0.6911,0.4662,0.3793,0.3476,0.2877,0.0,0.0088,-0.0088,-0.4879,-0.5151,-0.4705,0.0,0.0,0.0,0.0,0.0,0.0,0.0,0.0,0.0,0.0,0.0,0.0,0.0,0.0,0.0,0.0,0.0,0.0,0.0,0.0,-1.3789,-1.5771,-1.6265,-1.6993,0.0,0.0,0.0,-1.9298,-1.9131,-1.9289,-1.974,-2.0188,-2.0188,-1.975,-2.0777,-2.0382,-1.8788,-1.7485,-1.6024,-1.4469,-1.2668,-1.0631,-0.8452,-0.7731,-0.5424,-0.2412,-0.1341,0.1159,0.4273,0.4809,0.7362,1.0616,2.4013,0.0,0.0,2.7084,0.0,0.0,2.9531,0.0,0.0,3.0407,3.0656,0.0,3.1679,3.1729,3.1966,3.2646,3.2768,0.0,3.3483,0.0,0.0,3.4276,3.5317,3.5615,3.5016,3.5864,0.0,3.6701,0.0,0.0,3.6992,3.665,3.6444,0.0,0.0,3.6062,0.0,3.3942,3.251,3.143,2.889,0.0,0.0,2.5959,2.432,2.3301,2.4459,2.2425,1.8492,1.3853,0.9628,0.5839,0.2765,0.0422,-0.1134,-0.1134,-0.07,-0.079,-0.3434,-0.2557,-0.1943,-0.6051,-0.5963,-0.5331,-0.6776,-0.8586,-0.9602,0.0,0.0,0.0,0.0,0.0,0.0,0.0,0.0,0.0,0.0,0.0,0.0,0.0,0.0,0.0,0.0,-1.1666,-1.3039,-1.4545,-1.4789,0.0,0.0,0.0,0.0,-1.7883,-1.7658,-1.7747,-1.8221,-1.8355,-1.8346,-1.806,-1.8991,-1.8735,-1.7293,-1.6129,-1.4885,-1.3484,-1.1391,-0.9589,-0.7925,-0.6577,-0.4448,-0.1788,0.0089,0.2588,0.508,0.5001,0.7285,1.0448,0.0,0.0,0.0,0.0,0.0,0.0,0.0,2.9626,0.0,3.0196,0.0,3.1225,3.187,3.1982,3.2266,3.278,0.0,3.2952,3.3885,3.3733,3.3871,3.456,3.4861,3.4908,3.4625,3.4894,0.0,0.0,0.0,0.0,3.6702,3.6585,0.0,0.0,0.0,0.0,0.0,3.353,3.2525,3.1828,2.8368,2.6934,2.6614,2.4678,2.18,1.857,1.7268,1.6984,1.5692,0.6391,0.2707,0.0968,-0.5132,-0.7139,-0.7139,-0.7139,-0.5513,-0.4255,-0.6845,-0.5937,-0.4858,-0.7442,-0.8074,-0.8074,-0.8074,-1.0857,-1.2866,-1.0792,-1.4178,-1.6561,0.0,0.0,0.0,0.0,0.0,0.0,0.0,0.0,0.0,0.0,0.0,0.0,0.0,0.0,-1.254,-1.3222,-1.3307,0.0,0.0,0.0,0.0,-1.6764,-1.6312,-1.6492,-1.7529,0.0,-1.6804,-1.7277,-1.7188,-1.6935,-1.6511,-1.517,-1.3827,-1.2474,-1.0433,-0.8707,-0.7217,-0.525,-0.3298,-0.1163,0.1878,0.3578,0.4467,0.545,0.8086,1.1058,0.0,0.0,0.0,0.0,0.0,2.7651,2.8051,2.9471,3.0592,3.0939,3.1,3.125,3.1985,3.2513,3.3016,3.3464,3.3876,0.0,0.0,0.0,0.0,3.448,3.4642,3.4704,3.4769,3.4955,3.5352,0.0,0.0,0.0,3.6788,0.0,0.0,0.0,0.0,0.0,3.1789,3.1319,0.0,2.6608,2.3095,2.1236,2.0236,1.6962,1.481,1.2943,0.9658,0.7571,0.5874,0.324,-0.1033,-0.5502,-0.6747,-0.7139,-0.7139,-0.7139,-0.6776,-0.6929,-0.9497,-0.9809,-1.0037,-1.2565,-1.324,-1.324,-1.324,-1.3342,-1.3361,-1.295,-1.3239,-1.3626,-1.3743,0.0,0.0,0.0,0.0,0.0,0.0,0.0,0.0,0.0,0.0,0.0,0.0,0.0,0.0,0.0,0.0,0.0,0.0,0.0,0.0,0.0,-1.559,0.0,0.0,0.0,-1.5989,-1.678,-1.6281,-1.5289,-1.4055,-1.3937,-1.2559,-1.0178,-0.9749,-0.8436,-0.6413,-0.4539,-0.2051,0.0806,0.3129,0.4111,0.4467,0.6248,0.8269,1.0183,0.0,0.0,0.0,0.0,0.0,0.0,0.0,2.9318,0.0,3.031,3.083,3.1397,3.2044,3.2289,3.273,3.3459,3.3646,3.3764,3.3899,3.3745,3.3745,3.3848,3.3933,0.0,3.4018,3.4136,3.4592,3.5431,0.0,0.0,3.6725,0.0,0.0,3.5681,0.0,3.1756,0.0,0.0,0.0,2.2871,1.9158,1.7439,1.6782,1.4135,1.2772,1.1918,0.9597,0.6384,0.2786,0.0175,-0.3532,-0.7139,-0.7139,-0.7139,-0.7139,-0.7139,-0.7139,-0.765,-1.0086,-1.0841,-1.142,-1.3897,-1.4475,-1.4475,-1.4475,-1.4989,-1.5353,-1.5054,-1.5262,-1.5479,-1.5123,-1.4935,0.0,0.0,0.0,0.0,0.0,0.0,0.0,0.0,0.0,0.0,0.0,0.0,0.0,0.0,0.0,0.0,0.0,0.0,0.0,0.0,0.0,0.0,0.0,0.0,0.0,-1.5982,-1.5387,-1.4468,-1.3392,-1.3118,-1.1643,-0.9235,-0.8873,-0.7647,-0.5716,-0.339,-0.0714,0.2151,0.3666,0.4556,0.5181,0.6605,0.8356,1.0096,0.0,2.3352,0.0,0.0,2.7144,0.0,2.8038,2.8593,2.9045,2.9252,3.0338,3.1116,3.126,3.1504,3.2013,3.2817,3.2602,3.2741,3.3539,3.3102,3.2888,3.3118,3.3081,3.3011,3.3011,3.3011,3.3527,0.0,0.0,0.0,0.0,0.0,0.0,0.0,0.0,0.0,0.0,0.0,2.1227,2.0122,1.6636,1.5107,1.4703,1.288,1.1912,1.1494,1.0539,0.686,0.1842,-0.1323,-0.4526,-0.7054,-0.7051,-0.7139,-0.7139,-0.7139,-0.7482,-0.8412,-1.0921,-1.2001,-1.2989,-1.5464,-1.604,-1.604,-1.604,-1.6903,-1.7532,-1.7243,-1.7883,-1.8095,-1.7049,-1.7123,0.0,0.0,0.0,0.0,0.0,0.0,0.0,0.0,0.0,0.0,0.0,0.0,0.0,0.0,0.0,0.0,0.0,0.0,0.0,0.0,0.0,-1.5506,-1.5665,0.0,-1.5249,-1.5416,-1.4482,-1.3724,-1.3137,-1.2363,-1.0794,-0.8623,-0.791,-0.6498,-0.4383,-0.2057,0.0447,0.2956,0.3933,0.4914,0.5808,0.6786,0.836,0.9923,0.0,0.0,0.0,0.0,0.0,0.0,2.5636,2.6561,2.7591,2.8393,2.9586,2.9875,2.8611,2.999,3.1056,3.1287,3.0822,3.1357,3.3224,3.1931,3.1577,3.2602,3.2272,3.2048,3.2048,3.2048,3.2376,0.0,0.0,0.0,0.0,0.0,0.0,0.0,0.0,0.0,0.0,2.1659,2.029,1.8569,1.6194,1.4689,1.3701,1.1434,0.984,0.8803,0.8101,0.4696,0.0531,0.0177,-0.3016,-0.6881,-0.7054,-0.7139,-0.7139,-0.7139,-0.8665,-1.1006,-1.3489,-1.5789,-1.8021,-2.0526,-2.1125,-2.1125,-2.1125,-2.01,-1.9325,-2.007,-1.9362,-1.8816,-1.946,-1.8149,-1.7463,0.0,0.0,0.0,0.0,0.0,0.0,0.0,0.0,0.0,0.0,-1.4357,0.0,0.0,0.0,0.0,0.0,0.0,0.0,-1.509,0.0,-1.5748,-1.6535,-1.522,-1.4887,-1.5621,-1.362,-1.2534,-1.2448,-1.1327,-0.9749,-0.7903,-0.7383,-0.5078,-0.17,-0.0627,0.1075,0.2956,0.3933,0.4914,0.5808,0.6786,0.7925,0.8978,0.0,0.0,0.0,0.0,0.0,0.0,0.0,2.5015,2.5587,2.5493,2.7314,2.863,2.8529,2.9073,2.9558,2.9925,2.9775,3.0259,3.1747,3.1275,3.1289,3.2145,3.1992,3.1879,3.1879,3.1492,3.1588,0.0,0.0,0.0,0.0,0.0,0.0,0.0,0.0,2.1248,1.9042,1.7058,1.5279,1.3708,1.2403,1.1321,1.0206,0.7937,0.6809,0.6198,0.4773,0.2031,-0.0973,-0.115,-0.3639,-0.6795,-0.6697,-0.6789,-0.6881,-0.6881,-0.842,-1.0605,-1.3182,-1.565,-1.8135,-2.0653,-2.1252,-2.1339,-2.1578,-2.0789,-2.0157,-2.0333,-1.9539,-1.8736,-1.8727,-1.8559,-1.863,0.0,0.0,0.0,0.0,0.0,0.0,0.0,0.0,0.0,0.0,0.0,0.0,0.0,0.0,0.0,0.0,0.0,0.0,-1.4824,0.0,-1.5242,-1.5733,-1.4468,-1.4126,-1.4713,-1.2601,-1.1671,-1.1929,-1.0814,-0.9231,-0.7295,-0.5351,-0.3395,-0.1343,-0.0358,0.1522,0.3755,0.4111,0.5179,0.6605,0.6962,0.7925,0.8973,1.9923,0.0,2.0921,0.0,2.2264,2.3047,2.2922,2.3616,2.4024,2.3537,2.492,2.6362,2.7406,2.7683,2.8128,2.8821,2.8579,2.901,3.0482,3.0182,3.0018,3.0366,3.0705,0.0,3.0172,2.975,2.9693,3.0073,2.9116,0.0,0.0,0.0,0.0,0.0,1.8917,1.7154,1.5678,1.329,1.158,1.0458,0.9584,0.8715,0.7837,0.5855,0.4958,0.4421,0.2562,0.0177,-0.2127,-0.2305,-0.4269,-0.6526,-0.6432,-0.652,-0.6789,-0.7316,-0.8852,-1.0872,-1.3291,-1.5858,-1.8188,-1.9788,-2.0304,-2.0459,-2.0615,-2.0304,-1.9923,-2.002,-1.9618,-1.9134,-1.8798,-1.9292,-1.9696,-1.9678,0.0,0.0,0.0,0.0,0.0,0.0,-1.556,-1.547,-1.5061,0.0,0.0,0.0,0.0,0.0,0.0,0.0,0.0,0.0,0.0,0.0,0.0,-1.3626,-1.3112,-1.3203,-1.1494,-1.0901,-1.1154,-0.9763,-0.8185,-0.6422,-0.3664,-0.2059,-0.1343,-0.009,0.1969,0.4289,0.4289,0.5445,0.7139,0.7231,0.7933,0.8715,1.946,2.0304,2.1011,2.0313,2.141,2.2232,2.1863,2.2435,2.301,2.3287,2.2553,2.2669,2.4253,2.5578,2.6857,2.8128,2.7204,2.7511,2.9789,2.8387,2.734,0.0,0.0,2.7787,2.6186,2.6143,2.6156,2.6156,0.0,0.0,2.3018,0.0,2.0312,1.7246,1.7254,1.5531,1.2699,1.1235,1.0539,1.0183,0.8803,0.8017,0.7654,0.5965,0.48,0.3724,0.2048,-0.0446,-0.2853,-0.2853,-0.4283,-0.6171,-0.6343,-0.6428,-0.6691,-0.8348,-1.0545,-1.2794,-1.4414,-1.7001,-1.9177,-1.8762,-1.9009,-1.9177,-1.8762,-1.8452,-1.855,-1.9213,-2.001,-2.0566,-2.0566,-2.0566,-2.0547,-2.0508,0.0,0.0,0.0,0.0,0.0,0.0,-1.7261,-1.7342,-1.6468,0.0,0.0,0.0,0.0,0.0,0.0,0.0,0.0,-1.565,-1.5068,0.0,-1.3451,-1.2693,-1.1843,-1.1068,-1.0381,-1.0038,-0.9951,-0.8006,-0.6511,-0.528,-0.2593,-0.1431,-0.1253,0.0627,0.2506,0.4289,0.4289,0.5445,0.7143,0.7415,0.768,0.7944,1.9213,1.939,1.9311,1.8825,1.9344,1.9719,1.9265,1.9875,2.0488,2.0575,2.0333,2.0546,2.1576,2.3475,2.492,0.0,2.6089,2.7027,0.0,2.678,2.6027,2.632,2.5605,2.5018,2.4495,2.3553,2.305,2.305,0.0,0.0,0.0,1.7455,1.584,1.4081,1.2116,1.0773,0.9924,1.0687,0.9456,0.6806,0.6286,0.5863,0.5351,0.2046,0.0534,0.0,-0.1785,-0.3486,-0.4828,-0.4828,-0.528,-0.5819,-0.5908,-0.6776,-0.7899,-0.8507,-1.0807,-1.3445,-1.4142,-1.6234,-1.8167,-1.7997,-1.8078,-1.8238,-1.8372,-1.8709,-1.9204,-2.001,-2.0401,-2.0566,-2.0566,-2.0566,-2.0401,-1.9756,-1.8718,0.0,0.0,0.0,0.0,0.0,-1.5311,-1.5151,0.0,-1.4831,0.0,0.0,0.0,0.0,0.0,0.0,0.0,0.0,-1.4489,0.0,-1.3105,-1.2089,-1.1322,-1.0722,-0.9602,-0.8819,-0.8281,-0.7132,-0.6163,-0.5282,-0.2593,-0.1431,-0.1163,0.1343,0.3223,0.4559,0.5267,0.6425,0.7676,0.7768,0.794,0.8113,1.8407,1.8264,1.8031,1.804,1.8273,1.8416,1.8399,1.8868,1.9265,1.9423,1.9097,1.9088,1.9446,2.0907,0.0,2.3014,2.4613,2.5496,2.5272,2.4873,2.4319,2.3523,2.2877,2.2261,2.1681,2.0556,0.0,1.9956,1.8674,1.6628,1.3913,1.2753,1.1817,1.0989,0.8151,0.7447,0.8508,0.8174,0.6695,0.4513,0.3625,0.3374,0.3124,-0.0178,-0.1606,-0.2141,-0.3757,-0.4926,-0.5733,-0.5733,-0.5733,-0.5733,-0.5733,-0.7214,-0.8939,-0.9196,-1.1252,-1.3568,-1.4364,-1.5794,-1.7131,-1.7286,-1.7448,-1.7764,-1.8479,-1.8966,-1.9539,-2.0411,-2.0566,-2.0566,-2.0566,-2.0566,-2.0245,-1.9045,-1.8327,-1.7513,-1.6296,0.0,0.0,0.0,0.0,0.0,0.0,-1.4405,-1.4166,0.0,0.0,0.0,0.0,0.0,0.0,-1.481,-1.4328,0.0,-1.2339,-1.166,-1.0809,-0.9864,-0.8732,-0.776,-0.7048,-0.634,-0.5455,-0.4387,-0.2325,-0.1164,-0.0716,0.1969,0.3667,0.4736,0.58,0.6871,0.7944,0.8028,0.8116,0.8201,1.7188,1.7196,0.0,0.0,1.7959,0.0,1.8727,1.8877,1.8957,1.9362,1.8709,1.8069,1.7836,1.7929,1.8822,2.0907,0.0,0.0,0.0,2.2783,2.2254,1.9261,1.9869,1.9531,1.7957,1.7299,1.679,1.6524,1.4323,1.1503,0.8155,0.7978,0.7978,0.8064,0.5167,0.5428,0.7624,0.4039,0.2736,0.2922,0.0976,0.0623,0.0982,-0.0893,-0.2141,-0.3123,-0.4026,-0.4926,-0.5733,-0.5733,-0.5733,-0.5733,-0.5733,-0.7478,-0.9643,-1.0326,-1.1701,-1.3334,-1.4824,-1.559,-1.6079,-1.637,-1.6862,-1.7513,-1.8895,-1.9222,-1.946,-2.0401,-2.0566,-2.0566,-2.0566,-2.0566,-2.0001,-1.8318,-1.7997,-1.7269,-1.5333,0.0,0.0,0.0,0.0,0.0,0.0,-1.4887,-1.4321,0.0,0.0,0.0,0.0,0.0,-1.4412,-1.5311,-1.4496,-1.3137,-1.1322,-1.1241,-1.0294,-0.8568,-0.7848,-0.7136,-0.634,-0.5725,-0.4476,-0.2867,-0.179,-0.0806,0.0269,0.2415,0.3931,0.4825,0.5974,0.7044,0.7944,0.8113,0.8201,0.8288,0.0,0.0,1.7123,1.7473,1.7554,1.7473,1.7294,1.7212,1.7294,1.7367,1.7212,1.6878,1.6304,1.6281,1.6175,1.5793,1.8774,2.0444,2.0081,1.9763,1.91,1.8179,1.734,1.648,1.5584,1.4511,1.2668,1.0023,0.9465,0.7805,0.5165,0.2986,0.316,0.5078,0.2285,0.1232,0.1756,0.2287,0.1148,-0.1155,-0.16,-0.1424,-0.0982,-0.286,-0.3757,-0.4026,-0.4208,-0.4926,-0.5733,-0.5733,-0.5733,-0.5733,-0.5733,-0.7041,-0.8682,-0.9552,-1.1461,-1.3379,-1.373,-1.4321,-1.4734,-1.4307,-1.4636,-1.5711,-1.7836,-1.8327,-1.8727,-2.0245,-2.0566,-2.0566,-2.0566,-2.0566,-2.0001,-1.8318,-1.7908,-1.718,-1.5333,-1.4741,0.0,0.0,-1.4405,-1.425,-1.4496,-1.4328,-1.4166,0.0,0.0,0.0,0.0,-1.3392,-1.3476,-1.4419,-1.3476,-1.2443,-1.1327,-1.0549,-0.9689,-0.8568,-0.7848,-0.7136,-0.634,-0.5725,-0.4476,-0.2867,-0.17,-0.0179,0.1519,0.3659,0.5265,0.6334,0.6599,0.7404,0.8388,0.7584,0.7852,0.8476,1.5462,1.5801,1.6057,1.6558,1.6894,1.6976,1.673,1.673,1.6566,1.6319,1.6229,1.5982,1.5318,1.4985,1.4566,1.3886,1.6524,1.7732,1.6798,1.6637,1.6176,1.5323,1.3961,1.2977,1.2638,1.0979,0.878,0.6141,0.7027,0.5616,0.2106,0.0617,0.0705,0.1755,-0.0973,-0.1594,-0.0617,-0.0972,-0.1864,-0.3213,-0.3746,-0.3481,-0.286,-0.4385,-0.4926,-0.4926,-0.4926,-0.5285,-0.5733,-0.5733,-0.5733,-0.5733,-0.5733,-0.6605,-0.791,-0.8786,-1.0869,-1.2863,-1.3307,-1.3646,-1.3977,-1.3957,-1.4608,-1.5681,-1.7641,-1.8132,-1.8621,-2.0235,-2.0566,-2.0566,-2.0566,-2.0167,-1.9441,-1.8069,-1.7334,-1.6445,-1.4985,-1.4566,0.0,-1.4237,-1.4166,-1.4088,-1.4088,-1.4088,-1.4088,-1.4088,-1.3737,0.0,-1.3483,-1.2534,-1.2534,-1.3398,-1.2528,-1.1585,-1.0636,-0.9777,-0.9087,-0.8568,-0.7492,-0.6782,-0.6343,-0.4919,-0.3491,-0.2059,-0.0895,0.0715,0.2769,0.4463,0.58,0.6779,0.6868,0.7584,0.848,0.7496,0.7764,0.8568,1.3711,1.3964,1.4378,1.522,1.5801,1.6221,1.6221,1.6312,1.6147,1.565,1.5567,1.5318,1.465,1.4068,1.3561,1.3033,1.4608,1.4835,1.3093,1.3715,1.3515,1.2122,1.0651,0.9871,0.9702,0.7396,0.5277,0.3421,0.5095,0.3515,-0.106,-0.0796,-0.0972,-0.1502,-0.3746,-0.3563,-0.1679,-0.4277,-0.4924,-0.4295,-0.5282,-0.5196,-0.4567,-0.5374,-0.5733,-0.5733,-0.5733,-0.5733,-0.5733,-0.5733,-0.5733,-0.5733,-0.5644,-0.6171,-0.7051,-0.7925,-0.9566,-1.1375,-1.2613,-1.296,-1.3209,-1.4273,-1.4996,-1.589,-1.7438,-1.7768,-1.8178,-1.9483,-1.9806,-1.9806,-1.9719,-1.9088,-1.8292,-1.7568,-1.6601,-1.5628,-1.4727,0.0,-1.4321,-1.4088,-1.4088,-1.4088,-1.4088,-1.4088,-1.4088,-1.4088,-1.3222,-1.2705,-1.2705,-1.1671,-1.1413,-1.2272,-1.1494,-1.0636,-0.9689,-0.8999,-0.8568,-0.8388,-0.7051,-0.634,-0.6074,-0.3848,-0.215,-0.0895,0.009,0.179,0.3935,0.4825,0.5891,0.6868,0.6694,0.7408,0.8212,0.7231,0.7584,0.8568,1.2328,1.1969,1.1958,1.3412,1.3749,1.3833,1.3833,1.4538,1.4985,1.4901,1.4817,1.4566,1.3899,1.3737,1.2681,1.0149,1.093,1.1552,1.158,1.1525,1.1337,1.0864,0.9302,0.8151,0.7567,0.4844,0.2295,0.0089,0.0354,-0.1064,-0.402,-0.402,-0.4109,-0.4372,-0.4739,-0.4828,-0.4732,-0.5188,-0.5374,-0.5463,-0.5644,-0.5644,-0.5463,-0.5644,-0.5733,-0.5733,-0.5733,-0.5733,-0.5733,-0.5733,-0.5733,-0.5644,-0.5463,-0.5549,-0.5811,-0.6508,-0.7027,-0.7811,-1.0361,-1.1068,-1.1408,-1.3209,-1.3288,-1.3353,-1.4913,-1.5238,-1.5396,-1.6024,-1.6098,-1.6009,-1.5636,-1.6001,-1.6366,-1.63,-1.6003,-1.5711,-1.5477,0.0,-1.4166,-1.4088,-1.4088,-1.4088,-1.4088,-1.4088,-1.4088,-1.4088,-1.3222,-1.2705,-1.2705,-1.1068,-1.0202,-1.0289,-1.0202,-0.9689,-0.8828,-0.8656,-0.8296,-0.7669,-0.6782,-0.5894,-0.4825,-0.331,-0.1792,-0.0448,0.0537,0.2592,0.5092,0.4652,0.5453,0.6871,0.5364,0.5808,0.7231,0.6251,0.7051,0.8568,1.0864,1.0945,1.1107,1.1866,1.2292,1.2723,1.3237,1.3678,1.4035,1.4146,1.3256,1.2383,1.1707,1.0742,0.9602,0.8214,0.7971,0.8066,0.8237,0.8773,0.8586,0.7428,0.6174,0.4316,0.194,0.1679,0.0,-0.3028,-0.2832,-0.4068,-0.6407,-0.7186,-0.7709,-0.7979,-0.6929,-0.6672,-0.677,-0.5899,-0.5644,-0.5733,-0.626,-0.6174,-0.5733,-0.626,-0.6174,-0.5733,-0.5733,-0.5733,-0.5733,-0.5733,-0.5644,-0.5552,-0.546,-0.5549,-0.5902,-0.6242,-0.7034,-0.8089,-0.9666,-1.0202,-1.0554,-1.1585,-1.1671,-1.174,-1.314,-1.3562,-1.4316,-1.6024,-1.5591,-1.533,-1.6506,-1.5434,-1.4629,-1.5666,-1.4851,0.0,0.0,-1.4419,-1.4088,-1.4088,-1.4088,-1.3913,-1.3392,-1.3828,-1.3652,-1.2705,-1.2186,-1.1757,-1.1235,-0.9946,-0.917,-0.917,-0.917,-0.8999,-0.8568,-0.8208,-0.7669,-0.7132,-0.5983,-0.5006,-0.4115,-0.2238,-0.0896,-0.009,0.1254,0.2955,0.4741,0.4476,0.5097,0.6251,0.4832,0.5453,0.6962,0.6074,0.6962,0.8568,0.886,0.9296,0.9726,0.9707,1.0307,1.0909,1.1503,1.1753,1.1935,1.2049,1.0904,0.9765,0.9165,0.7854,0.6806,0.637,0.5676,0.5063,0.4625,0.5422,0.5419,0.4172,0.2753,0.0355,-0.3032,-0.1601,-0.24,-0.5534,-0.5393,-0.6346,-0.84,-0.926,-0.9962,-1.0326,-0.8678,-0.807,-0.8078,-0.6871,-0.6349,-0.6438,-0.7139,-0.6877,-0.6086,-0.6789,-0.6523,-0.5733,-0.5733,-0.5733,-0.5733,-0.5644,-0.5552,-0.5371,-0.5282,-0.546,-0.5813,-0.5888,-0.7034,-0.8452,-0.8969,-0.9506,-0.9951,-1.0381,-1.0463,-1.0712,-1.153,-1.2043,-1.2886,-1.5029,-1.4338,-1.3998,-1.595,-1.4032,-1.2705,-1.4413,0.0,0.0,0.0,-1.3906,-1.3828,-1.4088,-1.3737,-1.3222,-1.279,-1.3137,-1.2875,-1.1413,-1.1068,-1.0631,-0.9854,-0.8995,-0.8476,-0.8476,-0.8568,-0.8476,-0.8384,-0.7669,-0.6956,-0.6245,-0.5003,-0.4026,-0.3223,-0.1164,0.0,0.0537,0.1973,0.3229,0.43,0.4032,0.4565,0.5275,0.4297,0.501,0.6428,0.5897,0.6786,0.83,0.5871,0.606,0.6062,0.6045,0.6835,0.7186,0.6392,0.6991,0.7501,0.7232,0.7327,0.7152,0.6705,0.6708,0.6013,0.4261,0.3807,0.3012,0.1516,0.1332,0.1596,0.2577,-0.0178,-0.2759,-0.4739,-0.465,-0.5437,-0.7186,-0.7183,-0.8134,-1.0043,-0.9456,-0.9383,-0.9643,-0.8794,-0.8452,-0.8452,-0.8368,-0.8281,-0.8281,-0.8368,-0.7841,-0.6962,-0.7051,-0.6523,-0.5733,-0.5733,-0.5733,-0.5644,-0.5463,-0.5371,-0.5282,-0.4926,-0.475,-0.4748,-0.4565,-0.5453,-0.6782,-0.7485,-0.846,-0.9432,-0.9951,-1.0038,-1.0033,-1.012,-1.0207,-1.012,-0.9937,-0.9767,-0.9593,-0.9423,-0.9767,-1.0448,-1.1353,0.0,0.0,-1.3853,-1.3281,-1.3137,-1.4004,-1.2534,-1.1843,-1.2619,-1.2015,-1.1413,-1.1327,-1.0463,-0.9854,-0.9671,-0.8719,-0.8116,-0.7944,-0.8388,-0.8296,-0.7577,-0.7132,-0.6157,-0.4736,-0.4204,-0.3044,-0.1255,-0.0448,0.0627,0.1705,0.2513,0.3408,0.421,0.332,0.3588,0.43,0.3409,0.3587,0.4565,0.5364,0.634,0.7408,0.4727,0.473,0.4554,0.4548,0.4809,0.4984,0.5242,0.559,0.5931,0.6446,0.5571,0.4784,0.4603,0.3103,0.1866,0.107,0.0445,-0.0267,-0.0803,-0.1692,-0.1689,-0.0622,-0.2938,-0.4556,-0.5371,-0.546,-0.5985,-0.7214,-0.8678,-0.9803,-1.0763,-1.1884,-1.2242,-1.1906,-1.0616,-1.0009,-1.0009,-0.8978,-0.8544,-0.8544,-0.9157,-0.8807,-0.8017,-0.8632,-0.7929,-0.6612,-0.7228,-0.6612,-0.5549,-0.6077,-0.5722,-0.4928,-0.475,-0.4928,-0.5104,-0.5015,-0.5369,-0.5813,-0.6077,-0.7496,-0.8999,-0.9432,-0.9607,-0.9519,-0.9174,-0.9345,-0.9772,-1.0351,-0.9589,-0.934,-1.0778,-1.0019,-0.9598,-1.1047,0.0,-1.1316,-1.2169,-1.2003,-1.1929,-1.2357,-1.1757,-1.1241,-1.0982,-1.1058,-1.0621,-0.9501,-0.9414,-0.924,-0.8548,-0.7658,-0.7041,-0.6953,-0.6599,-0.6508,-0.6773,-0.5622,-0.4559,-0.3755,-0.3135,-0.2061,-0.0628,0.009,0.0896,0.1884,0.2603,0.3142,0.3409,0.3053,0.3142,0.3409,0.3053,0.3499,0.4387,0.5364,0.6254,0.7316,0.2768,0.3037,0.3217,0.2949,0.2768,0.2763,0.3201,0.2931,0.3014,0.3532,0.248,0.1688,0.1511,-0.0178,-0.1252,-0.1252,-0.2235,-0.2769,-0.2679,-0.4105,-0.4636,-0.4003,-0.4912,-0.5816,-0.6523,-0.626,-0.6874,-0.8356,-0.9908,-1.1123,-1.174,-1.3118,-1.3555,-1.3052,-1.1666,-1.1058,-1.1058,-0.985,-0.9419,-0.9419,-1.012,-0.9772,-0.8982,-0.968,-0.8894,-0.758,-0.7837,-0.7044,-0.5899,-0.6074,-0.5455,-0.4661,-0.4569,-0.4837,-0.5013,-0.5013,-0.5193,-0.5371,-0.5371,-0.6612,-0.8028,-0.8552,-0.8552,-0.8464,-0.8564,-0.8648,-0.9069,-1.0173,-0.9414,-0.9165,-1.1031,-0.985,-0.8999,-1.0294,-1.0115,-1.0028,-1.0722,-1.0804,-1.0885,-1.1235,-1.0809,-1.0289,-0.9854,-1.0019,-0.9579,-0.8201,-0.8544,-0.846,-0.7768,-0.6779,-0.6154,-0.6154,-0.4999,-0.4643,-0.5262,-0.42,-0.34,-0.2864,-0.2062,-0.1076,0.0,0.0718,0.1436,0.2154,0.2694,0.2875,0.2875,0.2875,0.2875,0.2875,0.2875,0.332,0.4032,0.5099,0.6074,0.6959,-0.0537,0.0805,0.1791,0.0807,0.0715,0.0357,-0.0537,-0.1519,-0.2233,-0.2502,-0.2233,-0.2324,-0.2867,-0.2684,-0.2502,-0.2502,-0.3578,-0.4206,-0.3929,-0.5888,-0.7139,-0.7139,-0.6263,-0.6612,-0.8456,-0.758,-0.8356,-1.0956,-1.0956,-1.1826,-1.3398,-1.2711,-1.2363,-1.2363,-1.1602,-1.1262,-1.1262,-1.1262,-1.1262,-1.1262,-1.1262,-1.0738,-0.9946,-0.9946,-0.9331,-0.8368,-0.7217,-0.6779,-0.6602,-0.5191,-0.4661,-0.4661,-0.4389,-0.43,-0.43,-0.43,-0.4835,-0.5371,-0.5371,-0.5899,-0.6605,-0.7312,-0.6959,-0.6786,-0.83,-0.8025,-0.7669,-0.8476,-0.8568,-0.8568,-0.8568,-0.8568,-0.8568,-0.8568,-0.9161,-0.9671,-0.9854,-0.9676,-1.0019,-1.1149,-0.9689,-0.8823,-0.9497,-0.8719,-0.8113,-0.7944,-0.7856,-0.7768,-0.7507,-0.6343,-0.5719,-0.5719,-0.3848,-0.2867,-0.2867,-0.3042,-0.2865,-0.2154,-0.0987,0.0,0.0718,0.1436,0.2243,0.2875,0.2875,0.2875,0.2875,0.2875,0.2875,0.2875,0.2875,0.2875,0.3053,0.4476,0.545,0.6334,-0.1608,-0.134,-0.1251,-0.152,-0.1699,-0.1878,-0.2238,-0.2506,-0.2685,-0.2774,-0.2685,-0.2686,-0.2597,-0.3132,-0.3398,-0.3309,-0.4204,-0.5008,-0.5453,-0.652,-0.7404,-0.8017,-0.7841,-0.7929,-0.8456,-0.8193,-0.8803,-1.0197,-1.0788,-1.1316,-1.1946,-1.2283,-1.2112,-1.1602,-1.1435,-1.1262,-1.1262,-1.1262,-1.1262,-1.1262,-1.1262,-1.1089,-1.0911,-1.0911,-0.9767,-0.8356,-0.8619,-0.7302,-0.5366,-0.563,-0.5097,-0.4389,-0.43,-0.43,-0.43,-0.43,-0.4478,-0.4656,-0.4656,-0.4743,-0.5186,-0.6428,-0.6605,-0.6605,-0.758,-0.7228,-0.7051,-0.83,-0.8208,-0.8025,-0.8476,-0.8472,-0.8292,-0.8292,-0.8376,-0.846,-0.8464,-0.8464,-0.8548,-0.8899,-0.8468,-0.8208,-0.8376,-0.794,-0.768,-0.7595,-0.6877,-0.6343,-0.6254,-0.465,-0.3758,-0.3758,-0.2509,-0.1883,-0.1883,-0.1882,-0.1792,-0.1615,-0.0807,0.0,0.0718,0.1436,0.2243,0.2875,0.2875,0.2875,0.2875,0.2875,0.2875,0.2964,0.323,0.3409,0.3587,0.5539,0.6422,0.6864,-0.2861,-0.2772,-0.2684,-0.2684,-0.3133,-0.3494,-0.3494,-0.3762,-0.403,-0.403,-0.4293,-0.4291,-0.3669,-0.4469,-0.4914,-0.465,-0.5364,-0.5985,-0.6435,-0.7228,-0.7929,-0.8456,-0.8894,-0.9069,-0.9069,-0.8719,-0.8982,-0.9946,-1.0539,-1.0804,-1.0824,-1.1596,-1.1596,-1.0997,-1.1262,-1.1262,-1.1262,-1.1262,-1.1262,-1.1262,-1.1262,-1.1262,-1.1262,-1.1084,-1.0202,-0.9144,-0.8703,-0.7298,-0.563,-0.545,-0.4919,-0.43,-0.43,-0.43,-0.43,-0.43,-0.43,-0.43,-0.43,-0.43,-0.4476,-0.5364,-0.5542,-0.5808,-0.6871,-0.6517,-0.6254,-0.7224,-0.7132,-0.6953,-0.7577,-0.7577,-0.7573,-0.8025,-0.7856,-0.7768,-0.7856,-0.7768,-0.7676,-0.7312,-0.7312,-0.7136,-0.6605,-0.6786,-0.6877,-0.6792,-0.5808,-0.5181,-0.5181,-0.3758,-0.2867,-0.2867,-0.1883,-0.1436,-0.1436,-0.1436,-0.1256,-0.0987,-0.0269,0.0448,0.1166,0.1885,0.2513,0.2875,0.2875,0.2875,0.2875,0.2875,0.3053,0.3232,0.3499,0.3676,0.4121,0.5891,0.6688,0.7129,-0.4297,-0.3762,-0.3135,-0.3135,-0.3851,-0.4478,-0.4565,-0.5193,-0.5733,-0.5908,-0.6612,-0.6697,-0.5725,-0.634,-0.6694,-0.6171,-0.6789,-0.7139,-0.7139,-0.8017,-0.8544,-0.8544,-0.9423,-0.9868,-0.9868,-0.9069,-0.9069,-1.0038,-1.0381,-1.0381,-1.0038,-1.0824,-1.0997,-1.0549,-1.0997,-1.1176,-1.1176,-1.1176,-1.1176,-1.1176,-1.1176,-1.1176,-1.1089,-1.0641,-1.0458,-1.0111,-0.7826,-0.6949,-0.6684,-0.4919,-0.43,-0.43,-0.43,-0.43,-0.43,-0.43,-0.43,-0.43,-0.43,-0.43,-0.43,-0.43,-0.4297,-0.4565,-0.5985,-0.5725,-0.5369,-0.562,-0.5617,-0.5706,-0.6148,-0.6236,-0.6508,-0.7496,-0.7411,-0.7323,-0.7676,-0.7411,-0.6962,-0.6416,-0.6236,-0.5797,-0.4648,-0.5359,-0.5802,-0.5628,-0.4736,-0.42,-0.42,-0.3312,-0.2777,-0.2777,-0.1883,-0.1436,-0.1436,-0.1345,-0.0987,-0.0359,0.0359,0.1076,0.1794,0.2603,0.2875,0.2875,0.2963,0.2963,0.2963,0.3053,0.332,0.3676,0.3676,0.4032,0.4565,0.5802,0.6596,0.721,-0.5374,-0.5196,-0.5104,-0.5104,-0.5285,-0.5638,-0.6343,-0.6083,-0.6263,-0.7665,-0.7404,-0.7051,-0.7048,-0.7224,-0.7048,-0.6432,-0.6959,-0.7401,-0.7401,-0.8116,-0.8564,-0.8564,-0.8828,-0.8915,-0.8915,-0.9428,-0.9772,-1.0038,-1.0125,-1.0125,-1.0038,-1.0212,-1.0212,-1.0125,-1.0212,-1.0299,-1.0299,-1.0299,-1.0299,-1.0299,-1.0299,-1.0299,-1.0212,-0.9506,-0.9069,-0.8544,-0.6861,-0.6071,-0.5633,-0.4654,-0.43,-0.43,-0.43,-0.43,-0.43,-0.43,-0.43,-0.43,-0.43,-0.43,-0.43,-0.43,-0.4032,-0.4123,-0.5369,-0.4746,-0.4297,-0.5442,-0.4912,-0.4469,-0.5176,-0.5087,-0.509,-0.527,-0.5092,-0.527,-0.6074,-0.5536,-0.5181,-0.5805,-0.5179,-0.4643,-0.4378,-0.4554,-0.4645,-0.4645,-0.3757,-0.3224,-0.3224,-0.224,-0.1704,-0.1704,-0.1524,-0.1436,-0.1436,-0.0897,-0.0538,-0.0359,0.0359,0.1076,0.1794,0.2603,0.2875,0.2964,0.332,0.3409,0.3499,0.3855,0.4032,0.421,0.4565,0.5097,0.5891,0.7037,0.7482,0.7566,-0.7051,-0.7051,-0.7051,-0.7051,-0.7051,-0.7228,-0.7665,-0.7316,-0.7404,-0.8368,-0.8456,-0.8193,-0.7577,-0.7925,-0.7837,-0.6959,-0.758,-0.8025,-0.8025,-0.8388,-0.8568,-0.8568,-0.8568,-0.8568,-0.8568,-0.9087,-0.9345,-0.9345,-0.9519,-0.9519,-0.9349,-0.9777,-0.9864,-0.9694,-0.9864,-1.0038,-1.0038,-1.0038,-1.0038,-1.0038,-1.0038,-1.0038,-0.9864,-0.8894,-0.8372,-0.8021,-0.634,-0.5366,-0.4835,-0.4389,-0.43,-0.43,-0.43,-0.43,-0.43,-0.43,-0.43,-0.43,-0.43,-0.43,-0.421,-0.4032,-0.3765,-0.3765,-0.4391,-0.3853,-0.3405,-0.3935,-0.3491,-0.3314,-0.3844,-0.3846,-0.3935,-0.4378,-0.4378,-0.4467,-0.5003,-0.4645,-0.4289,-0.4383,-0.3935,-0.3667,-0.3667,-0.322,-0.3132,-0.3578,-0.2776,-0.2152,-0.2152,-0.1704,-0.1436,-0.1436,-0.1076,-0.0897,-0.0897,-0.0269,0.0269,0.0628,0.1076,0.1615,0.2334,0.2962,0.323,0.323,0.3765,0.3942,0.3942,0.421,0.4476,0.4654,0.4921,0.5628,0.6511,0.7129,0.7305,0.7305,-0.8544,-0.8544,-0.8544,-0.8544,-0.8544,-0.8544,-0.8719,-0.8632,-0.8632,-0.8894,-0.9506,-0.9419,-0.8189,-0.8627,-0.8715,-0.7841,-0.838,-0.8656,-0.8568,-0.8568,-0.8568,-0.8568,-0.8568,-0.8568,-0.8568,-0.8568,-0.8568,-0.8568,-0.9003,-0.8999,-0.8656,-0.9432,-0.9519,-0.9174,-0.9607,-0.9781,-0.9781,-0.9781,-0.9689,-0.9598,-0.9598,-0.951,-0.9248,-0.8109,-0.7757,-0.7669,-0.5899,-0.4835,-0.43,-0.43,-0.43,-0.43,-0.43,-0.43,-0.43,-0.43,-0.4119,-0.403,-0.403,-0.3941,-0.3762,-0.3406,-0.3227,-0.3229,-0.3318,-0.3048,-0.2689,-0.2243,-0.2154,-0.2153,-0.2599,-0.2689,-0.2865,-0.3666,-0.3844,-0.3844,-0.4022,-0.3933,-0.3578,-0.2956,-0.2777,-0.2689,-0.2689,-0.1883,-0.1704,-0.2598,-0.1883,-0.1436,-0.1436,-0.1436,-0.1436,-0.1436,-0.0718,-0.0359,-0.0359,0.0448,0.1166,0.1794,0.1885,0.2334,0.2875,0.3409,0.3587,0.3587,0.421,0.4387,0.4387,0.4478,0.4746,0.5099,0.5099,0.5808,0.6779,0.6779,0.6779,0.6776,-0.8544,-0.8544,-0.8544,-0.8544,-0.8544,-0.8807,-0.9598,-0.8982,-0.9069,-1.0738,-1.0299,-0.9941,-1.0197,-0.9941,-0.9602,-0.9082,-0.917,-0.9003,-0.8656,-0.8568,-0.8568,-0.8568,-0.8568,-0.8568,-0.8568,-0.8568,-0.8568,-0.8568,-0.8656,-0.8652,-0.8568,-0.874,-0.874,-0.8652,-0.874,-0.8828,-0.8828,-0.8828,-0.838,-0.7841,-0.7841,-0.7485,-0.6782,-0.6077,-0.6166,-0.6428,-0.501,-0.4389,-0.43,-0.43,-0.43,-0.43,-0.43,-0.43,-0.43,-0.43,-0.3582,-0.2776,-0.2776,-0.2417,-0.2149,-0.2059,-0.1702,-0.1614,-0.2243,-0.2333,-0.2243,-0.2243,-0.1794,-0.1525,-0.1614,-0.1614,-0.1614,-0.1792,-0.1792,-0.2061,-0.2956,-0.233,-0.2061,-0.2777,-0.2152,-0.1614,-0.1614,-0.1524,-0.1436,-0.1614,-0.1435,-0.1436,-0.1436,-0.1436,-0.1436,-0.1436,-0.0718,-0.0359,-0.0359,0.0987,0.1705,0.1794,0.2424,0.2784,0.2875,0.3409,0.3587,0.3676,0.4565,0.4921,0.4921,0.5371,0.5555,0.5644,0.5644,0.608,0.6779,0.6779,0.6779,0.6691,-1.0033,-1.0033,-1.0033,-1.0033,-1.0033,-1.0207,-1.0651,-1.0299,-1.0386,-1.1176,-1.0911,-1.0646,-1.0636,-1.0207,-0.9777,-0.9349,-0.9262,-0.9087,-0.8656,-0.8568,-0.8568,-0.8568,-0.8568,-0.8568,-0.8568,-0.8568,-0.8568,-0.8568,-0.8568,-0.8568,-0.8568,-0.8568,-0.8568,-0.8568,-0.8568,-0.8568,-0.8568,-0.8568,-0.8388,-0.8116,-0.7665,-0.7312,-0.6871,-0.5813,-0.5547,-0.5725,-0.4654,-0.43,-0.43,-0.43,-0.4121,-0.3853,-0.3583,-0.3674,-0.3764,-0.2774,-0.2506,-0.2329,-0.17,-0.1342,-0.1163,-0.0895,-0.0626,-0.0627,-0.1076,-0.1166,-0.1345,-0.1705,-0.1525,-0.1436,-0.1436,-0.1436,-0.1436,-0.1436,-0.1436,-0.1524,-0.1973,-0.1704,-0.1524,-0.1973,-0.1704,-0.1436,-0.1436,-0.1436,-0.1256,-0.0897,-0.1166,-0.1076,-0.0269,-0.0628,-0.0807,-0.0807,0.0269,0.0628,0.0179,0.1705,0.2424,0.2424,0.3051,0.332,0.332,0.3765,0.4121,0.4387,0.5104,0.5371,0.5371,0.5644,0.5733,0.5733,0.5733,0.5908,0.6257,0.6691,0.6517,0.6169]},{"header":{"parameterUnit":"m.s-1","parameterCategory":1,"la1":30.6,"la2":28.766,"lo1":-90.7593,"lo2":-88.6598,"dy":0.0162,"dx":0.0183,"nx":116,"ny":114,"refTime":"2023-05-23T00:00:00:Z","depth":0,"parameterNumber":3,"parameterNumberName":"V-component_of_WINDS"},"data":[0.0,0.0,0.0,0.0,0.0,0.0,0.0,0.0,0.0,0.0,0.0,0.0,0.0,0.0,0.0,0.0,0.0,0.0,0.0,0.0,0.0,0.0,0.0,0.0,0.0,0.0,0.0,0.0,0.0,0.0,0.0,0.0,0.0,0.0,0.0,0.0,0.0,0.0,0.0,0.0,0.0,0.0,0.0,0.0,0.0,0.0,0.0,0.0,0.0,0.0,0.0,0.0,0.0,0.0,0.0,0.0,0.0,0.0,0.0,0.0,0.0,0.0,0.0,0.0,0.0,0.0,0.0,0.0,0.0,0.0,0.0,0.0,0.0,0.0,0.0,0.0,0.0,0.0,0.0,0.0,0.0,0.0,0.0,0.0,0.0,0.0,0.0,0.0,0.0,0.0,0.0,0.0,0.0,0.0,0.0,0.0,0.0,0.0,0.0,0.0,0.0,0.0,0.0,0.0,0.0,0.0,0.0,0.0,0.0,0.0,0.0,0.0,0.0,0.0,0.0,0.0,0.0,0.0,0.0,0.0,0.0,0.0,0.0,0.0,0.0,0.0,0.0,0.0,0.0,0.0,0.0,0.0,0.0,0.0,0.0,0.0,0.0,0.0,0.0,0.0,0.0,0.0,0.0,0.0,0.0,0.0,0.0,0.0,0.0,0.0,0.0,0.0,0.0,0.0,0.0,0.0,0.0,0.0,0.0,0.0,0.0,0.0,0.0,0.0,0.0,0.0,0.0,0.0,0.0,0.0,0.0,0.0,0.0,0.0,0.0,0.0,0.0,0.0,0.0,0.0,0.0,0.0,0.0,0.0,0.0,0.0,0.0,0.0,0.0,0.0,0.0,0.0,0.0,0.0,0.0,0.0,0.0,0.0,0.0,0.0,0.0,0.0,0.0,0.0,0.0,0.0,0.0,0.0,0.0,0.0,0.0,0.0,0.0,0.0,0.0,0.0,0.0,0.0,0.0,0.0,0.0,0.0,0.0,0.0,0.0,0.0,0.0,0.0,0.0,0.0,0.0,0.0,0.0,0.0,0.0,0.0,0.0,0.0,0.0,0.0,0.0,0.0,0.0,0.0,0.0,0.0,0.0,0.0,0.0,0.0,0.0,0.0,0.0,0.0,0.0,0.0,0.0,0.0,0.0,0.0,0.0,0.0,0.0,0.0,0.0,0.0,0.0,0.0,0.0,0.0,0.0,0.0,0.0,0.0,0.0,0.0,0.0,0.0,0.0,0.0,0.0,0.0,0.0,0.0,0.0,0.0,0.0,0.0,0.0,0.0,0.0,0.0,0.0,0.0,0.0,0.0,0.0,0.0,0.0,0.0,0.0,0.0,0.0,0.0,0.0,0.0,0.0,0.0,0.0,0.0,0.0,0.0,0.0,0.0,0.0,0.0,0.0,0.0,0.0,0.0,0.0,0.0,0.0,0.0,0.0,0.0,0.0,0.0,0.0,0.0,0.0,0.0,0.0,0.0,0.0,0.0,0.0,0.0,0.0,0.0,0.0,0.0,0.0,0.0,0.0,0.0,0.0,0.0,0.0,0.0,0.0,0.0,0.0,0.0,0.0,0.0,0.0,0.0,0.0,0.0,0.0,0.0,0.0,0.0,0.0,0.0,0.0,0.0,0.0,0.0,0.0,0.0,0.0,0.0,0.0,0.0,0.0,0.0,0.0,0.0,0.0,0.0,0.0,0.0,0.0,0.0,0.0,0.0,0.0,0.0,0.0,0.0,0.0,0.0,0.0,0.0,0.0,0.0,0.0,0.0,0.0,0.0,0.0,0.0,0.0,0.0,0.0,0.0,0.0,0.0,0.0,0.0,0.0,0.0,0.0,0.0,0.0,0.0,0.0,0.0,0.0,0.0,0.0,0.0,0.0,0.0,0.0,0.0,0.0,0.0,0.0,0.0,0.0,0.0,0.0,0.0,0.0,0.0,0.0,0.0,0.0,0.0,0.0,0.0,0.0,0.0,0.0,0.0,0.0,0.0,0.0,0.0,0.0,0.0,0.0,0.0,0.0,0.0,0.0,0.0,0.0,0.0,0.0,0.0,0.0,0.0,0.0,0.0,0.0,0.0,0.0,0.0,0.0,0.0,0.0,0.0,0.0,0.0,0.0,0.0,0.0,0.0,0.0,0.0,0.0,0.0,0.0,0.0,0.0,0.0,0.0,0.0,0.0,0.0,0.0,0.0,0.0,0.0,0.0,0.0,0.0,0.0,0.0,0.0,0.0,0.0,0.0,0.0,0.0,0.0,0.0,0.0,0.0,0.0,0.0,0.0,0.0,0.0,0.0,0.0,0.0,0.0,0.0,0.0,0.0,0.0,0.0,0.0,0.0,0.0,0.0,0.0,0.0,0.0,0.0,0.0,0.0,0.0,0.0,0.0,0.0,0.0,0.0,0.0,0.0,0.0,0.0,0.0,0.0,0.0,0.0,0.0,0.0,0.0,0.0,0.0,0.0,0.0,0.0,0.0,0.0,0.0,0.0,0.0,0.0,0.0,0.0,0.0,0.0,0.0,0.0,0.0,0.0,0.0,0.0,0.0,0.0,0.0,0.0,0.0,0.0,0.0,0.0,0.0,0.0,0.0,0.0,0.0,0.0,0.0,0.0,0.0,0.0,0.0,0.0,0.0,0.0,0.0,0.0,0.0,0.0,0.0,0.0,0.0,0.0,0.0,0.0,0.0,0.0,0.0,0.0,0.0,0.0,0.0,0.0,0.0,0.0,0.0,0.0,0.0,0.0,0.0,0.0,0.0,0.0,0.0,0.0,0.0,0.0,0.0,0.0,0.0,0.0,0.0,0.0,0.0,0.0,0.0,0.0,0.0,0.0,0.0,0.0,0.0,0.0,0.0,0.0,0.0,0.0,0.0,0.0,0.0,0.0,0.0,0.0,0.0,0.0,0.0,0.0,0.0,0.0,0.0,0.0,0.0,0.0,0.0,0.0,0.0,0.0,0.0,0.0,0.0,0.0,0.0,0.0,0.0,0.0,0.0,0.0,0.0,0.0,0.0,0.0,0.0,0.0,0.0,0.0,0.0,0.0,0.0,0.0,0.0,0.0,0.0,0.0,0.0,0.0,0.0,0.0,0.0,0.0,0.0,0.0,0.0,0.0,0.0,0.0,0.0,0.0,0.0,0.0,0.0,0.0,0.0,0.0,0.0,0.0,0.0,0.0,0.0,0.0,0.0,0.0,0.0,0.0,0.0,0.0,0.0,0.0,0.0,0.0,0.0,0.0,0.0,0.0,0.0,0.0,0.0,0.0,0.0,0.0,0.0,0.0,0.0,0.0,0.0,0.0,0.0,0.0,0.0,0.0,0.0,0.0,0.0,0.0,0.0,0.0,0.0,0.0,0.0,0.0,0.0,0.0,0.0,0.0,0.0,0.0,0.0,0.0,0.0,0.0,0.0,0.0,0.0,0.0,0.0,0.0,0.0,0.0,0.0,0.0,0.0,0.0,0.0,0.0,0.0,0.0,0.0,0.0,0.0,0.0,0.0,0.0,0.0,0.0,0.0,0.0,0.0,0.0,0.0,0.0,0.0,0.0,0.0,0.0,0.0,0.0,0.0,0.0,0.0,0.0,0.0,0.0,0.0,0.0,0.0,0.0,0.0,0.0,0.0,0.0,0.0,0.0,0.0,0.0,0.0,0.0,0.0,0.0,0.0,0.0,0.0,0.0,0.0,0.0,0.0,0.0,0.0,0.0,0.0,0.0,0.0,0.0,0.0,0.0,0.0,0.0,0.0,0.0,0.0,0.0,0.0,0.0,0.0,0.0,0.0,0.0,0.0,0.0,0.0,0.0,0.0,0.0,0.0,0.0,0.0,0.0,0.0,0.0,0.0,0.0,0.0,0.0,0.0,0.0,0.0,0.0,0.0,0.0,0.0,0.0,0.0,0.0,0.0,0.0,0.0,0.0,0.0,0.0,0.0,0.0,0.0,0.0,0.0,0.0,0.0,0.0,0.0,0.0,0.0,0.0,0.0,0.0,0.0,0.0,0.0,0.0,0.0,0.0,0.0,0.0,0.0,0.0,0.0,0.0,0.0,0.0,0.0,0.0,0.0,0.0,0.0,0.0,0.0,0.0,0.0,0.0,0.0,0.0,0.0,0.0,0.0,0.0,0.0,0.0,0.0,0.0,0.0,0.0,0.0,0.0,0.0,0.0,0.0,0.0,0.0,0.0,0.0,0.0,0.0,0.0,0.0,0.0,0.0,0.0,0.0,0.0,0.0,0.0,0.0,0.0,0.0,0.0,0.0,0.0,0.0,0.0,0.0,0.0,0.0,0.0,0.0,0.0,0.0,0.0,0.0,0.0,0.0,0.0,0.0,0.0,0.0,0.0,0.0,0.0,0.0,0.0,0.0,0.0,0.0,0.0,0.0,0.0,0.0,0.0,0.0,0.0,0.0,0.0,0.0,0.0,0.0,0.0,0.0,0.0,0.0,0.0,0.0,0.0,0.0,0.0,0.0,0.0,0.0,0.0,0.0,0.0,0.0,0.0,0.0,0.0,0.0,0.0,0.0,0.0,0.0,0.0,0.0,0.0,0.0,0.0,0.0,0.0,0.0,0.0,0.0,0.0,0.0,0.0,0.0,0.0,0.0,0.0,0.0,0.0,0.0,0.0,0.0,0.0,0.0,0.0,0.0,0.0,0.0,0.0,0.0,0.0,0.0,0.0,0.0,0.0,0.0,0.0,0.0,0.0,0.0,0.0,0.0,0.0,0.0,0.0,0.0,0.0,0.0,0.0,0.0,0.0,0.0,0.0,0.0,0.0,0.0,0.0,0.0,0.0,0.0,0.0,0.0,0.0,0.0,0.0,0.0,0.0,0.0,0.0,0.0,0.0,0.0,0.0,0.0,0.0,0.0,0.0,0.0,0.0,0.0,0.0,0.0,0.0,0.0,0.0,0.0,0.0,0.0,0.0,0.0,0.0,0.0,0.0,0.0,0.0,0.0,0.0,0.0,0.0,0.0,0.0,0.0,0.0,0.0,0.0,0.0,0.0,0.0,0.0,0.0,0.0,0.0,0.0,0.0,0.0,0.0,0.0,0.0,0.0,0.0,0.0,0.0,0.0,0.0,0.0,0.0,0.0,0.0,0.0,0.0,0.0,0.0,0.0,0.0,0.0,0.0,0.0,0.0,0.0,0.0,0.0,0.0,0.0,0.0,0.0,0.0,0.0,0.0,0.0,0.0,0.0,0.0,0.0,0.0,0.0,0.0,0.0,0.0,0.0,0.0,0.0,0.0,0.0,0.0,0.0,0.0,0.0,0.0,0.0,0.0,0.0,0.0,0.0,0.0,0.0,0.0,0.0,0.0,0.0,0.0,0.0,0.0,0.0,0.0,0.0,0.0,0.0,0.0,0.0,0.0,0.0,0.0,0.0,0.0,0.0,0.0,0.0,0.0,0.0,0.0,0.0,0.0,0.0,0.0,0.0,0.0,0.0,0.0,0.0,0.0,0.0,0.0,0.0,0.0,0.0,0.0,0.0,0.0,0.0,0.0,0.0,0.0,0.0,0.0,0.0,0.0,0.0,0.0,0.0,0.0,0.0,0.0,0.0,0.0,0.0,0.0,0.0,0.0,0.0,0.0,0.0,0.0,0.0,0.0,0.0,0.0,0.0,0.0,0.0,0.0,0.0,0.0,0.0,0.0,0.0,0.0,0.0,0.0,0.0,0.0,0.0,0.0,0.0,0.0,0.0,0.0,0.0,0.0,0.0,0.0,0.0,0.0,0.0,0.0,0.0,0.0,0.0,0.0,0.0,0.0,0.0,0.0,0.0,0.0,0.0,0.0,0.0,0.0,0.0,0.0,0.0,0.0,0.0,0.0,0.0,0.0,0.0,0.0,0.0,0.0,0.0,0.0,0.0,0.0,0.0,0.0,0.0,0.0,0.0,0.0,0.0,0.0,0.0,0.0,0.0,0.0,0.0,0.0,0.0,0.0,0.0,0.0,0.0,0.0,0.0,0.0,0.0,0.0,0.0,0.0,0.0,0.0,0.0,0.0,0.0,0.0,0.0,0.0,0.0,0.0,0.0,0.0,0.0,0.0,0.0,0.0,0.0,0.0,0.0,0.0,0.0,0.0,0.0,0.0,0.7296,0.0,0.0,0.0,0.0,0.0,0.0,0.0,0.0,0.0,0.0,0.0,0.0,0.0,0.0,0.0,0.0,0.0,0.0,0.0,0.0,0.0,0.0,0.0,0.0,0.0,0.0,0.0,0.0,0.0,0.0,0.0,0.0,0.0,0.0,0.0,0.0,0.0,0.0,0.0,-0.1173,0.0845,0.2815,0.2329,0.2209,0.2464,0.0,0.0,0.0,0.0,0.0,0.0,0.0,0.0,0.0,0.0,0.0,0.0,0.0,0.0,0.0,0.0,0.0,0.0,0.0,0.0,0.0,0.0,0.0,0.0,0.0,0.0,0.0,0.0,0.0,0.0,0.0,0.0,0.0,0.0,0.0,0.0,0.0,0.0,0.0,0.0,0.0,0.0,0.0,0.0,0.0,0.0,0.0,0.0,0.0,0.0,0.0,0.0,0.0,0.0,0.0,0.0,0.0,0.0,0.0,0.0,0.0,0.0,0.0,0.0,0.0,0.0,0.0,0.0,0.0,0.0,0.0,0.8037,0.0,0.0,0.0,0.0,0.0,0.0,0.0,0.0,0.0,0.0,0.0,0.0,0.0,0.0,0.0,0.0,0.0,0.0,0.0,0.0,0.0,0.0,0.0,0.0,-0.2071,-0.2635,-0.2965,-0.3297,0.0,0.0,0.0,0.0,0.0,0.0,0.0,-0.4203,-0.4219,-0.4132,-0.1644,0.1096,0.3994,0.3928,0.3374,0.2455,0.2624,0.0,0.0,0.0,0.0,0.0,0.0,0.0,0.0,0.0,0.0,0.0,0.0,0.0,0.0,0.0,0.0,0.0,0.0,0.0,0.0,0.0,0.0,0.0,0.0,0.0,0.0,0.0,0.0,0.0,0.0,0.0,0.0,0.0,0.0,0.0,0.0,0.0,0.0,0.0,0.0,0.0,0.0,0.0,0.0,0.0,0.0,0.0,0.0,0.0,0.0,0.0,0.0,0.0,0.0,0.0,0.0,0.0,0.0,0.0,0.0,0.0,0.0,0.0,1.1341,1.148,1.1483,1.0926,1.1036,1.1654,0.9802,0.9082,0.9201,0.9369,0.0,0.0,0.0,0.0,0.0,0.0,0.0,0.0,0.0,0.0,0.0,0.0,0.0,0.0,0.0,0.0,0.0,0.0,0.0,0.0,0.0,-0.1792,-0.2183,-0.2635,-0.2965,-0.3352,0.0,0.0,0.0,0.0,0.0,0.0,-0.3524,-0.4144,-0.3913,-0.2741,-0.1199,0.1219,0.4253,0.399,0.3714,0.3384,0.2925,0.3199,0.4064,0.0,0.0,0.0,0.0,0.0,0.0,0.0,0.0,0.0,0.0,0.0,0.0,0.0,0.0,0.0,0.0,0.0,0.0,0.0,0.0,0.0,0.0,0.0,0.0,0.0,0.0,0.0,0.0,0.0,0.0,0.0,0.0,0.0,0.0,0.0,0.0,0.0,0.0,0.0,0.0,0.0,1.445,1.3844,0.0,0.0,0.0,0.0,0.0,0.0,0.0,0.0,0.0,0.0,0.0,0.0,0.0,1.3858,1.3491,1.3858,1.4042,1.4042,1.4073,1.4192,1.4374,1.4087,1.4119,1.4251,1.338,0.0,1.0084,1.08,0.0,0.0,0.0,0.0,0.0,0.0,0.0,0.0,0.0,0.0,0.0,0.0,0.0,0.0,0.0,0.0,0.0,0.0,0.0,0.0,0.0,-0.1903,-0.2015,-0.2296,-0.2462,-0.2685,-0.3077,-0.3752,0.0,0.0,0.0,-0.4228,-0.4026,-0.3909,-0.315,-0.1627,-0.0062,0.139,0.2596,0.2799,0.2838,0.2772,0.2471,0.2912,0.3761,0.4022,0.0,0.0,0.0,0.0,0.0,0.0,0.0,0.0,0.0,0.0,0.0,0.0,0.0,0.0,0.0,0.0,0.0,0.0,0.0,0.0,0.0,0.0,0.0,0.0,0.0,0.0,0.0,0.0,0.0,0.0,0.0,0.0,0.0,0.0,0.0,0.0,0.0,0.0,0.0,1.5596,1.5534,1.4987,1.4883,1.482,0.0,0.0,0.0,0.0,0.0,0.0,0.0,0.0,0.0,1.546,1.5914,1.623,1.6365,1.6917,1.7185,1.7185,1.7692,1.7951,1.804,1.7571,1.7392,1.7364,1.6229,1.5031,1.3783,1.2514,1.211,1.2252,0.0,0.0,0.0,0.0,1.3136,1.2805,0.0,0.0,0.0,0.0,0.0,0.0,0.0,0.0,0.0,0.0,0.0,0.0,-0.2073,-0.2071,-0.1902,-0.1621,-0.179,-0.2015,-0.224,-0.3249,0.0,0.0,-0.4343,-0.4182,-0.3993,-0.3218,-0.2188,-0.0997,0.0257,0.0913,0.0978,0.1731,0.2016,0.188,0.2016,0.242,0.2961,0.3703,0.3701,0.3291,0.0,0.0,0.0,0.0,0.0,0.0,0.0,0.0,0.0,0.0,0.0,0.0,0.0,0.0,0.0,0.0,0.0,0.0,0.0,0.0,0.0,0.0,0.0,0.0,0.0,0.0,0.0,0.0,0.0,0.0,0.0,0.0,0.0,0.0,0.0,0.0,0.0,1.6569,1.6763,1.6258,1.631,1.6362,0.0,0.0,0.0,0.0,0.0,0.0,1.6177,1.6948,1.7412,1.7467,1.8189,1.8758,1.93,1.9876,2.0246,2.0296,2.1046,2.1452,2.1488,2.0933,2.0692,2.0679,1.9223,1.8422,1.7943,1.5023,1.4046,1.4414,1.4505,1.4681,1.4983,1.5051,1.4808,1.4582,0.0,0.0,0.0,0.0,0.0,0.0,0.0,0.0,0.0,0.0,0.0,-0.1572,-0.1797,-0.23,-0.2071,-0.0614,-0.1006,-0.1454,-0.179,-0.2404,-0.3299,-0.4438,-0.4438,-0.3801,-0.2638,-0.1621,-0.1094,-0.1096,-0.0995,-0.0605,0.0067,0.1482,0.1754,0.1146,0.1821,0.2153,0.2207,0.2954,0.3357,0.3487,0.3689,0.0,0.0,0.0,0.0,0.0,0.0,0.0,0.0,0.0,0.0,0.0,0.0,0.0,0.0,0.0,0.0,0.0,0.0,0.0,0.0,0.0,0.0,0.0,0.0,0.0,0.0,0.0,0.0,0.0,0.0,0.0,0.0,0.0,0.0,0.0,0.0,0.0,0.0,1.8024,1.8174,0.0,0.0,0.0,0.0,1.7938,1.7501,1.739,1.7918,1.8756,1.9334,1.9631,2.0881,2.1575,2.1636,2.2491,2.3027,2.3283,2.3723,2.4055,2.4269,2.4005,2.3991,2.4141,2.2749,2.2152,2.1887,1.8677,1.662,1.5575,1.5981,1.5981,1.5646,1.5573,1.5718,1.6066,0.0,0.0,0.0,0.0,0.0,0.0,0.0,0.0,-0.084,-0.1178,-0.1625,-0.1737,-0.1287,-0.1737,-0.1906,-0.1345,-0.0448,0.0056,-0.0056,-0.1342,-0.2882,-0.4697,-0.4033,-0.317,-0.2119,-0.1431,-0.1063,-0.113,-0.1074,-0.0742,0.0,0.0539,0.0877,0.1079,0.1349,0.1549,0.1812,0.235,0.2751,0.3086,0.4018,0.4818,0.0,0.0,0.0,0.0,0.0,0.0,0.0,0.0,0.0,0.0,0.0,0.0,0.0,0.0,0.0,0.0,0.0,0.0,0.0,0.0,0.0,0.0,0.0,0.0,0.0,0.0,0.0,0.0,0.0,0.0,0.0,0.0,0.0,0.0,0.0,0.0,0.0,1.7346,1.7512,0.0,1.8007,1.8414,1.8821,1.9304,1.9626,1.9929,2.0176,2.0483,2.0769,2.0891,2.1681,2.2307,2.2715,2.3298,2.3886,2.4384,2.4566,2.4681,2.4731,2.4603,2.4554,2.4554,2.4047,2.3612,2.3223,2.2126,2.0544,1.8862,1.8908,1.8863,1.8725,1.8585,1.8433,1.8339,0.0,0.0,0.0,0.0,0.0,0.0,0.0,0.0,-0.1402,-0.1514,-0.1625,-0.1568,-0.1231,-0.1177,-0.1178,-0.1178,-0.101,-0.0897,-0.0896,-0.1526,-0.2642,-0.4302,-0.3423,-0.2611,-0.2026,-0.1402,-0.1079,-0.1079,-0.1079,-0.0742,0.0,0.0,0.0337,0.0877,0.1012,0.128,0.1615,0.2173,0.2575,0.2954,0.4154,0.5017,0.5686,0.0,0.0,0.0,0.0,0.0,0.0,0.0,0.0,0.0,0.0,0.0,0.0,0.0,0.0,0.0,0.0,0.0,0.0,0.0,0.0,0.0,0.0,0.0,0.0,0.0,0.0,0.0,0.0,0.0,0.0,0.0,0.0,0.0,0.0,0.0,1.8284,1.7611,1.7783,1.8068,1.8363,1.8942,1.9424,1.9616,2.0175,2.0619,2.0872,2.1087,2.12,2.1338,2.1979,2.2564,2.3173,2.3768,2.4473,2.5212,2.5315,2.5416,2.5531,2.5402,2.5337,2.5337,2.5236,2.4967,2.4591,2.4619,2.3797,2.2352,2.1237,2.0844,2.0868,2.0447,2.0216,2.0111,0.0,0.0,0.0,0.0,0.0,0.0,0.0,-0.1629,-0.1626,-0.2015,-0.1401,-0.1122,-0.1685,-0.0673,0.0,0.0,-0.2757,-0.4472,-0.4521,-0.3005,-0.2464,-0.324,-0.2627,-0.229,-0.2153,-0.1482,-0.1079,-0.1079,-0.1079,-0.0741,-0.0067,-0.0,0.0202,0.0472,0.0945,0.1281,0.1687,0.2361,0.2904,0.3301,0.4033,0.4831,0.5715,0.0,0.0,0.0,0.0,0.0,0.0,0.0,0.0,0.0,0.0,0.0,0.0,0.0,0.0,0.0,0.0,0.0,0.0,0.0,0.0,0.0,0.0,0.0,0.0,0.0,0.0,0.0,0.0,0.0,0.0,0.0,0.0,0.0,1.8518,1.8581,1.8687,1.8895,1.9253,1.9395,1.9298,1.9417,1.9346,1.9086,1.9048,1.9358,2.01,2.0425,2.0713,2.1117,2.1933,2.2603,2.3148,2.4065,2.4966,2.5814,2.616,2.65,2.6779,2.6447,2.65,2.6779,2.6447,2.6233,2.6111,2.6111,2.6016,2.559,2.2711,2.1771,2.1933,2.0905,2.0848,2.1368,0.0,0.0,0.0,0.0,0.0,0.0,0.0,-0.185,-0.1737,-0.112,-0.0952,-0.0784,-0.0505,-0.0224,0.0,0.0,-0.2645,-0.4342,-0.4378,-0.3285,-0.2522,-0.2321,-0.3723,-0.3547,-0.1415,-0.1214,-0.1079,-0.1079,-0.0539,-0.0472,-0.0809,-0.027,0.0067,0.0135,0.0894,0.1526,0.2223,0.2352,0.2942,0.3918,0.4621,0.5393,0.6095,0.0,0.0,0.0,0.0,0.0,0.0,0.0,0.0,0.0,0.0,0.0,0.0,0.0,0.0,0.0,0.0,0.0,0.0,0.0,0.0,0.0,0.0,0.0,0.0,0.0,0.0,0.0,0.0,0.0,0.0,0.0,0.0,1.8009,1.7747,1.7933,1.8006,1.7822,1.7945,1.8201,1.8627,1.9105,1.9549,1.9916,2.0318,2.0586,2.0784,2.1376,2.1741,2.1813,2.2483,2.3187,2.3804,2.4514,2.5232,2.587,2.6428,2.6727,2.6779,2.6674,2.6659,2.6578,2.6472,2.6312,2.6111,2.6111,2.5907,2.5495,2.4206,2.3734,2.3704,2.2707,2.2483,2.2639,0.0,0.0,0.0,0.0,0.0,0.0,0.0,-0.2073,-0.1959,-0.185,-0.1174,-0.0503,-0.0056,0.0,-0.0393,-0.1403,-0.3042,-0.3659,-0.2763,-0.2594,-0.2363,-0.1996,-0.3053,-0.2833,-0.1146,-0.1079,-0.1079,-0.1079,-0.0674,-0.0539,-0.0607,-0.0539,-0.0203,0.0274,0.0765,0.148,0.2356,0.2488,0.3182,0.4294,0.5152,0.5908,0.6583,0.7888,0.8938,0.991,1.0982,1.2176,1.322,1.3302,0.0,0.0,0.0,0.0,0.0,0.0,0.0,0.0,0.0,0.0,0.0,0.0,0.0,0.0,0.0,0.0,0.0,0.0,0.0,0.0,0.0,0.0,0.0,0.0,1.8096,1.784,1.7666,1.7894,1.6675,1.2997,1.5811,1.6782,1.3614,1.3623,1.551,1.9497,1.672,1.5099,1.5595,1.5988,1.6325,1.6618,1.7018,1.929,2.361,2.4008,2.4597,2.5536,2.6111,2.6394,2.6447,2.6674,2.6712,0.0,2.6525,2.6365,2.6179,2.6111,2.5907,0.0,0.0,0.0,0.0,0.0,2.3708,2.3649,0.0,0.0,0.0,0.0,0.0,0.0,0.0,-0.2184,-0.224,-0.3314,-0.1734,-0.0391,0.0056,-0.0,-0.101,-0.3268,-0.3439,-0.2679,-0.082,-0.162,-0.2063,-0.1934,-0.1327,-0.1012,-0.0944,-0.1079,-0.1079,-0.1079,-0.1079,-0.0742,-0.0067,-0.0677,-0.0411,0.07,0.0705,0.1288,0.2416,0.2706,0.3417,0.4414,0.5505,0.6307,0.7081,0.8281,0.9119,0.9896,1.1016,1.2123,1.3111,1.2848,0.0,0.0,0.0,0.0,0.0,0.0,0.0,0.0,0.0,0.0,0.0,0.0,0.0,0.0,0.0,0.0,0.0,0.0,0.0,0.0,0.0,0.0,0.0,0.0,1.7978,1.7455,1.6719,1.673,1.416,0.6868,1.2735,1.4039,0.556,0.4728,0.834,1.7002,1.0513,0.6693,0.7832,0.0,0.0,0.0,0.0,1.3295,2.1536,2.2735,2.3896,2.5097,2.5688,2.598,2.598,2.6594,2.6876,2.6876,2.6794,2.6687,2.6554,2.6378,2.6269,2.609,2.5647,2.5313,2.4948,2.4637,2.458,2.4523,0.0,0.0,0.0,0.0,0.0,0.0,0.0,-0.2184,-0.2183,-0.2352,-0.1902,-0.0951,0.0561,-0.0168,-0.1178,-0.2361,-0.2469,-0.2273,-0.1818,-0.187,-0.1548,-0.0839,-0.0664,-0.0472,-0.0202,-0.0809,-0.1079,-0.1079,-0.1079,-0.0877,-0.0405,-0.0276,0.0279,0.1194,0.1172,0.1795,0.2784,0.2777,0.3505,0.467,0.5541,0.6513,0.7513,0.8397,0.9739,1.1334,1.1879,1.3423,1.5141,1.4973,1.5835,1.6952,1.63,1.6309,0.0,0.0,0.0,0.0,0.0,0.0,0.0,0.0,0.0,0.0,0.0,0.0,0.0,0.0,0.0,0.0,0.0,0.0,0.0,1.8674,1.8269,1.561,0.8804,0.7843,0.7436,0.613,0.7589,0.53,-0.3287,-0.4111,-0.0544,0.8056,0.7151,0.6479,0.7181,0.7688,0.51,-0.1278,0.6342,1.1388,1.322,2.1195,2.5309,2.5555,0.0,0.0,2.6508,2.7153,2.7455,2.7455,2.8051,2.8192,2.808,2.7897,2.7684,2.7312,2.5994,2.5313,2.5005,2.4948,2.4878,2.4892,0.0,0.0,0.0,0.0,0.0,0.0,0.0,-0.2184,-0.2352,-0.2798,-0.2516,-0.1845,-0.0783,-0.1174,-0.179,-0.2408,-0.2503,-0.2413,-0.2182,-0.1732,-0.1282,-0.0822,-0.0593,-0.0539,-0.0539,-0.0944,-0.1078,-0.1078,-0.1078,-0.0877,-0.0472,-0.0139,0.0353,0.0931,0.1191,0.183,0.27,0.2887,0.3604,0.4621,0.5625,0.6623,0.7617,0.8542,1.0056,1.1774,1.2705,1.4068,1.5508,1.5895,1.6473,1.6968,1.6551,1.6691,1.6793,0.0,0.0,0.0,0.0,0.0,0.0,0.0,0.0,0.0,0.0,0.0,0.0,0.0,0.0,1.6973,0.0,0.0,1.7706,1.7706,1.7681,1.6258,1.2006,1.1276,0.6696,-0.5462,-0.3045,-0.3884,-1.279,-1.3643,-1.0236,-0.2,-0.0843,-0.2354,-0.6778,0.2651,0.4114,-0.4882,0.4499,1.1936,1.6694,2.1701,2.4539,2.5231,2.5834,2.6131,2.6193,2.6788,2.7088,2.7148,2.775,2.7996,2.7938,2.814,2.8096,2.7808,2.7074,2.6608,2.6378,2.6178,2.6178,2.612,0.0,0.0,0.0,0.0,0.0,0.0,0.0,-0.2184,-0.2519,-0.3471,-0.3188,-0.2852,-0.2689,-0.2516,-0.2512,-0.2847,-0.2754,-0.2594,-0.2411,-0.1587,-0.1077,-0.1052,-0.0785,-0.0742,-0.1079,-0.1079,-0.1078,-0.1076,-0.1078,-0.0944,-0.0607,-0.0209,0.0143,0.0511,0.1054,0.1696,0.2431,0.2978,0.3679,0.4693,0.578,0.6853,0.7774,0.8694,1.0126,1.1774,1.2997,1.4227,1.5242,1.6105,1.6533,1.6682,1.6482,1.6691,1.6651,1.4883,1.4732,0.0,0.0,0.0,0.0,0.0,0.0,0.0,0.0,0.0,1.2753,1.2819,1.4073,1.5248,1.5466,1.6119,1.6035,1.4255,1.4316,1.3431,0.9987,0.9292,0.1162,-2.0373,-1.3721,-1.1686,-2.2584,-2.3646,-2.0339,-1.2277,-1.0744,-1.2521,-1.7971,-0.4995,0.0,-0.5591,0.1809,1.0562,2.0318,2.223,2.3811,2.5134,2.5627,2.5871,2.5858,2.6463,2.676,2.6835,2.7371,2.7612,2.7626,2.813,2.8335,2.8217,2.8276,2.8276,2.8144,2.7583,2.7381,2.7381,0.0,0.0,0.0,0.0,0.0,0.0,0.0,0.0,-0.2519,-0.3471,-0.3697,-0.3872,-0.4225,-0.3591,-0.3241,-0.3461,-0.2693,-0.2473,-0.3132,-0.1792,-0.0992,-0.0988,-0.1046,-0.1079,-0.1079,-0.1077,-0.1077,-0.1079,-0.1079,-0.1079,-0.1012,-0.0355,0.0,0.0073,0.092,0.1644,0.2196,0.3056,0.407,0.5243,0.6173,0.7249,0.8399,0.8998,1.0051,1.1335,1.2372,1.3673,1.4974,1.5488,1.6263,1.7097,1.6899,1.6968,1.5633,0.778,0.5932,0.464,-0.3737,-0.611,-0.6182,-0.6001,-0.6202,-0.6397,0.0,0.0,0.4096,0.4391,1.0137,1.5396,1.6396,1.6606,1.4042,0.5851,0.4578,-0.0862,-1.6635,-1.8836,-2.2674,-3.2894,-1.9317,-1.573,-3.257,-3.4199,-3.0629,-2.2004,-2.1193,-1.7403,-0.8838,-1.4602,-1.3807,-0.4321,-0.3396,0.2008,1.2553,2.0849,2.5411,2.6276,2.6413,2.6413,2.64,2.7102,2.742,2.742,2.8109,2.8315,2.8214,2.8752,2.9018,2.9018,2.933,2.9501,2.9421,2.8229,2.7762,2.7703,0.0,0.0,0.0,0.0,0.0,0.0,0.0,0.0,0.0,0.0,-0.4138,-0.4363,-0.4598,-0.4307,-0.4132,-0.4239,-0.3352,-0.274,-0.2623,-0.158,-0.097,-0.0988,-0.1029,-0.106,-0.1076,-0.1076,-0.1076,-0.1077,-0.1077,-0.1078,-0.108,-0.056,-0.0215,0.0073,0.1136,0.1782,0.2195,0.3214,0.4229,0.5237,0.6325,0.7698,0.914,0.975,1.095,1.2432,1.3302,1.4106,0.0,1.6123,1.6464,1.6533,1.6959,1.3915,0.9427,0.5701,0.1165,-0.4656,-1.3705,-1.6218,-1.6312,0.0,-1.6592,-1.4372,-0.5306,-0.0778,0.3054,0.8578,1.2425,1.3255,0.8319,0.7719,0.5022,0.0,-0.5496,-0.7951,-1.5325,-1.6609,-2.0048,-2.8874,-2.3509,-2.3636,-3.5339,-3.6458,-3.5151,-3.1967,-2.6412,-2.3716,-2.4941,-1.782,-1.4063,-1.4769,-0.9299,-0.3937,0.1015,0.4887,1.0349,1.7248,1.7248,2.0501,2.6533,2.6782,2.7095,2.755,2.7802,2.8051,2.826,2.8597,2.8661,2.8468,2.8597,2.8917,2.9192,2.8951,2.8844,2.8783,0.0,0.0,0.0,0.0,0.0,0.0,0.0,0.0,0.0,0.0,-0.4353,-0.4574,-0.4739,-0.4743,-0.4743,-0.4743,-0.3965,-0.3072,-0.2174,-0.1385,-0.0956,-0.0987,-0.1017,-0.1047,-0.1075,-0.1076,-0.1076,-0.1076,-0.1076,-0.1077,-0.108,-0.0692,-0.0354,0.0072,0.1045,0.1988,0.2798,0.3517,0.4384,0.5392,0.663,0.8075,0.9508,1.0207,1.162,1.323,1.4019,1.4394,1.4776,1.6324,1.6324,1.5494,1.3771,0.9204,0.4077,0.1841,-0.5202,-1.4179,-2.3006,-2.5841,0.0,-2.6531,-2.673,-2.3795,-1.2133,-0.788,-0.4513,0.2302,0.5513,0.4989,-0.1616,-0.2419,-0.5053,-1.423,-1.5487,-1.6255,-1.8789,-1.9423,-2.2091,-2.8738,-2.9729,-3.1909,-3.7202,-3.7742,-3.7952,-3.8529,-3.1917,-2.9712,-3.404,-2.2964,-1.7279,-1.8862,-1.4379,-1.0286,-0.6727,-0.6722,-0.0903,1.0457,0.7405,1.3182,2.6533,2.6533,2.6782,2.7229,2.7162,2.7351,2.767,2.792,2.7907,2.7723,2.7789,2.813,2.8519,2.8867,2.9275,2.954,0.0,0.0,0.0,0.0,0.0,0.0,0.0,0.0,0.0,0.0,0.0,0.0,0.0,-0.4897,-0.4897,-0.4897,-0.4239,-0.3292,-0.2174,-0.1324,-0.0954,-0.0987,-0.1017,-0.1047,-0.1075,-0.1076,-0.1076,-0.1076,-0.1076,-0.1077,-0.108,-0.0692,-0.035,0.0,0.0444,0.2046,0.4336,0.419,0.4771,0.6015,0.7246,0.8237,0.915,1.0137,1.1471,1.3011,1.3947,1.4322,1.4482,1.548,1.5551,1.3808,0.5868,0.3136,0.1417,-0.6276,-1.5053,-2.4097,-3.3039,0.0,-3.5736,-3.5471,-3.5688,-3.5874,-3.5367,-2.9582,-2.4143,-2.3537,-1.7233,-1.1773,-1.1726,-1.1668,-1.4696,-2.3897,-2.5338,-2.8477,-3.7661,-3.8898,-3.902,-3.9413,-3.9475,-3.9551,0.0,-3.9759,-3.98,-3.9735,-3.9293,-3.4804,-2.5147,-3.2922,-2.8904,-0.9739,-1.8088,-1.7964,-0.7552,-0.7446,-0.1542,0.9962,-0.0674,0.5541,2.6533,2.6533,2.6533,2.6521,2.6339,2.627,2.627,2.662,2.6799,2.6989,2.7338,2.7591,2.7683,2.7604,2.8417,2.9602,0.0,0.0,0.0,0.0,0.0,0.0,0.0,0.0,0.0,0.0,0.0,0.0,0.0,0.0,0.0,0.0,-0.5265,-0.4758,-0.3993,-0.286,-0.207,-0.1731,-0.1234,-0.1017,-0.1047,-0.1066,-0.1076,-0.1076,-0.1076,-0.1077,-0.108,-0.0953,-0.0344,0.0771,0.1071,0.2128,0.3714,0.4192,0.5158,0.6391,0.7698,0.9059,1.0565,1.1835,1.2718,1.3455,0.0,1.4617,1.441,1.5125,1.5281,1.4751,1.2305,0.3756,-0.8309,-2.3212,-2.9728,-3.2826,-3.6197,0.0,-3.7248,-3.7411,-3.7679,-3.641,-3.0723,-2.749,-2.392,-1.7723,-1.4175,-1.4039,-2.008,-2.1254,-2.4335,-3.3581,-3.5156,-3.6285,-3.9429,-3.9909,-3.9983,-3.9982,-4.0121,0.0,0.0,0.0,0.0,-3.9797,-3.9609,-3.8053,-3.4731,-3.7421,-3.5981,-2.9212,-3.1994,-3.191,-2.8302,-2.8098,-2.2495,-1.1528,-0.7977,-0.244,0.4739,0.471,0.8622,1.5427,1.529,1.9263,2.5828,2.6094,2.6082,2.607,2.6208,2.6595,2.6989,2.6812,2.7351,2.8143,0.0,0.0,0.0,0.0,0.0,0.0,0.0,0.0,0.0,0.0,0.0,0.0,0.0,0.0,0.0,0.0,0.0,-0.5792,-0.5467,-0.4529,-0.3708,-0.3203,-0.2532,-0.218,-0.2183,-0.2049,-0.2012,-0.2012,-0.1745,-0.1546,-0.1549,-0.1078,-0.0408,0.0553,0.1396,0.25,0.3687,0.4566,0.5689,0.7067,0.85,1.004,1.1675,1.2865,1.3528,0.0,1.4617,1.4625,1.3927,1.1572,1.0465,0.9023,0.348,-0.6032,-1.8091,-3.3178,-3.5432,-3.3781,-3.7368,-3.8408,-3.8509,-3.8776,-3.8996,-3.7687,-3.2194,-3.0921,-2.9265,-2.3348,-2.1987,-2.3705,-2.973,-3.0888,-3.2895,-3.8874,-3.9854,-3.9905,-3.9966,-4.0024,-3.9992,-3.9807,-3.994,-3.9942,0.0,0.0,0.0,-4.0043,-3.9878,-3.9813,-3.9943,-3.9652,-3.9496,-3.9496,-3.9271,-3.9177,-3.9177,-3.8995,-3.5473,-2.8566,-1.3663,-0.8603,-1.2277,-0.8372,-0.2744,0.3872,0.3735,0.9818,1.9863,1.9886,2.2071,2.5453,2.5453,2.5791,2.6195,2.607,2.6333,2.6731,0.0,0.0,0.0,0.0,0.0,0.0,0.0,0.0,0.0,0.0,0.0,0.0,0.0,0.0,0.0,0.0,0.0,0.0,-0.6474,-0.6161,-0.5749,-0.5171,-0.4647,-0.4375,-0.4382,-0.4001,-0.3803,-0.3808,-0.2947,-0.248,-0.2414,-0.1144,-0.0606,-0.054,0.1245,0.2799,0.4211,0.5064,0.6352,0.7946,0.9574,1.1013,1.2345,1.323,1.3962,1.453,1.4402,1.4053,1.2586,0.5281,0.1769,-0.2467,-1.8785,-2.4438,-2.6872,-3.6049,-3.2977,-2.8484,-3.727,-3.9724,-3.9819,-3.9819,-3.988,-3.9943,-4.0003,-3.992,-3.9832,-3.9916,-3.9758,-3.9665,0.0,0.0,-3.9857,-3.9884,-3.9764,-3.9757,-3.9973,-3.9952,-3.9777,0.0,0.0,0.0,0.0,0.0,0.0,-4.0188,0.0,-4.0109,-4.0109,-3.9891,-3.977,-3.9791,-3.9823,-3.984,-3.984,-3.984,-3.9819,-3.9548,-1.8669,-1.415,-2.3909,-1.3438,-0.8277,-0.7575,-0.7849,-0.1645,0.8628,0.8352,1.4299,2.37,2.419,2.4378,2.4554,2.498,2.5229,2.5441,0.0,0.0,0.0,0.0,0.0,0.0,0.0,0.0,0.0,0.0,0.0,0.0,0.0,0.0,0.0,0.0,0.0,0.0,-0.7865,-0.7245,-0.6607,-0.6109,-0.5401,-0.5166,-0.5389,-0.5296,-0.5364,-0.5611,-0.4772,-0.3782,-0.2781,-0.2203,-0.2146,-0.2415,-0.0945,0.0685,0.2303,0.3881,0.5793,0.801,0.9531,1.0845,1.2063,1.4155,1.4243,1.3542,1.4895,1.0966,0.4869,0.2872,0.0,0.0,0.0,-2.4395,-2.6453,-3.6442,-3.7782,-3.6628,-3.9323,-4.0081,-4.0101,-4.0101,-4.0248,-4.0392,-4.0248,-4.0204,-4.0183,-4.0262,-4.0106,-3.9991,0.0,0.0,0.0,-3.9532,-3.9474,0.0,-3.8838,-3.8695,0.0,-3.8534,0.0,-3.7932,-3.5895,-3.7355,0.0,0.0,-3.7767,-3.8697,-3.8853,-3.9325,-3.9585,-3.9577,-4.0063,-4.0353,-4.0399,-4.0192,-4.0004,-3.974,-3.4129,-3.2897,-3.5528,-3.2776,-2.7068,-1.9385,-1.9556,-1.3328,-0.3104,-0.318,-0.1466,0.1851,0.8707,1.2142,1.4038,2.0966,2.3868,2.4552,0.0,0.0,0.0,0.0,0.0,0.0,0.0,0.0,0.0,0.0,0.0,0.0,0.0,0.0,0.0,0.0,0.0,0.0,0.0,-0.833,-0.7935,-0.7405,-0.6965,-0.6857,-0.7039,-0.6828,-0.6912,-0.7243,-0.6417,-0.5481,-0.4486,-0.3916,-0.3336,-0.2811,-0.127,0.0539,0.2534,0.4694,0.6684,0.0,0.0,1.1657,1.2834,1.4331,1.4322,1.3615,1.4689,0.7325,0.0,0.0,0.0,-2.154,-2.7876,-3.0072,-3.1524,-3.7581,0.0,-3.9702,-3.9943,-4.0157,-4.0339,-4.0372,-4.0492,-4.0573,-4.0485,-4.0405,-4.037,-4.0431,-4.027,0.0,-4.0309,0.0,0.0,0.0,0.0,0.0,-3.8182,-3.722,-3.6435,0.0,-3.5312,0.0,-3.2379,-3.3485,-3.3781,0.0,-3.6004,-3.8272,-3.8389,-3.8785,-3.9023,-3.9018,-3.4894,-3.2849,-3.3219,-3.766,-3.9972,-4.0157,-4.012,-4.0101,-4.0101,-4.0157,-3.6788,-3.0964,0.0,-2.4829,-1.459,-1.4636,-1.1716,-0.6737,-0.1576,0.109,0.3121,1.232,1.6014,1.7201,0.0,0.0,0.0,0.0,0.0,0.0,0.0,0.0,0.0,0.0,0.0,0.0,0.0,0.0,0.0,0.0,0.0,0.0,0.0,0.0,-0.9309,-0.8935,-0.8903,-0.8945,-0.8978,-0.8643,-0.8599,-0.8859,-0.8008,-0.7433,-0.6979,-0.5948,-0.4713,-0.3201,-0.1263,0.093,0.3272,0.6056,0.7488,0.823,1.0886,1.1585,1.1182,0.0,1.3615,1.253,1.1504,0.2326,0.0,0.0,-2.7971,-3.4661,-3.6232,-3.7221,-3.7947,-3.8858,-3.9445,-3.9819,-3.9882,-4.0194,-4.0504,-4.0558,-4.0558,-4.0588,-4.066,-4.0545,-4.0446,-4.0519,0.0,-4.0339,-4.05,-3.9777,-3.9062,-3.8792,0.0,-3.7223,-3.6855,-3.5052,-3.3442,-3.2623,-3.0736,-2.9104,-2.7939,-2.7795,-2.7685,-2.7489,-3.2985,-3.6576,-3.7128,-3.7241,-3.7491,-3.7911,-2.9384,-2.5097,-2.5719,-3.4763,-3.9644,-4.0311,-4.032,-4.0345,-4.0384,-4.0457,-4.0389,-4.0251,-4.03,0.0,-2.5974,-2.6034,-2.0366,-1.158,-1.0353,-0.96,-0.8133,0.1089,0.5297,0.781,0.0,0.0,0.0,0.0,0.0,0.0,0.0,0.0,0.0,0.0,-0.715,-0.7735,0.0,0.0,0.0,0.0,0.0,0.0,0.0,0.0,0.0,-1.0506,-1.051,-1.0617,-1.0847,-1.074,-1.0713,-1.0753,-1.0171,-0.965,-0.9229,-0.843,-0.7872,-0.7335,-0.3878,-0.1243,0.091,0.4879,0.4652,0.2224,0.8787,0.4957,-0.3295,0.9509,0.0,0.0,-0.3008,0.0,0.0,0.0,-3.1652,-3.3436,-3.5322,-3.62,-3.6879,-3.8719,-3.9515,-3.9882,-4.0266,-4.0438,-4.0473,-4.037,-4.0353,-4.0386,-4.0504,-4.0514,0.0,0.0,-4.0723,-4.0699,-4.0746,-4.0034,-3.8753,-3.6725,0.0,0.0,0.0,0.0,-2.9644,0.0,0.0,0.0,0.0,0.0,0.0,0.0,0.0,-2.7084,-3.0521,-3.1238,-3.2732,-3.5354,-3.5589,-3.5717,-3.5788,-3.75,-3.8454,-3.8712,-3.9256,-3.9563,-3.9689,-4.0246,-4.0473,-4.0457,-4.0515,0.0,-3.7432,-3.739,-3.6141,-3.3495,-2.5668,-2.1729,-1.9369,-1.0164,-0.1555,0.5962,0.0,0.0,0.0,0.0,0.0,0.0,0.0,0.0,-0.5365,-0.6808,-0.7198,-0.7766,-0.8873,-0.8899,0.0,0.0,0.0,0.0,0.0,0.0,0.0,0.0,0.0,0.0,-1.117,-1.1222,0.0,0.0,0.0,-1.0502,-1.0207,-0.9672,-0.9688,-1.0058,-0.7783,-0.483,-0.1549,-0.1832,0.087,0.5136,0.2336,-0.0496,-0.2166,0.0,0.0,0.0,0.0,0.0,0.0,0.0,-3.0093,-2.7811,-3.3166,-3.5472,-3.6481,-3.7886,-3.9008,-3.9819,-3.9943,-4.0177,-4.0358,-4.0194,-4.0176,-4.0212,-4.0321,0.0,0.0,0.0,-4.0723,-4.0792,-4.079,0.0,0.0,0.0,0.0,0.0,0.0,0.0,0.0,0.0,0.0,0.0,0.0,0.0,0.0,0.0,0.0,-2.0291,-2.5568,-2.9395,-2.8633,-2.2499,-3.2056,-3.4817,-2.9656,-3.4937,-3.8051,-3.8882,-3.9168,-3.9563,-4.0088,-4.0359,-4.0489,-4.0504,-4.0569,0.0,-4.0466,-4.0454,-4.0304,-3.9618,-3.5051,-3.2683,-3.068,-2.1442,-1.1933,-0.2862,0.0,0.0,0.0,0.0,0.0,0.0,0.0,-0.4399,-0.515,-0.671,-0.7199,-0.7832,-0.8952,-0.9442,-0.9805,0.0,0.0,0.0,0.0,0.0,0.0,0.0,0.0,0.0,0.0,0.0,0.0,0.0,0.0,0.0,0.0,0.0,0.0,0.0,0.0,-0.7703,-0.5369,-0.6907,-0.3006,0.0,0.0,-0.4565,0.0,0.0,0.0,0.0,0.0,0.0,0.0,0.0,-2.7874,-2.2943,-3.1304,-3.4975,-3.6387,-3.7448,-3.87,-3.9705,-3.9585,-3.9857,-4.0158,-3.9982,-3.9981,-4.0041,-4.012,-4.0286,0.0,0.0,-3.7089,-3.6524,-3.4153,0.0,-1.9309,0.0,0.0,0.0,0.0,0.0,0.0,0.0,0.0,0.0,0.0,0.0,0.0,0.0,0.0,0.0,-2.0952,-2.6726,-2.4921,-1.4259,-2.7956,-3.1774,-2.4011,-3.2569,-3.7504,-3.8665,-3.8931,-3.9411,-4.0129,-4.0378,-4.0523,-4.0523,-4.0573,0.0,0.0,-4.0579,-4.0422,-4.0005,-3.8188,-3.7287,-3.5912,-2.6909,-1.7411,-0.7838,0.0,0.0,0.0,0.0,0.0,0.0,0.0,-0.4648,-0.5567,-0.6067,-0.7301,-0.8261,-0.8697,-0.9345,-0.9964,0.0,0.0,0.0,0.0,0.0,0.0,0.0,0.0,0.0,0.0,0.0,0.0,0.0,0.0,0.0,0.0,0.0,0.0,0.0,0.0,0.0,0.0,-0.4036,0.0,0.0,0.0,0.0,0.0,0.0,0.0,0.0,0.0,0.0,0.0,0.0,0.0,-2.3199,-3.0928,-3.467,-3.6554,-3.834,0.0,0.0,-3.9728,-3.9797,-3.9838,-3.9743,-3.9721,-3.9785,-3.9914,0.0,0.0,-2.7477,-2.5605,-2.2671,-1.2586,-0.9213,-0.7438,0.0,0.0,-0.8926,0.0,0.0,0.0,0.0,0.0,0.0,0.0,0.0,0.0,0.0,0.0,0.0,-1.585,-1.901,-2.1632,-2.3961,-2.9799,-3.2399,-3.1498,-3.4459,-3.6084,-3.6326,-3.7596,-3.8325,-3.8556,-3.9954,-4.0588,-4.0588,-4.0607,0.0,0.0,-4.0302,-4.0158,-3.9431,-3.1683,-2.8627,-2.7599,-1.9459,-0.9122,0.1057,0.0,0.0,0.0,0.0,0.0,0.0,-0.37,-0.4439,-0.526,-0.6076,-0.7199,-0.8132,-0.8684,-0.9492,-1.0228,0.0,0.0,0.0,0.0,0.0,0.0,0.0,0.0,0.0,0.0,0.0,0.0,0.0,0.0,0.0,0.0,0.0,0.0,0.0,0.0,0.0,0.0,0.0,0.0,0.0,0.0,0.0,0.0,0.0,0.0,0.0,0.0,0.0,0.0,0.0,0.0,0.0,-3.1993,-3.5413,0.0,0.0,-3.8192,-3.9189,-3.9099,-3.9238,-3.9408,-3.9216,-3.9401,-3.9637,-3.9703,0.0,-2.8976,-2.4616,-1.8676,-1.291,-0.8504,-0.1957,0.344,0.5576,0.6796,0.0,0.0,0.0,0.0,0.0,0.0,0.0,0.0,0.0,0.0,0.0,0.0,0.0,-0.7887,-1.5229,-1.8919,-1.8028,-2.6078,-3.1104,-3.2491,-3.3321,-3.4711,-3.6666,-3.7128,-3.7924,-3.8987,-3.9598,-4.0148,-4.0612,-4.0612,0.0,0.0,-4.0406,-4.025,-3.9374,-3.0954,-2.7604,-2.6309,-1.6729,-0.6685,0.2348,0.0,0.0,0.0,0.0,0.0,-0.3132,-0.3792,-0.4399,-0.5168,-0.6161,-0.7217,-0.8154,-0.8733,-0.9631,-1.0404,-1.0976,0.0,0.0,0.0,0.0,0.0,0.0,0.0,0.0,0.0,0.0,0.0,-1.3711,0.0,0.0,0.0,0.0,0.0,0.0,0.0,0.0,0.0,0.0,0.0,0.0,0.0,0.0,0.0,0.0,0.0,0.0,0.0,0.0,0.0,0.0,0.0,0.0,0.0,0.0,0.0,0.0,-3.563,-3.7709,-3.2192,-3.4813,-3.7616,-3.1637,-3.4885,-3.7888,0.0,0.0,-2.1755,-1.5264,-0.7426,-0.0967,0.1579,0.9572,1.615,1.7139,1.9036,1.9128,1.5512,0.0,0.0,0.0,0.0,0.0,0.0,0.0,0.0,0.0,0.0,0.0,-0.131,-0.9792,-1.4343,-1.3874,-2.1879,-2.7875,-3.1459,-3.2092,-3.3852,-3.6782,-3.6843,-3.7648,-3.9029,-3.9285,-3.9843,-4.0621,-4.0621,0.0,0.0,-4.0504,-4.0321,-3.9144,-2.8431,-2.3666,-2.1332,-0.901,0.0587,0.7734,0.0,0.0,0.0,0.0,0.0,0.0,0.0,-0.4691,-0.554,-0.6204,-0.7523,-0.8488,-0.8788,-0.9697,-1.041,-1.0772,0.0,0.0,0.0,0.0,0.0,0.0,0.0,0.0,0.0,0.0,-1.463,-1.4982,-1.4846,-1.5024,0.0,0.0,0.0,0.0,0.0,0.0,0.0,0.0,0.0,0.0,0.0,0.0,0.0,0.0,0.0,0.0,0.0,0.0,0.0,0.0,0.0,0.0,0.0,0.0,0.0,0.0,-3.1183,-3.4809,-1.7,-2.5176,-3.4064,-1.4649,-2.478,-3.3851,0.0,0.0,-1.7457,0.4311,1.0643,1.4881,2.3396,2.8966,3.1476,2.91,2.7972,0.0,2.1525,0.0,0.0,0.0,0.0,0.0,0.0,0.0,0.0,0.0,0.0,0.0,0.2872,-0.1135,-0.722,-1.5287,-1.8073,-2.2521,-2.9068,-3.1304,-3.3616,-3.6028,-3.6627,-3.7324,-3.8131,-3.9004,-3.9876,0.0,0.0,0.0,0.0,-4.0519,-4.0321,-3.8586,-2.2294,-1.4202,-0.9804,0.6294,1.5572,2.0166,0.0,0.0,0.0,0.0,0.0,0.0,0.0,-0.4691,-0.554,-0.6204,-0.7523,-0.8529,-0.8886,-0.9466,-1.0134,-1.093,0.0,0.0,0.0,0.0,0.0,0.0,0.0,0.0,0.0,0.0,-1.4949,-1.5129,-1.6145,-1.6271,-1.5562,-1.8723,-1.9713,0.0,0.0,0.0,0.0,0.0,0.0,0.0,0.0,0.0,0.0,0.0,0.0,0.0,0.0,0.0,0.0,0.0,0.0,0.0,0.0,0.0,0.0,-0.693,-1.2795,0.0,-1.3081,-2.0307,-2.6218,-1.254,-1.8865,-2.4677,-1.0343,0.0,0.1175,0.984,1.8113,2.5117,2.9475,3.1517,3.2813,3.3687,3.3524,0.0,0.0,0.0,0.0,0.0,0.0,0.0,0.0,0.0,0.0,0.0,0.0,0.0,0.2875,0.1692,-0.157,-0.7059,-1.0713,-1.6512,-2.4777,-2.544,-2.9144,-3.6019,-3.6022,-3.647,-3.7292,-3.7589,-3.8491,0.0,0.0,0.0,0.0,-3.234,-3.3496,-3.7646,-1.1891,-0.5821,-0.9193,1.0532,1.8857,2.0549,0.0,0.0,0.0,0.0,0.0,0.0,0.0,-0.4652,-0.5422,-0.6416,-0.7474,-0.8357,-0.8935,-0.9359,-0.9928,-1.0735,0.0,0.0,0.0,0.0,0.0,0.0,0.0,0.0,0.0,-1.5443,-1.586,-1.6262,-1.7369,-1.7651,-1.7197,-1.9714,-2.0348,-1.9466,-2.236,0.0,0.0,0.0,0.0,0.0,0.0,0.0,-0.6003,0.0,0.0,0.0,0.0,0.0,0.0,0.0,0.0,0.0,0.0,0.0,0.0,0.0,0.3135,-0.2565,0.0,-1.5133,-2.0859,-0.6678,-1.023,0.0,0.0,0.79,1.2081,1.7768,2.5762,3.1934,3.2469,3.4039,3.5397,3.597,3.6036,0.0,0.0,0.0,0.0,0.0,0.0,0.0,0.0,0.0,0.0,0.0,0.0,0.0,0.2875,0.2875,0.1692,-0.0876,-0.4974,-1.1021,-1.9142,-1.7597,-2.0091,-2.6521,-2.4851,-2.6596,-3.1165,-3.1165,-3.4199,0.0,0.0,0.0,0.0,-2.8646,-2.7977,-3.1492,-0.5593,0.1017,-0.2063,1.4277,2.0959,2.203,0.0,0.0,0.0,0.0,0.0,0.0,0.0,0.0,-0.5173,-0.6761,-0.7349,-0.8013,-0.8895,-0.9319,-0.9746,-1.0273,0.0,0.0,0.0,0.0,0.0,0.0,0.0,0.0,0.0,-1.6502,-1.7216,-1.7988,-1.8422,-1.908,-1.9934,-2.0283,-2.0731,-2.1262,-2.2286,0.0,0.0,0.0,0.0,0.0,0.0,0.0,0.0,0.0,0.0,0.0,0.0,0.0,0.0,0.0,0.0,0.0,0.0,0.0,0.0,0.0,0.0,0.0,0.0,-0.9225,-1.6185,0.0,0.0,0.0,0.0,0.0,0.0,2.7313,3.3089,3.5626,3.3428,3.668,3.8959,3.6632,0.0,0.0,0.0,0.0,0.0,0.0,0.0,0.0,0.0,0.0,0.0,0.0,0.0,0.0,0.3053,0.2963,0.2875,0.2963,-0.0788,-0.5998,-1.2628,-0.8796,-0.8223,-1.0847,-0.6971,-1.0904,-2.1608,-2.1606,-2.7693,0.0,0.0,0.0,0.0,-2.6437,-2.2205,-2.0856,-0.1721,0.6852,0.9439,1.7587,2.2115,2.42,0.0,0.0,0.0,0.0,0.0,0.0,0.0,0.0,0.0,0.0,-0.6888,-0.7641,-0.8854,-0.9088,-0.9478,0.0,0.0,0.0,0.0,0.0,0.0,0.0,0.0,0.0,0.0,-1.6909,-1.7503,-1.7988,-1.8717,-1.9449,-2.0212,-2.0862,-2.1276,-2.1462,-2.2529,-2.3954,0.0,0.0,0.0,0.0,0.0,0.0,0.0,0.0,0.0,0.0,1.7226,1.7967,0.0,0.0,0.0,0.0,0.0,0.0,0.0,0.0,1.2009,0.6898,0.3985,0.0,0.1289,1.5489,1.2131,0.913,0.0,0.0,0.0,0.0,0.0,0.0,0.0,0.0,0.0,0.0,0.0,0.0,0.0,0.0,0.0,0.0,0.0,0.0,0.0,0.0,0.0,0.0,0.0,0.3676,0.3942,0.332,0.3053,0.3409,0.2139,-0.1701,-0.8308,-0.4521,-0.5375,-1.0847,-0.701,-1.0629,-2.0703,-2.0722,-2.259,0.0,0.0,0.0,-1.4615,-0.3527,-0.3937,-0.9398,1.1764,1.5173,0.9513,1.9565,2.3683,2.42,0.0,0.0,0.0,0.0,0.0,0.0,0.0,0.0,0.0,0.0,0.0,0.0,0.0,0.0,0.0,0.0,0.0,0.0,0.0,0.0,0.0,0.0,0.0,0.0,-1.6795,-1.7352,-1.7922,-1.85,-1.8983,-1.9609,-2.0361,-2.1087,-2.1386,-2.1401,-2.2485,-2.4035,0.0,0.0,0.0,0.0,-0.9031,0.0,0.0,0.0,0.0,0.0,1.774,1.8373,0.0,1.9907,1.9727,1.9159,0.0,0.0,0.0,0.0,1.4923,1.1725,1.1891,0.9215,0.8059,1.4863,1.7135,1.9605,2.6795,0.0,0.0,0.0,0.0,0.0,0.0,0.0,0.0,0.0,0.0,0.0,0.0,0.0,0.0,0.0,0.0,0.0,0.0,0.0,0.0,0.0,0.0,0.43,0.43,0.3587,0.332,0.3587,0.3142,0.1226,-0.2333,0.1591,0.258,0.0622,0.4633,-0.0447,-1.3216,-0.8531,-1.1996,0.0,0.0,0.0,-0.6842,0.4222,0.5255,0.1553,1.8294,2.1123,1.6505,2.2138,2.42,2.42,0.0,0.0,0.0,0.0,0.0,0.0,0.0,0.0,0.0,0.0,0.0,0.0,0.0,0.0,0.0,0.0,0.0,0.0,0.0,0.0,0.0,0.0,0.0,-1.6989,-1.7227,-1.7611,-1.8214,-1.9011,-1.9072,-1.9536,-2.0475,-2.1071,-2.1401,-2.1538,-2.2432,-2.3892,0.0,0.0,0.0,0.0,-0.7319,0.0,0.0,0.0,0.0,0.0,0.0,0.0,0.0,2.0023,1.9998,1.9695,2.0921,0.0,0.0,0.0,0.0,0.0,2.129,1.6664,1.1593,1.1593,1.9901,2.8326,2.9203,0.0,0.0,0.0,0.0,0.0,0.0,0.0,0.0,0.0,0.0,0.0,0.0,0.0,0.0,0.0,0.0,0.0,0.0,0.0,0.0,0.0,0.0,0.544,0.5085,0.4552,0.4287,0.4376,0.3496,0.3053,0.3142,0.7177,1.0841,1.4148,1.8396,1.2255,-0.2483,0.6165,0.0256,-1.6355,0.0,0.0,-0.1923,0.7472,1.132,1.2146,2.1235,2.479,2.4646,2.4345,2.42,2.4261,0.0,0.0,0.0,0.0,0.0,0.0,0.0,0.0,0.0,0.0,0.0,0.0,0.0,0.0,0.0,0.0,0.0,0.0,0.0,0.0,0.0,0.0,-1.6225,-1.6778,-1.6484,-1.7131,-1.7868,-1.8664,-1.8525,-1.9251,-2.0844,-2.0975,-2.1698,-2.2824,-2.2859,-2.3885,-2.5209,-1.8842,-1.2719,-0.6644,0.0383,0.0,0.0,0.0,0.0,0.0,0.0,0.0,0.0,2.1445,2.1788,2.1726,2.1987,0.0,0.0,0.0,0.0,0.0,2.1876,2.217,2.2834,2.2834,2.5871,2.9261,3.086,0.0,0.0,0.0,0.0,0.0,0.0,0.0,0.0,0.0,0.0,0.0,0.0,0.0,0.0,0.0,0.0,0.0,0.0,0.0,0.0,0.0,0.0,0.0,0.8624,0.782,0.7469,0.7918,0.5075,0.3676,0.4121,0.7501,1.0841,1.4148,1.8396,1.5967,0.7832,0.9371,0.8332,0.531,0.0,1.2386,2.0401,2.2083,2.2605,2.2522,2.4141,2.4574,2.4273,2.4189,2.42,2.4383,0.0,0.0,0.0,0.0,0.0,0.0,0.0,0.0,0.0,0.0,0.0,0.0,0.0,0.0,0.0,0.0,0.0,0.0,0.0,0.0,0.0,-1.44,-1.5808,-1.6595,-1.6637,-1.7323,-1.7882,-1.8291,-1.8461,-1.9229,-2.0548,-2.1213,-2.1965,-2.2738,-2.3293,-2.4181,-2.478,-1.7927,-1.1376,-0.4987,0.0,0.0,0.0,0.0,0.0,0.0,0.0,0.0,0.0,0.0,2.2123,2.2197,2.2197,0.0,0.0,0.0,0.0,0.0,2.2966,2.4001,2.5312,2.5312,2.6841,2.8731,0.0,0.0,0.0,0.0,0.0,0.0,0.0,0.0,0.0,0.0,0.0,0.0,0.0,0.0,0.0,0.0,0.0,0.0,0.0,0.0,0.0,0.0,0.0,0.0,0.7534,0.9271,0.9843,0.8776,0.6702,0.5662,0.5926,0.6346,0.8356,1.1857,1.4048,1.1494,0.5055,1.2361,1.2667,0.7847,0.0,2.0985,2.5312,2.5312,2.5182,2.4921,2.4861,2.4646,2.4467,2.532,2.5677,2.5928,0.0,0.0,0.0,0.0,0.0,0.0,0.0,0.0,0.0,0.0,0.0,0.0,0.0,0.0,0.0,0.0,0.0,0.0,0.0,0.0,-1.3805,-1.4003,-1.5365,-1.6281,-1.662,-1.724,-1.7639,-1.7894,-1.8291,-1.9103,-2.0364,-2.1535,-2.2243,-2.2521,-2.3596,-2.3476,-2.2061,-1.5624,-0.9157,-0.2574,0.0,0.0,0.0,0.0,0.0,0.0,0.0,0.0,0.0,0.0,0.0,0.0,0.0,0.0,0.0,2.2247,2.2943,2.3773,2.3773,2.4518,2.5312,2.5312,0.0,0.0,0.0,0.0,0.0,0.0,0.0,0.0,0.0,0.0,0.0,0.0,0.0,0.0,0.0,0.0,0.0,0.0,0.0,0.0,0.0,0.0,0.0,0.0,0.0,0.0,0.7285,1.0974,1.2128,0.979,0.8402,0.7711,0.7797,0.5598,0.6273,0.9733,1.0319,0.8225,0.424,1.5336,1.6147,0.9366,2.0456,2.5241,2.5241,2.5182,2.5111,2.5028,2.5436,2.5753,2.6088,2.7339,2.7611,2.7691,0.0,0.0,0.0,0.0,0.0,0.0,0.0,0.0,0.0,0.0,0.0,0.0,0.0,0.0,0.0,0.0,0.0,0.0,0.0,0.0,-1.3542,-1.4247,-1.5141,-1.5744,-1.5881,-1.6238,-1.6769,-1.7558,-1.7585,-1.8655,-2.0684,-2.184,-2.2483,-2.272,-2.3623,-2.0757,-1.4812,-0.7949,-0.1426,0.4927,1.2768,0.0,0.0,0.0,0.0,0.0,0.0,0.0,0.0,0.0,0.0,0.0,0.0,0.0,2.3382,2.2469,2.2943,2.3773,2.3773,2.4518,2.5312,2.5312,2.8793,0.0,2.9532,3.0163,0.0,2.8547,0.0,0.0,0.0,0.0,0.0,0.0,0.0,0.0,0.0,0.0,0.0,0.0,0.0,0.0,0.0,0.0,0.0,0.0,0.0,0.0,1.1442,1.3944,1.4599,1.2906,1.0123,0.8776,0.9216,0.6395,0.6428,0.9244,1.0156,1.1928,1.4544,1.8574,2.0008,1.9524,2.341,2.5111,2.5123,2.4921,2.4718,2.4779,2.705,2.8862,3.0167,3.0279,2.9594,2.8932,0.0,0.0,0.0,0.0,0.0,0.0,0.0,0.0,0.0,0.0,0.0,0.0,0.0,0.0,0.0,0.0,0.0,0.0,0.0,0.0,-1.3092,-1.3899,-1.4789,-1.5457,-1.5792,-1.6392,-1.6892,-1.7297,-1.8655,-1.9773,-2.0701,-2.1878,-2.2664,-2.3176,-2.4127,-2.0974,-1.4498,-0.7805,-0.1126,0.5596,1.3589,1.6965,0.0,0.0,0.0,0.0,0.0,0.0,0.0,0.0,2.3572,2.3839,2.3027,2.317,2.3487,2.2531,2.2943,2.4054,2.5089,2.5315,2.5908,2.8591,3.0907,0.0,0.0,2.5235,2.6481,2.5428,2.2651,0.0,0.0,0.0,0.0,0.0,0.0,0.0,0.0,0.0,0.0,0.0,0.0,0.0,0.0,0.0,0.0,0.0,0.0,0.0,0.0,1.4925,1.6327,1.4771,1.1826,1.0549,1.1297,0.7075,0.5493,0.6593,0.7278,0.8206,0.9573,1.4908,1.7348,1.7655,2.2904,2.5182,2.5123,2.5052,2.4778,2.4707,2.7075,2.9377,3.1446,3.2481,3.2289,3.172,0.0,0.0,0.0,0.0,0.0,0.0,0.0,0.0,0.0,0.0,0.0,0.0,0.0,0.0,0.0,0.0,0.0,0.0,-1.0846,-1.1692,-1.2609,-1.3653,-1.4433,-1.5142,-1.5792,-1.6392,-1.682,-1.7115,-1.9141,-2.0335,-2.0716,-2.2052,-2.2943,-2.3473,-2.4756,-2.0309,-1.153,-0.7301,-0.0096,0.8931,1.4668,1.7134,0.0,0.0,0.0,0.0,0.0,0.0,0.0,0.0,2.3981,2.46,2.382,2.4129,2.4533,2.3638,2.3841,2.4578,2.5853,2.6269,2.6921,2.9049,0.0,0.0,2.0613,2.1273,2.2868,2.0197,1.8549,0.0,0.0,0.0,0.0,0.0,0.0,0.0,0.0,0.0,0.0,0.0,0.0,0.0,0.0,0.0,0.0,0.0,0.0,0.0,0.0,1.5313,1.6968,1.5628,1.3682,1.2571,1.2624,0.928,0.7327,0.6806,0.7926,0.7432,0.5903,1.143,1.4504,1.5805,2.1278,2.4637,2.6245,2.6168,2.6889,2.8167,2.9688,3.1678,3.3851,3.5074,3.483,3.4096,0.0,0.0,0.0,0.0,0.0,0.0,0.0,0.0,0.0,0.0,0.0,0.0,0.0,0.0,0.0,0.0,0.0,0.0,-1.0846,-1.1427,-1.2286,-1.3653,-1.4097,-1.4766,-1.5792,-1.6151,-1.6497,-1.6918,-1.8722,-1.9993,-2.0732,-2.2488,-2.3354,-2.349,-2.5419,-1.8183,-0.4572,-0.5341,0.2834,1.6368,1.7101,1.7611,1.8007,0.0,0.0,0.0,0.0,0.0,0.0,0.0,2.4684,2.5686,2.491,2.5685,2.6666,2.617,2.5646,2.5418,2.5927,2.7391,2.827,0.0,0.0,0.0,1.7271,1.9102,2.0249,1.2203,0.0,0.0,0.0,0.0,0.0,0.0,0.0,0.0,0.0,0.0,0.0,0.0,0.0,0.0,0.0,0.0,0.0,0.0,0.0,0.0,0.0,1.5343,1.6316,1.5628,1.5628,1.486,1.3246,1.324,1.2368,1.0636,1.3118,1.1253,0.5852,0.9126,1.2432,1.5673,1.878,2.3431,2.8771,2.8593,3.1362,3.567,3.5474,3.6523,3.8107,3.8107,3.7033,3.5736,0.0,0.0,0.0,0.0,0.0,0.0,0.0,0.0,0.0,0.0,0.0,0.0,0.0,0.0,0.0,0.0,0.0,0.0,-1.0964,-1.1175,-1.199,-1.3643,-1.3794,-1.4675,-1.6423,-1.7118,-1.7612,-1.7868,-1.931,-2.0212,-2.0648,-2.2274,-2.3388,-2.4068,-2.512,-1.8033,-0.5236,-0.4821,0.3556,1.6616,1.7611,1.8093,1.8298,0.0,0.0,0.0,0.0,0.0,0.0,0.0,0.0,0.0,2.5078,2.5713,2.6538,2.604,2.6414,2.747,2.9612,2.9178,0.0,3.1451,0.0,0.0,0.0,1.7367,0.0,0.0,0.0,0.0,0.0,0.0,0.0,0.0,0.0,0.0,0.0,0.0,0.0,0.0,0.0,0.0,0.0,0.0,0.0,0.0,0.0,0.0,0.0,1.4461,1.5365,1.6316,1.5277,1.4738,1.486,1.3751,1.2977,1.2457,1.3201,1.2027,0.9253,1.2555,1.4601,1.5766,2.0703,2.5114,2.8907,3.0464,3.2934,3.568,3.5629,3.6906,3.8748,3.8748,3.8023,3.7124,0.0,0.0,0.0,0.0,0.0,0.0,0.0,0.0,0.0,0.0,0.0,0.0,0.0,0.0,0.0,0.0,0.0,0.0,0.0,-1.115,-1.2169,-1.3396,-1.3982,-1.5084,-1.685,-1.7707,-1.8344,-1.8717,-1.95,-2.0242,-2.0952,-2.2443,-2.3718,-2.4743,-2.543,-1.8252,-0.555,-0.4657,0.3906,1.7011,1.7995,1.86,1.9102,0.0,0.0,0.0,0.0,0.0,0.0,0.0,0.0,0.0,2.5645,2.6409,2.7318,2.6884,2.7152,2.7911,2.9485,2.9015,0.0,0.0,0.0,0.0,0.0,0.0,0.0,0.0,0.0,0.0,0.0,0.0,0.0,0.0,0.0,0.0,0.0,0.0,0.0,0.0,0.0,0.0,0.0,0.0,0.0,0.0,0.0,0.0,0.0,1.388,1.4713,1.6108,1.5576,1.5209,1.5076,1.5457,1.5249,1.4625,1.5944,1.5713,1.4061,1.4686,1.5198,1.5862,2.2614,2.7399,3.0638,3.3939,3.6067,3.7281,3.7206,3.7916,3.8979,3.867,3.819,3.7701,0.0,0.0,0.0,0.0,0.0,0.0,0.0,0.0,0.0,0.0,0.0,0.0,0.0,0.0,0.0,0.0,0.0,0.0,0.0,0.0,-1.2444,-1.2946,-1.4446,-1.5888,-1.7199,-1.7988,-1.8731,-1.9406,-1.9406,-2.0098,-2.145,-2.2852,-2.4114,-2.5247,-2.534,-1.799,-0.5355,-0.3936,0.4729,1.7556,1.8356,1.9282,2.0244,2.0917,0.0,0.0,0.0,0.0,0.0,0.0,0.0,0.0,2.6336,2.75,2.8652,2.8369,2.7948,2.7523,2.7338,0.0,0.0,0.0,0.0,0.0,0.0,0.0,0.0,0.0,0.0,0.0,0.0,0.0,0.0,0.0,0.0,0.0,0.0,0.0,0.0,0.0,0.0,0.0,0.0,0.0,0.0,0.0,0.0,0.0,0.0,1.3366,1.4294,1.5184,1.6108,1.5921,1.4539,1.7624,1.847,1.7086,2.0091,2.0841,1.9362,1.6198,1.53,1.6753,2.4853,3.017,3.3512,3.8121,3.9897,3.9672,3.9502,3.9256,3.896,3.8282,3.7938,3.7839,0.0,0.0,0.0,0.0,0.0,0.0,0.0,0.0,0.0,0.0,0.0,0.0,0.0,0.0,0.0,0.0,0.0,0.0,0.0,0.0,-1.1199,-1.2015,-1.4823,-1.6705,-1.7435,-1.8422,-1.9101,-1.9413,-1.9545,-2.0294,-2.1608,-2.2887,-2.3909,-2.4476,-1.9879,-1.2813,-0.3931,0.2179,1.0041,1.8422,1.9486,2.0163,2.0661,2.147,2.2269,0.0,0.0,0.0,0.0,0.0,0.0,0.0,2.596,2.7129,2.8731,2.9563,2.948,2.9342,3.0818,2.9362,0.0,0.0,0.0,0.0,0.0,0.0,0.0,0.0,0.0,0.0,0.0,0.0,0.0,0.0,0.0,0.0,0.0,0.0,0.0,0.0,0.0,0.0,0.0,0.0,0.0,0.0,0.0,0.0,1.1574,1.1752,1.2687,1.4294,1.5191,1.5764,1.6175,1.7585,1.8461,0.0,1.9502,2.0343,2.1187,1.9071,1.9697,2.2774,2.9006,3.3298,3.6011,3.8994,4.0027,3.9687,3.9585,3.9435,3.9219,3.899,3.8876,3.8789,0.0,0.0,0.0,0.0,0.0,0.0,0.0,0.0,0.0,0.0,0.0,0.0,0.0,0.0,0.0,0.0,0.0,0.0,0.0,0.0,-0.9832,-1.0739,-1.415,-1.6103,-1.6389,-1.87,-1.9969,-2.0174,-2.062,-2.1288,-2.2133,-1.9849,-2.1105,-2.4794,-1.4797,-0.8135,-0.3894,0.4246,1.1893,1.8707,2.0269,2.1094,2.1536,2.2275,2.3033,2.3642,2.3642,0.0,0.0,0.0,0.0,0.0,0.0,0.0,2.8888,2.9446,2.9987,3.0351,0.0,0.0,0.0,0.0,0.0,0.0,0.0,0.0,0.0,0.0,0.0,0.0,0.0,0.0,0.0,0.0,0.0,0.0,0.0,0.0,0.0,0.0,0.0,0.0,0.0,0.0,0.0,0.0,0.0,1.0636,1.0636,1.1068,1.1752,1.2687,1.4035,1.4949,1.5462,1.669,1.7594,1.8078,1.8895,2.0235,2.1918,2.0148,2.1136,2.4505,2.7613,3.1197,3.5107,3.7608,3.9108,3.9823,3.9653,3.9549,3.938,3.884,3.8849,3.9055,0.0,0.0,0.0,0.0,0.0,0.0,0.0,0.0,0.0,0.0,0.0,0.0,0.0,0.0,0.0,0.0,0.0,0.0,0.0,0.0,0.0,-0.953,-1.311,-1.5108,-1.5191,-1.8823,-2.0861,-2.1199,-2.1937,-2.2625,-2.3155,-1.8057,-1.9319,-2.5285,-1.1122,-0.4692,-0.3957,0.5756,1.3323,1.8896,2.0775,2.1838,2.238,2.293,2.3508,2.3995,2.3995,2.3995,2.3995,2.4054,0.0,0.0,0.0,0.0,2.8982,2.9229,3.0123,3.0651,0.0,0.0,2.5744,0.0,0.0,0.0,0.0,0.0,0.0,0.0,0.0,0.0,0.0,0.0,0.0,0.0,0.0,0.0,0.0,0.0,0.0,0.0,0.0,0.0,0.0,0.0,0.0,0.0,0.0,1.0038,1.0038,1.0636,1.1154,1.1327,1.2778,1.3802,1.4139,1.5538,1.637,1.6698,1.8487,2.0157,2.1624,2.0503,2.169,2.4554,2.5218,2.8199,3.278,3.5616,3.7838,3.9407,3.9586,3.9663,3.955,3.8667,3.8652,3.9045,0.0,0.0,0.0,0.0,0.0,0.0,0.0,0.0,0.0,0.0,0.0,0.0,0.0,0.0,0.0,0.0,0.0,0.0,0.0,0.0,0.0,-0.9024,-1.2635,-1.4803,-1.5191,-1.8823,-2.1116,-2.1953,-2.2609,-2.3679,0.0,0.0,-2.4304,-2.4872,-1.1271,-0.4505,-0.2341,1.1341,1.8098,1.975,2.1078,2.1873,2.2372,2.279,2.3148,2.3522,2.3628,2.3569,2.3582,2.3936,2.4878,0.0,0.0,0.0,2.8743,3.0391,3.0258,3.0011,0.0,0.0,0.0,0.0,0.0,0.0,0.0,0.0,0.0,0.0,0.0,0.0,0.0,0.0,0.0,0.0,0.0,0.0,0.0,0.0,0.0,0.0,0.0,0.0,0.0,0.0,0.0,0.0,1.0038,1.0038,1.0038,1.0125,1.0554,1.1241,1.158,1.2431,1.4055,1.43,1.5213,1.6698,1.8487,1.9529,1.9991,2.14,2.304,2.5087,2.7769,2.9457,3.067,3.5016,3.6879,3.7168,3.9108,3.9896,3.9908,3.9673,3.9427,3.9275,0.0,0.0,0.0,0.0,0.0,0.0,0.0,0.0,0.0,0.0,0.0,0.0,0.0,0.0,0.0,0.0,0.0,0.0,0.0,0.0,0.0,-0.5958,-1.0864,-1.3682,-1.3902,-1.934,-2.2417,-2.2841,-2.4065,0.0,0.0,-2.5932,-2.3894,0.0,0.0,0.1754,0.2999,1.4046,1.9127,1.9837,2.1014,2.1922,2.2513,2.2676,2.2884,2.315,2.339,2.3258,2.3053,2.3865,2.4279,2.4657,2.555,0.0,0.0,0.0,3.155,0.0,3.3639,0.0,0.0,0.0,0.0,0.0,0.0,0.0,0.0,0.0,0.0,0.0,0.0,0.0,0.0,0.0,0.0,0.0,0.0,0.0,0.0,0.0,0.0,0.0,0.0,0.0,0.0,0.0,1.1815,1.1488,1.1488,1.198,1.198,1.1322,1.2237,1.325,1.4015,1.4041,1.4963,1.6698,1.7513,1.8559,1.9825,2.1115,2.2616,2.4457,2.6353,2.8249,3.0193,3.3515,3.5616,3.6924,3.912,4.0033,4.0143,3.988,3.9596,3.9301,0.0,0.0,0.0,0.0,0.0,0.0,0.0,0.0,0.0,0.0,0.0,0.0,0.0,0.0,0.0,0.0,0.0,0.0,0.0,0.0,0.0,-0.2223,-0.7234,-1.0083,-1.0162,-1.5828,-1.8903,-1.9171,0.0,0.0,-2.3635,-2.3872,-1.9996,0.0,-0.1155,0.486,0.0,0.0,1.9389,1.9909,2.1049,2.1975,2.2616,2.2457,2.2519,2.2714,2.2969,2.2823,2.2604,2.3556,2.3844,2.4001,2.5549,2.6814,0.0,0.0,0.0,0.0,0.0,0.0,0.0,0.0,0.0,0.0,0.0,0.0,0.0,0.0,0.0,0.0,0.0,0.0,0.0,0.0,0.0,0.0,0.0,0.0,0.0,0.0,0.0,0.0,0.0,0.0,0.0,0.0,1.3171,1.2845,1.2674,1.3328,1.3237,1.2072,1.3393,1.4309,1.4719,1.4935,1.5703,1.7025,1.7342,1.8372,2.0197,2.1104,2.2456,2.4192,2.4933,2.6894,2.9696,3.2302,3.4419,3.63,3.9026,4.0174,4.0264,3.9994,3.9642,3.9275,0.0,0.0,0.0,0.0,0.0,0.0,0.0,0.0,0.0,0.0,0.0,0.0,0.0,0.2159,0.1441,-0.0278,-0.039,-0.0111,0.0497,0.0497,0.0771,0.1482,-0.094,0.0,-0.2645,-0.4967,-0.6631,-0.757,0.0,0.0,-1.7464,-1.6836,-1.2381,-0.4861,-0.4206,0.0105,0.7412,0.0,0.0,0.0,2.14,2.2111,2.2359,2.1937,2.1851,0.0,0.0,2.2099,2.2075,2.309,2.3828,2.4563,2.6226,2.7201,2.8268,0.0,0.0,0.0,0.0,0.0,0.0,0.0,0.0,0.0,0.0,0.0,0.0,0.0,0.0,0.0,0.0,0.0,0.0,0.0,0.0,0.0,0.0,0.0,0.0,0.0,0.0,0.0,0.0,0.0,0.0,0.0,1.3099,1.3099,1.276,1.293,1.3412,1.4122,1.4205,1.5119,1.67,1.7479,1.7836,1.7917,1.8957,2.0041,2.1094,2.2103,2.3537,2.5229,2.5312,2.6476,2.8515,3.1998,3.3448,3.4008,3.8599,4.0344,4.0285,4.0217,3.9772,3.9223,0.0,0.0,0.0,0.0,0.0,0.0,0.0,0.0,0.0,0.0,0.0,0.0,0.0,0.3941,0.355,0.2498,0.1501,0.1166,0.177,0.116,0.1102,0.1756,-0.0203,-0.1519,-0.2012,-0.433,-0.5904,0.0,0.0,-1.509,-1.1138,-1.4305,-0.9563,0.1561,0.2435,0.6967,1.4176,1.7412,0.0,0.0,0.0,0.0,0.0,0.0,0.0,0.0,0.0,0.0,0.0,2.3423,2.3591,2.3725,2.6022,2.727,2.867,0.0,0.0,0.0,0.0,0.0,0.0,0.0,0.0,0.0,0.0,0.0,0.0,0.0,0.0,0.0,0.0,0.0,0.0,0.0,0.0,0.0,0.0,0.0,0.0,0.0,0.0,0.0,0.0,0.0,0.0,0.0,0.0,1.5061,1.4887,1.5448,1.5666,1.5374,1.5942,1.6514,1.709,1.8514,1.8939,1.8372,1.8771,1.9778,2.1314,2.1704,2.3498,2.6388,2.6388,2.7087,2.8484,3.2162,3.4006,3.4899,3.8249,3.9888,4.0344,4.0248,3.9913,3.9489,0.0,0.0,0.0,0.0,0.0,0.0,0.0,0.0,0.0,0.0,0.0,0.0,0.0,0.0,0.4999,0.434,0.3337,0.3014,0.3655,0.3086,0.3147,0.407,0.312,0.2323,0.1834,0.0561,-0.0404,0.0,0.0,0.0,0.0,-0.7408,-0.3876,0.5458,0.8848,1.3157,0.0,0.0,0.0,1.9704,0.0,0.0,2.1603,0.0,0.0,0.0,0.0,0.0,0.0,0.0,0.0,0.0,0.0,0.0,0.0,0.0,0.0,0.0,3.8268,0.0,0.0,0.0,0.0,0.0,0.0,0.0,0.0,0.0,0.0,0.0,0.0,0.0,0.0,0.0,0.0,0.0,0.0,0.0,0.0,0.0,0.0,0.0,0.0,0.0,0.0,0.0,0.0,0.0,1.6476,1.7123,1.718,1.6569,1.7688,1.8249,1.824,1.9316,1.9737,1.9492,1.9562,2.0478,2.2221,2.2296,2.3994,2.6886,2.7314,2.7983,2.9053,3.2431,3.4346,3.5485,3.8081,3.9625,4.0342,4.0235,3.9975,3.9623,0.0,0.0,0.0,0.0,0.0,0.0,0.0,0.0,0.0,0.767,0.0,0.0,0.0,0.0,0.0,0.5022,0.4967,0.5314,0.623,0.6301,0.7019,0.8539,0.9356,0.9669,0.9425,1.0464,1.0798,1.0301,0.4098,0.206,0.406,0.0,0.5006,0.7021,1.3997,1.7448,1.7946,0.0,1.8911,1.8921,0.0,2.0949,2.1118,0.0,0.0,0.0,2.2617,2.2696,0.0,2.3226,0.0,0.0,0.0,0.0,0.0,0.0,0.0,0.0,0.0,0.0,0.0,0.0,0.0,0.0,0.0,0.0,0.0,0.0,0.0,0.0,0.0,0.0,0.0,0.0,0.0,0.0,0.0,0.0,0.0,0.0,0.0,0.0,0.0,0.0,0.0,0.0,1.7827,1.7827,1.7415,1.7683,1.7853,1.7853,1.9441,2.0313,2.0313,2.007,2.0382,2.1205,2.1436,2.2306,2.3818,2.4024,2.5052,2.6589,2.7946,2.9045,3.0141,3.2697,3.4363,3.5485,3.8053,3.9567,4.0296,4.0213,3.9944,3.9599,0.0,0.0,0.0,0.0,0.0,0.0,0.0,0.0,0.0,0.0,0.0,0.0,0.7235,0.6779,0.6431,0.6357,0.5961,0.5982,0.6684,0.6747,0.7303,0.8545,0.9557,0.9887,0.9431,1.0838,1.1185,1.0301,0.4905,0.5006,1.0089,0.7087,0.8414,0.0,1.6464,1.7832,1.7976,1.822,0.0,0.0,1.9687,1.9768,0.0,0.0,0.0,0.0,0.0,2.216,2.3282,0.0,2.401,2.4484,0.0,0.0,0.0,0.0,0.0,0.0,3.8814,0.0,0.0,0.0,0.0,0.0,0.0,0.0,0.0,0.0,0.0,0.0,0.0,0.0,0.0,0.0,0.0,0.0,0.0,0.0,0.0,0.0,0.0,0.0,0.0,0.0,0.0,0.0,1.9662,1.9446,1.8771,1.9925,2.0613,2.0613,2.1669,2.2231,2.2231,2.1624,2.1415,2.1655,2.1655,2.2521,2.4024,2.5129,2.6009,2.6837,2.9918,3.0938,3.0455,3.2268,3.4342,3.6558,3.7656,3.8994,4.0296,4.0213,4.0079,3.9848,0.0,0.0,0.0,0.0,0.0,0.0,0.8639,0.8527,0.8474,0.0,0.0,0.0,0.8367,0.783,0.7512,0.7596,0.7071,0.693,0.7385,0.7578,0.81,0.9053,0.9826,1.0102,0.9799,1.0773,1.1169,1.0857,0.8061,0.9144,1.3786,1.1305,1.2315,1.626,0.0,0.0,0.0,0.0,0.0,0.0,1.8664,0.0,0.0,1.887,1.9197,0.0,0.0,0.0,2.2855,2.3857,2.42,0.0,0.0,0.0,0.0,0.0,0.0,0.0,0.0,0.0,0.0,0.0,0.0,0.0,3.7526,3.6928,0.0,0.0,0.0,0.0,0.0,0.0,0.0,0.0,0.0,0.0,0.0,0.0,0.0,0.0,0.0,0.0,0.0,2.251,2.1975,2.1501,2.1415,2.1131,2.0324,2.1532,2.1899,2.1217,2.2317,2.2947,2.2947,2.2134,2.2059,2.2745,2.209,2.2745,2.4624,2.5691,2.6652,2.7657,3.0733,3.1839,3.1642,3.3048,3.5019,3.7148,3.7734,3.8946,4.0379,4.0338,4.0169,3.9937,0.0,0.0,0.0,0.0,0.0,0.0,0.0,0.8838,0.8745,0.0,0.9009,0.9047,0.9337,0.8952,0.8723,0.8753,0.8289,0.8089,0.8296,0.8567,0.9056,0.981,1.0091,1.0302,1.0399,1.0581,1.101,1.1673,1.2142,1.3493,1.5519,1.5648,1.5928,1.6376,0.0,0.0,0.0,0.0,0.0,1.8065,1.7722,1.7852,0.0,0.0,1.8177,0.0,2.0602,2.1384,2.1782,2.3621,2.42,0.0,0.0,0.0,0.0,0.0,3.5559,0.0,0.0,0.0,0.0,0.0,0.0,0.0,3.9067,3.834,3.7522,0.0,0.0,0.0,0.0,0.0,0.0,0.0,0.0,0.0,0.0,0.0,0.0,0.0,0.0,0.0,2.3593,2.3301,2.3239,2.3176,2.3103,2.2733,2.2136,2.2807,2.2488,2.0958,2.2414,2.3176,2.3176,2.236,2.2669,2.4108,2.267,2.3254,2.5475,2.6223,2.738,2.8948,3.1004,3.2306,3.3073,3.4617,3.6119,3.7512,3.8151,3.9257,4.0502,4.0502,4.0257,3.9901,0.0,0.0,0.0,0.0,0.0,0.0,0.0,0.0,0.9885,1.0255,1.0009,0.9706,0.9627,0.9538,0.956,0.9712,0.9304,0.9018,0.9064,0.8884,0.9133,0.9844,0.9922,1.0292,1.0986,1.1202,1.1491,1.2006,1.3209,1.4166,1.501,1.5929,1.6462,1.6533,0.0,0.0,0.0,0.0,0.0,1.7755,1.7908,0.0,1.6087,1.5353,1.5018,1.5167,1.7669,1.9416,2.0979,0.0,2.397,2.4302,0.0,0.0,0.0,0.0,0.0,0.0,0.0,0.0,0.0,0.0,0.0,0.0,3.9602,3.8913,3.8126,0.0,0.0,0.0,0.0,0.0,0.0,0.0,0.0,0.0,0.0,0.0,0.0,0.0,0.0,0.0,2.687,2.6096,2.5426,2.4838,2.4253,2.4097,2.4552,2.4779,2.4696,2.4385,2.4696,2.485,2.485,2.4024,2.3806,2.4108,2.3829,2.4684,2.6688,2.8211,2.9355,3.0322,3.3323,3.4202,3.3645,3.5989,3.7286,3.7881,3.87,3.9637,4.0502,4.0502,4.0257,3.9901,0.0,0.0,0.0,0.0,0.0,0.0,0.0,0.0,0.0,0.0,1.0559,1.0545,1.0663,1.0586,1.0544,1.0619,1.0502,1.0249,0.985,1.0049,1.0117,1.0128,1.0263,1.0666,1.1286,1.1361,1.1902,1.2883,1.3531,1.4396,1.528,1.5887,1.6184,1.6114,1.689,0.0,0.0,0.0,1.8254,1.8208,1.6851,0.0,1.465,1.3322,1.2717,1.2843,1.501,1.7706,2.0473,2.1784,2.2955,0.0,0.0,2.7677,2.9633,0.0,3.537,3.7444,0.0,0.0,0.0,4.0317,0.0,0.0,0.0,3.9545,3.8932,3.8346,0.0,0.0,0.0,0.0,0.0,0.0,0.0,0.0,0.0,0.0,0.0,0.0,0.0,0.0,2.8948,2.8379,2.7591,2.6582,2.5824,2.5358,2.53,2.5664,2.5734,2.5312,2.5664,2.5955,2.6013,2.5205,2.5052,2.5569,2.4755,2.5644,2.7916,2.9111,3.0426,3.1894,3.4634,3.547,3.5155,3.7343,3.8372,3.8598,3.926,3.9966,4.0643,4.0643,4.0334,3.9905,1.3411,0.0,0.0,0.0,0.0,0.0,1.1978,1.1477,0.0,0.0,0.0,0.0,0.0,0.0,0.0,0.0,1.1829,1.1553,0.0,0.0,1.143,1.0817,1.0956,1.1259,1.1736,1.1597,1.2193,1.3645,1.3645,1.4277,1.5551,1.5551,1.5584,0.0,0.0,0.0,0.0,0.0,0.0,1.8324,0.0,1.4515,1.4323,1.2322,1.1402,1.1558,1.3471,1.7053,2.0969,2.0969,0.0,2.4032,2.4192,2.6464,0.0,0.0,0.0,0.0,0.0,0.0,0.0,0.0,0.0,4.0496,0.0,0.0,0.0,3.9523,0.0,0.0,0.0,0.0,0.0,0.0,0.0,0.0,0.0,0.0,0.0,0.0,0.0,0.0,0.0,3.0205,2.9397,2.8193,2.7338,2.6564,2.5779,2.6233,2.6164,2.5523,2.6164,2.6658,2.6905,2.6208,2.6346,2.7201,2.5824,2.6523,2.9136,2.9714,3.12,3.3422,3.5374,3.6274,3.6545,3.8339,3.9152,3.9255,3.9757,4.0305,4.0801,4.0798,4.0422,3.9888,1.4955,1.4738,0.0,0.0,0.0,0.0,1.351,1.3098,0.0,0.0,0.0,0.0,0.0,0.0,0.0,0.0,0.0,0.0,1.2639,0.0,0.0,1.2494,1.2022,1.2158,1.3013,1.2278,1.2503,1.3772,1.3772,1.4091,1.4713,1.4713,1.5234,0.0,1.6738,0.0,0.0,0.0,1.8326,0.0,1.4821,1.5068,0.0,1.3458,1.1958,1.1594,1.451,1.8843,2.3254,0.0,2.3202,2.3537,0.0,2.7613,2.9471,0.0,0.0,0.0,0.0,0.0,0.0,0.0,4.045,0.0,0.0,0.0,3.9608,3.9586,0.0,3.9137,3.8943,0.0,0.0,0.0,0.0,0.0,0.0,0.0,0.0,0.0,0.0,0.0,0.0,3.1272,3.0086,2.9567,2.8295,2.7537,2.7458,2.6837,2.6452,2.6383,2.6589,2.6973,2.7604,2.7121,2.7175,2.7868,2.7108,2.7971,3.0337,3.0616,3.2129,3.4545,3.5698,3.6274,3.6545,3.8339,3.9152,3.9289,4.0224,4.0677,4.08,4.0793,4.0421,3.9888,1.5921,1.5479,0.0,0.0,0.0,0.0,0.0,0.0,0.0,0.0,0.0,0.0,0.0,0.0,0.0,0.0,0.0,1.377,0.0,0.0,0.0,0.0,0.0,0.0,1.3193,1.2305,1.2298,1.3258,1.3178,1.347,1.4129,1.4329,1.4785,0.0,1.6989,0.0,1.8166,0.0,1.904,0.0,0.0,0.0,0.0,1.236,1.1005,1.2289,1.49,1.8206,2.1277,0.0,2.205,0.0,0.0,0.0,0.0,0.0,0.0,0.0,0.0,0.0,0.0,0.0,0.0,0.0,4.0449,0.0,4.0117,0.0,0.0,0.0,0.0,0.0,0.0,0.0,0.0,0.0,0.0,0.0,0.0,0.0,0.0,0.0,0.0,0.0,0.0,0.0,3.0441,2.9647,2.8941,2.8575,2.8101,2.7417,2.7815,2.8014,2.8078,2.8217,2.8511,2.8876,2.8911,2.9883,3.1483,3.198,3.339,3.5419,3.6172,3.6706,3.7155,3.8702,3.9354,3.946,4.0393,4.0792,4.0855,4.0869,4.0481,3.9966,1.7531,0.0,0.0,0.0,0.0,0.0,0.0,0.0,0.0,0.0,0.0,0.0,1.3711,1.3868,0.0,0.0,1.4985,1.5054,0.0,0.0,1.4689,0.0,0.0,0.0,0.0,1.2298,1.2116,1.2952,1.2803,1.3202,1.4177,1.4426,1.4888,1.5451,0.0,1.8115,1.8083,0.0,0.0,1.9353,1.9177,1.8824,1.7903,1.3161,1.2126,1.3566,1.5863,1.8294,2.0409,2.0111,2.1501,0.0,2.6021,0.0,0.0,0.0,0.0,0.0,3.9125,0.0,0.0,0.0,0.0,0.0,0.0,0.0,0.0,0.0,0.0,0.0,0.0,0.0,3.9558,0.0,0.0,0.0,0.0,0.0,0.0,0.0,0.0,0.0,0.0,0.0,0.0,0.0,0.0,3.1388,3.044,3.0158,2.9582,2.8502,2.9013,2.9182,2.8839,2.9191,2.9487,2.9766,3.0197,3.1041,3.2213,3.2903,3.4218,3.6045,3.6568,3.7195,3.7871,3.9081,3.9599,3.9735,4.0521,4.087,4.0915,4.0804,4.0432,3.9996,2.0445,1.9156,0.0,0.0,0.0,0.0,0.0,0.0,0.0,0.0,0.0,0.0,0.0,0.0,0.0,0.0,0.0,1.6612,1.6769,0.0,1.5867,0.0,0.0,1.368,0.0,0.0,1.214,1.303,1.3037,1.3787,1.5081,1.5258,1.5755,1.664,1.789,1.8422,1.8318,1.945,1.952,1.885,1.7983,1.6709,1.5524,0.0,1.7015,1.5655,1.8136,0.0,0.0,2.2317,2.2392,0.0,0.0,0.0,0.0,0.0,0.0,0.0,0.0,0.0,0.0,4.0255,0.0,0.0,0.0,0.0,4.0489,0.0,0.0,0.0,0.0,4.0339,4.0137,0.0,0.0,0.0,0.0,0.0,0.0,0.0,0.0,0.0,0.0,0.0,0.0,0.0,0.0,0.0,3.1845,3.1066,3.0367,2.975,2.9975,3.0107,3.0208,2.9752,2.9813,3.0464,3.0451,3.1041,3.2213,3.2903,3.433,3.6312,3.6855,3.7592,3.8551,3.9425,3.9909,4.014,4.0671,4.093,4.0952,4.0567,4.0231,3.9943,0.0,0.0,0.0,0.0,0.0,0.0,0.0,1.7084,0.0,0.0,0.0,0.0,0.0,0.0,1.6519,0.0,0.0,1.6324,1.6682,1.6368,0.0,0.0,0.0,1.504,0.0,0.0,0.0,0.0,0.0,1.4248,1.4739,1.5748,1.655,1.724,0.0,1.9164,0.0,0.0,0.0,0.0,0.0,1.8037,1.5866,0.0,0.0,1.8136,2.0458,2.1725,0.0,2.2101,2.3401,2.5665,2.8361,3.1104,3.3874,3.6664,3.8008,0.0,0.0,0.0,3.9681,4.0312,0.0,0.0,0.0,0.0,0.0,0.0,0.0,0.0,0.0,0.0,0.0,0.0,0.0,0.0,0.0,0.0,0.0,0.0,0.0,0.0,0.0,0.0,0.0,0.0,3.5268,0.0,0.0,3.3103,3.247,3.1426,3.1864,3.1966,3.1573,3.1486,3.1728,3.2305,3.2275,3.2656,3.3495,3.4712,3.5771,3.6759,3.7506,3.8259,3.9005,3.9569,3.9947,4.0232,4.0711,4.0937,4.0951,4.0648,4.0452,4.0222,2.2554,0.0,0.0,0.0,0.0,0.0,0.0,0.0,0.0,0.0,1.7706,0.0,1.7139,0.0,1.7285,0.0,1.7088,1.6945,1.7162,1.6848,0.0,1.6624,1.6013,0.0,0.0,0.0,0.0,0.0,0.0,1.5286,1.5645,1.6738,1.7409,1.783,0.0,1.946,1.9618,0.0,2.0264,0.0,0.0,1.9621,0.0,0.0,1.91,1.8434,0.0,2.2327,2.2285,2.3201,2.482,2.7225,3.0875,3.3534,3.5779,3.8284,3.9146,3.9359,3.9615,3.9687,0.0,4.0369,4.033,0.0,4.0442,0.0,0.0,0.0,0.0,0.0,0.0,0.0,0.0,0.0,0.0,0.0,0.0,4.0473,0.0,0.0,0.0,0.0,0.0,0.0,0.0,3.6808,3.6603,3.6071,0.0,0.0,3.4382,3.3196,3.3697,3.3559,3.2754,3.2935,3.3176,3.3463,3.3684,3.3919,3.4267,3.5684,3.6624,3.7126,3.7969,3.8803,3.9576,3.9844,4.0142,4.0474,4.0818,4.0974,4.0996,4.0579,4.0235,3.9908,0.0,0.0,0.0,0.0,1.9113,0.0,0.0,0.0,1.8405,0.0,1.8482,1.8269,1.7569,1.8347,1.8569,1.7901,1.8193,0.0,1.837,1.7703,0.0,0.0,1.6666,1.6218,1.7044,0.0,0.0,0.0,0.0,0.0,1.7691,1.8149,1.8318,1.8416,1.924,0.0,1.9125,1.9766,2.0469,2.1175,2.1461,2.1517,2.1441,2.1562,1.9627,1.7317,2.1156,2.2424,2.2734,2.5704,2.6797,2.7917,3.3626,3.5496,3.6129,3.8802,3.9561,3.9609,3.9916,4.0008,4.0101,4.0413,0.0,0.0,0.0,0.0,3.9435,0.0,0.0,0.0,0.0,0.0,0.0,0.0,0.0,0.0,0.0,0.0,0.0,0.0,0.0,0.0,0.0,0.0,3.8231,3.7488,3.7228,3.6939,0.0,0.0,3.6019,3.4998,3.5268,3.4914,3.3856,3.417,3.4267,3.4055,3.4559,3.4736,3.4544,3.5882,3.6805,3.7487,3.8308,3.9252,4.0214,4.0193,4.0486,4.0914,4.0974,4.1025,4.0988,4.0374,3.9715,3.9137,2.5394,2.4533,2.3638,0.0,2.1198,2.0136,0.0,0.0,0.0,0.0,1.8741,1.8863,1.912,1.9377,1.9579,1.9687,1.9444,0.0,0.0,0.0,0.0,1.8184,1.813,1.8144,1.8073,1.7104,0.0,1.6976,0.0,0.0,1.7521,1.8416,1.8904,1.9063,0.0,0.0,1.9766,2.1761,2.3568,2.5168,2.6072,2.5855,0.0,0.0,2.6695,2.5077,2.4925,2.6398,2.856,2.9356,3.1202,3.3395,3.4936,3.6838,3.8665,3.9388,3.9731,3.9896,4.0039,4.0176,4.0332,4.0469,4.0494,4.0509,0.0,0.0,0.0,0.0,0.0,0.0,0.0,0.0,0.0,0.0,0.0,0.0,0.0,0.0,0.0,0.0,0.0,0.0,0.0,0.0,3.867,3.7841,3.7631,3.7287,0.0,0.0,0.0,3.6104,3.617,3.6086,3.5797,3.5501,3.5501,3.5814,3.5273,3.548,3.6284,3.6864,3.7522,3.8191,3.899,3.9675,4.0195,4.0241,4.0517,4.0905,4.0974,4.0862,4.0655,4.0634,4.021,3.9618,2.6553,0.0,0.0,2.4387,0.0,0.0,2.0582,0.0,0.0,2.0126,2.0387,0.0,2.0573,2.0605,2.0561,2.04,2.0278,0.0,2.0119,0.0,0.0,1.9889,1.988,1.9946,2.0013,1.9372,0.0,1.8399,0.0,0.0,1.7942,1.8674,1.9073,0.0,0.0,1.9784,0.0,2.2466,2.4166,2.5338,2.7296,0.0,0.0,2.9085,3.0167,3.0643,2.9803,3.0031,3.0929,3.2439,3.4137,3.5856,3.7202,3.8728,3.9984,3.9984,4.0091,4.0227,4.0264,4.0368,4.0461,4.0488,4.0501,4.049,4.0492,3.9967,3.9615,0.0,0.0,0.0,0.0,0.0,0.0,0.0,0.0,0.0,0.0,0.0,0.0,0.0,0.0,0.0,0.0,3.9383,3.897,3.8392,3.8277,0.0,0.0,0.0,0.0,3.6869,3.702,3.6999,3.6746,3.6614,3.6596,3.6825,3.6288,3.6377,3.7084,3.7541,3.8031,3.8612,3.9402,3.9939,4.0302,4.0386,4.0616,4.0957,4.0996,4.0855,4.0641,4.0729,4.0284,3.9683,0.0,0.0,0.0,0.0,0.0,0.0,0.0,2.1922,0.0,2.1939,0.0,2.2582,2.1904,2.1776,2.1458,2.0883,0.0,2.1195,2.1071,2.1387,2.1787,2.2124,2.1573,2.1497,2.2059,2.1593,0.0,0.0,0.0,0.0,1.87,1.8843,0.0,0.0,0.0,0.0,0.0,2.2937,2.4178,2.4867,2.7755,2.8883,2.9045,3.0204,3.2319,3.4743,3.5016,3.3696,3.2352,3.5345,3.6423,3.696,3.965,4.0489,4.0489,4.0489,4.0505,4.048,4.0361,4.0327,4.0294,4.0156,4.0133,4.0133,4.0133,3.9147,3.8451,3.9246,3.8175,3.7417,0.0,0.0,0.0,0.0,0.0,0.0,0.0,0.0,0.0,0.0,0.0,0.0,0.0,0.0,3.9175,3.895,3.8921,0.0,0.0,0.0,0.0,3.7433,3.7739,3.7703,3.7167,0.0,3.7522,3.7264,3.7283,3.7377,3.7524,3.8023,3.8511,3.897,3.9626,4.0101,4.0415,4.056,4.0765,4.0999,4.0972,4.0898,4.0791,4.0711,4.0191,3.9537,0.0,0.0,0.0,0.0,0.0,2.6586,2.5704,2.4186,2.2948,2.2478,2.2626,2.2913,2.3132,2.2555,2.2374,2.2999,2.2529,0.0,0.0,0.0,0.0,2.2392,2.2069,2.1897,2.1832,2.142,2.072,0.0,0.0,0.0,1.8442,0.0,0.0,0.0,0.0,0.0,2.4948,2.5475,0.0,3.088,3.3136,3.415,3.4526,3.6376,3.7598,3.8405,3.8736,3.8501,3.8164,3.8987,3.9459,3.9777,4.0318,4.0489,4.0489,4.0489,4.0492,4.0327,3.9559,3.9342,3.9164,3.8386,3.818,3.818,3.818,3.8206,3.8261,3.8423,3.8449,3.8479,3.8541,0.0,0.0,0.0,0.0,0.0,0.0,0.0,0.0,0.0,0.0,0.0,0.0,0.0,0.0,0.0,0.0,0.0,0.0,0.0,0.0,0.0,3.8106,0.0,0.0,0.0,3.7898,3.7469,3.7667,3.808,3.8615,3.8554,3.8943,3.9712,3.984,4.0119,4.0491,4.0626,4.0847,4.1066,4.0896,4.0829,4.0791,4.0596,4.0193,3.9731,0.0,0.0,0.0,0.0,0.0,0.0,0.0,2.6865,0.0,2.4764,2.4743,2.4752,2.4588,2.4331,2.3999,2.3756,2.3559,2.3423,2.3298,2.3519,2.3519,2.3372,2.3213,0.0,2.3054,2.2809,2.2038,2.0663,0.0,0.0,1.8612,0.0,0.0,2.0187,0.0,2.4257,0.0,0.0,0.0,3.2816,3.5469,3.6562,3.6825,3.8315,3.9017,3.9287,3.9596,3.9744,3.9844,4.0156,4.0373,4.0489,4.0489,4.0489,4.0489,4.0489,4.0489,4.0296,3.9353,3.9091,3.8865,3.7924,3.7708,3.7708,3.7708,3.757,3.7528,3.7733,3.7775,3.7835,3.8147,3.8158,0.0,0.0,0.0,0.0,0.0,0.0,0.0,0.0,0.0,0.0,0.0,0.0,0.0,0.0,0.0,0.0,0.0,0.0,0.0,0.0,0.0,0.0,0.0,0.0,0.0,3.788,3.8083,3.8442,3.8892,3.8923,3.9308,4.0002,4.0024,4.0277,4.0674,4.0797,4.0931,4.1037,4.0871,4.0781,4.0726,4.0559,4.0175,3.9754,0.0,3.1703,0.0,0.0,3.0147,0.0,2.9936,2.9352,2.8543,2.7397,2.7077,2.6812,2.6463,2.6202,2.5578,2.4506,2.4791,2.4672,2.3813,2.4383,2.4671,2.4394,2.4478,2.4539,2.4539,2.4539,2.3694,0.0,0.0,0.0,0.0,0.0,0.0,0.0,0.0,0.0,0.0,0.0,3.3001,3.3822,3.6505,3.7627,3.7808,3.8776,3.9268,3.9433,3.9679,3.9923,4.0173,4.0427,4.051,4.0523,4.0504,4.0489,4.0489,4.0489,4.0367,4.0004,3.9048,3.8648,3.8266,3.7334,3.7111,3.7111,3.7111,3.6877,3.6756,3.6978,3.6869,3.6895,3.7411,3.7356,0.0,0.0,0.0,0.0,0.0,0.0,0.0,0.0,0.0,0.0,0.0,0.0,0.0,0.0,0.0,0.0,0.0,0.0,0.0,0.0,0.0,3.814,3.8054,0.0,3.8223,3.8156,3.8478,3.8755,3.8979,3.921,3.959,4.0139,4.0226,4.0458,4.084,4.0964,4.1013,4.0987,4.0846,4.0759,4.0681,4.0549,4.0194,3.9797,0.0,0.0,0.0,0.0,0.0,0.0,3.1942,3.1099,3.011,2.9274,2.8322,2.8103,2.9115,2.7722,2.6642,2.637,2.6793,2.6195,2.425,2.5742,2.6146,2.5016,2.5441,2.5721,2.5721,2.5721,2.5181,0.0,0.0,0.0,0.0,0.0,0.0,0.0,0.0,0.0,0.0,3.2414,3.3768,3.5671,3.7023,3.7772,3.8162,3.9227,3.9838,4.012,4.0267,4.0431,4.0543,4.0585,4.0591,4.0573,4.0523,4.0489,4.0489,4.0489,3.991,3.9024,3.8092,3.7198,3.6344,3.5374,3.5157,3.5157,3.5157,3.5708,3.6155,3.5837,3.6224,3.6533,3.6216,3.6803,3.7026,0.0,0.0,0.0,0.0,0.0,0.0,0.0,0.0,0.0,0.0,3.84,0.0,0.0,0.0,0.0,0.0,0.0,0.0,3.8307,0.0,3.802,3.7578,3.815,3.8281,3.7946,3.873,3.9156,3.9183,3.9502,3.984,4.0187,4.0326,4.0621,4.098,4.105,4.1041,4.0987,4.0846,4.0759,4.0681,4.0549,4.0302,4.0081,0.0,0.0,0.0,0.0,0.0,0.0,0.0,3.2307,3.1881,3.1906,3.0335,2.9261,2.9414,2.8821,2.8295,2.7906,2.8009,2.7486,2.5938,2.6476,2.6488,2.5569,2.5791,2.5931,2.5931,2.6308,2.6039,0.0,0.0,0.0,0.0,0.0,0.0,0.0,0.0,3.3034,3.4709,3.5964,3.7115,3.818,3.8747,3.9158,3.9463,3.9902,4.0149,4.0268,4.0324,4.0437,4.0535,4.053,4.0579,4.0607,4.0564,4.0569,4.0573,4.0573,4.0042,3.9236,3.8282,3.732,3.6374,3.5414,3.5195,3.5165,3.5041,3.547,3.581,3.5756,3.6174,3.6574,3.6557,3.662,3.6563,0.0,0.0,0.0,0.0,0.0,0.0,0.0,0.0,0.0,0.0,0.0,0.0,0.0,0.0,0.0,0.0,0.0,0.0,3.8368,0.0,3.8204,3.7984,3.8442,3.8548,3.8328,3.9073,3.9401,3.9324,3.9665,3.9983,4.0342,4.0645,4.0855,4.1013,4.1073,4.1007,4.0863,4.0829,4.0707,4.0559,4.0519,4.0302,4.0062,3.5941,0.0,3.5165,0.0,3.4284,3.3691,3.3824,3.3415,3.3219,3.3614,3.2331,3.114,3.0437,3.0211,2.9771,2.9073,2.9338,2.8884,2.7326,2.7657,2.7749,2.7222,2.7046,0.0,2.7407,2.7864,2.7811,2.7197,2.7994,0.0,0.0,0.0,0.0,0.0,3.5022,3.6372,3.716,3.8596,3.9408,3.9721,3.992,4.0139,4.0319,4.0378,4.038,4.0364,4.0446,4.0527,4.0589,4.0599,4.0616,4.0631,4.0607,4.0593,4.0569,4.0457,3.9929,3.9204,3.8327,3.7359,3.6479,3.5882,3.5705,3.5616,3.5526,3.5705,3.5941,3.5932,3.6131,3.6367,3.6498,3.6284,3.6088,3.6054,0.0,0.0,0.0,0.0,0.0,0.0,3.8034,3.805,3.8234,0.0,0.0,0.0,0.0,0.0,0.0,0.0,0.0,0.0,0.0,0.0,0.0,3.8748,3.8905,3.8894,3.9433,3.9642,3.9551,3.9897,4.023,4.0549,4.0852,4.1003,4.1013,4.1074,4.0988,4.081,4.081,4.0672,4.0489,4.0492,4.0341,4.0139,3.6216,3.5705,3.5316,3.5722,3.4938,3.4398,3.4818,3.4382,3.3953,3.3882,3.4235,3.4088,3.3077,3.2013,3.0896,2.9771,3.0748,3.0421,2.8023,2.9524,3.0364,0.0,0.0,2.9929,3.0932,3.1019,3.1034,3.1034,0.0,0.0,3.257,0.0,3.4141,3.6156,3.6174,3.7264,3.9082,3.9508,3.9679,3.9731,4.012,4.0304,4.0315,4.052,4.0557,4.0532,4.0788,4.0857,4.0799,4.0799,4.0752,4.0687,4.0621,4.0588,4.0526,4.0137,3.9354,3.8517,3.8045,3.709,3.6256,3.6429,3.6323,3.6256,3.6429,3.6609,3.6603,3.6326,3.5915,3.5622,3.5622,3.5622,3.5588,3.552,0.0,0.0,0.0,0.0,0.0,0.0,3.7228,3.719,3.765,0.0,0.0,0.0,0.0,0.0,0.0,0.0,0.0,3.8018,3.8252,0.0,3.8789,3.9064,3.935,3.9575,3.9781,3.9889,3.9911,4.0247,4.0535,4.0792,4.0933,4.0991,4.1016,4.1069,4.0978,4.081,4.081,4.0672,4.0508,4.0499,4.0449,4.0398,3.6326,3.6276,3.6318,3.655,3.619,3.5942,3.6232,3.5856,3.5487,3.5459,3.5576,3.5408,3.4698,3.3371,3.2331,0.0,3.1649,3.0955,0.0,3.0807,3.1294,3.0817,3.1339,3.1735,3.2066,3.2716,3.3072,3.3072,0.0,0.0,0.0,3.4443,3.5578,3.8169,3.8428,3.8846,3.9435,3.9538,3.977,4.013,4.0254,4.0436,4.0645,4.0749,4.0797,4.0781,4.0879,4.0867,4.0789,4.0789,4.0792,4.0759,4.0746,4.0492,4.0168,4.0024,3.9303,3.8501,3.8334,3.756,3.6838,3.69,3.686,3.6781,3.6649,3.6522,3.6308,3.5915,3.5694,3.5622,3.5622,3.5622,3.5694,3.6011,3.6539,0.0,0.0,0.0,0.0,0.0,3.8135,3.8219,0.0,3.8387,0.0,0.0,0.0,0.0,0.0,0.0,0.0,0.0,3.8496,0.0,3.8886,3.9234,3.9483,3.967,3.9996,4.0196,4.0251,4.045,4.0629,4.0812,4.0933,4.0991,4.0999,4.1013,4.0948,4.0801,4.0696,4.0568,4.043,4.0432,4.0379,4.0325,3.6719,3.6834,3.697,3.6987,3.6851,3.6736,3.6701,3.644,3.6232,3.6147,3.6298,3.6281,3.6002,3.4968,0.0,3.3643,3.2663,3.2053,3.2057,3.2269,3.2567,3.2978,3.3287,3.3632,3.4032,3.4723,0.0,3.5094,3.5682,3.6487,3.7461,3.6777,3.7478,3.9293,3.9619,3.9698,3.9604,3.9734,4.001,4.0393,4.0424,4.0602,4.0838,4.0878,4.0886,4.0862,4.0882,4.0856,4.079,4.079,4.079,4.079,4.079,4.0396,3.9909,3.9831,3.9239,3.8582,3.8418,3.7895,3.7374,3.7281,3.7206,3.7034,3.6661,3.6433,3.6174,3.5711,3.5622,3.5622,3.5622,3.5622,3.5783,3.6392,3.6759,3.7132,3.7703,0.0,0.0,0.0,0.0,0.0,0.0,3.8528,3.8658,0.0,0.0,0.0,0.0,0.0,0.0,3.8332,3.8578,0.0,3.9136,3.9364,3.9647,3.9933,4.0215,4.0394,4.0485,4.0602,4.075,4.0878,4.095,4.1019,4.1029,4.0988,4.089,4.078,4.0623,4.0515,4.0398,4.0362,4.0344,4.0307,3.7283,3.7301,0.0,0.0,3.7027,0.0,3.6557,3.6457,3.6416,3.6224,3.6522,3.6843,3.6978,3.6759,3.6156,3.4968,0.0,0.0,0.0,3.3777,3.4104,3.6035,3.5479,3.56,3.6615,3.6887,3.7057,3.7113,3.8308,3.9146,3.9639,3.9655,3.9655,3.9637,3.9921,3.9886,3.9684,4.011,4.0396,4.052,4.0652,4.0776,4.0906,4.0908,4.0862,4.0818,4.0876,4.0856,4.079,4.079,4.079,4.079,4.079,4.0348,3.9785,3.9573,3.9189,3.8726,3.8368,3.8106,3.7881,3.765,3.7432,3.7132,3.6492,3.6343,3.6216,3.5694,3.5622,3.5622,3.5622,3.5622,3.5898,3.6741,3.69,3.7246,3.8189,0.0,0.0,0.0,0.0,0.0,0.0,3.8281,3.8559,0.0,0.0,0.0,0.0,0.0,3.8546,3.8135,3.8515,3.8979,3.9483,3.9526,3.9804,4.031,4.0377,4.0469,4.0602,4.0732,4.0869,4.0994,4.0996,4.1027,4.1073,4.0944,4.0827,4.077,4.0578,4.0466,4.0398,4.0325,4.0307,4.0289,0.0,0.0,3.7356,3.7259,3.722,3.7259,3.7299,3.7337,3.7299,3.7243,3.7337,3.7468,3.7721,3.7667,3.7649,3.7662,3.5873,3.488,3.5135,3.5471,3.5921,3.6462,3.6976,3.7453,3.7855,3.83,3.8702,3.9107,3.9426,3.9689,3.9901,4.0182,4.0149,3.9913,4.0248,4.0313,4.0216,4.0267,4.0472,4.0726,4.0711,4.0776,4.0906,4.0896,4.0882,4.0876,4.0897,4.0856,4.079,4.079,4.079,4.079,4.079,4.0446,3.9986,3.9787,3.9321,3.8855,3.8773,3.8559,3.8382,3.8523,3.8378,3.7929,3.6978,3.6759,3.6557,3.5783,3.5622,3.5622,3.5622,3.5622,3.5898,3.6741,3.6921,3.7266,3.8189,3.8401,0.0,0.0,3.8528,3.8627,3.8515,3.8578,3.8658,0.0,0.0,0.0,0.0,3.8892,3.8862,3.8564,3.8862,3.9165,3.9502,3.9717,3.9975,4.031,4.0377,4.0469,4.0602,4.0732,4.0869,4.0994,4.1,4.0976,4.0948,4.0793,4.0676,4.0563,4.0521,4.0441,4.0328,4.0427,4.0396,4.031,3.8032,3.7913,3.7827,3.7631,3.7503,3.7466,3.7577,3.7577,3.7649,3.7757,3.7774,3.788,3.8153,3.8285,3.8446,3.8676,3.7113,3.6355,3.686,3.6933,3.7202,3.7688,3.8358,3.8785,3.8897,3.9255,3.9605,3.9901,3.9854,3.9959,4.0179,4.0405,4.0384,4.0196,4.0535,4.0574,4.0405,4.0496,4.066,4.0831,4.0766,4.0809,4.0896,4.0859,4.0856,4.0856,4.0856,4.0831,4.079,4.079,4.079,4.079,4.079,4.0559,4.0226,4.0043,3.9529,3.9008,3.8921,3.8803,3.8664,3.8609,3.8305,3.7857,3.6985,3.6768,3.6545,3.5766,3.5622,3.5622,3.5622,3.5827,3.6182,3.6843,3.7173,3.7596,3.8285,3.8446,0.0,3.859,3.8658,3.8707,3.8707,3.8707,3.8707,3.8707,3.8792,0.0,3.8881,3.9156,3.9156,3.891,3.9137,3.9427,3.9693,3.9954,4.0157,4.031,4.0425,4.053,4.0621,4.0798,4.0926,4.1003,4.1025,4.099,4.0883,4.0752,4.0623,4.0511,4.0496,4.0427,4.0329,4.0444,4.0413,4.031,3.8718,3.8628,3.8455,3.815,3.7913,3.7756,3.7756,3.7739,3.781,3.8018,3.8052,3.8153,3.8415,3.8652,3.8833,3.8952,3.8054,3.7903,3.8849,3.8198,3.8166,3.904,3.9406,3.9589,3.965,3.9906,4.0084,4.0108,4.0048,4.0178,4.0474,4.0539,4.0516,4.048,4.0766,4.0723,4.0473,4.0694,4.0837,4.0869,4.0812,4.0843,4.0878,4.082,4.079,4.079,4.079,4.079,4.079,4.079,4.079,4.079,4.0803,4.0687,4.0504,4.0302,3.9844,3.9346,3.911,3.9017,3.8913,3.8431,3.8071,3.7664,3.6973,3.6837,3.6659,3.6071,3.5916,3.5916,3.5942,3.6281,3.6689,3.7041,3.7506,3.7964,3.8364,0.0,3.8559,3.8707,3.8707,3.8707,3.8707,3.8707,3.8707,3.8707,3.895,3.9101,3.9101,3.9401,3.9477,3.9219,3.9433,3.9693,3.9975,4.0176,4.031,4.0328,4.0504,4.0602,4.0642,4.0894,4.1018,4.1025,4.1054,4.0996,4.0866,4.077,4.063,4.0496,4.0545,4.046,4.0364,4.0492,4.0427,4.031,3.9099,3.9149,3.9111,3.8678,3.8559,3.8529,3.8529,3.8373,3.8285,3.8318,3.835,3.8446,3.8713,3.8792,3.9027,3.9599,3.9411,3.9314,3.9408,3.9221,3.9214,3.951,3.9505,3.9619,3.9854,4.0178,4.0423,4.0586,4.0584,4.065,4.0818,4.0818,4.0809,4.0743,4.08,4.0789,4.0742,4.0784,4.082,4.0808,4.0803,4.0803,4.0808,4.0803,4.079,4.079,4.079,4.079,4.079,4.079,4.079,4.0803,4.0808,4.0776,4.07,4.0516,4.0369,4.0185,3.9705,3.9575,3.9458,3.8913,3.8865,3.8781,3.8103,3.7954,3.7869,3.7522,3.7469,3.7486,3.7517,3.7468,3.7417,3.7488,3.7701,3.7929,3.8068,0.0,3.8658,3.8707,3.8707,3.8707,3.8707,3.8707,3.8707,3.8707,3.895,3.9101,3.9101,3.9575,3.9807,3.9785,3.9807,3.9975,4.0234,4.0291,4.0327,4.0392,4.053,4.0649,4.077,4.0921,4.1035,4.1072,4.1032,4.0914,4.0738,4.0829,4.073,4.0515,4.0742,4.0681,4.0492,4.0615,4.0504,4.031,3.951,3.9467,3.9382,3.9119,3.8987,3.8869,3.8718,3.8626,3.856,3.8603,3.8773,3.8979,3.9207,3.9402,3.9615,3.9925,4.0074,4.0095,4.004,3.9986,3.9967,4.0079,4.0113,4.0218,4.0383,4.0492,4.0625,4.0747,4.0506,4.0401,4.0453,4.0242,4.0125,4.0112,4.0327,4.041,4.0453,4.0688,4.0803,4.079,4.0673,4.0706,4.079,4.0673,4.0706,4.079,4.079,4.079,4.079,4.079,4.0803,4.0796,4.0788,4.0776,4.0707,4.0557,4.0408,4.021,3.988,3.9807,3.9735,3.9427,3.9401,3.932,3.8709,3.8564,3.829,3.7522,3.7641,3.7706,3.7292,3.7727,3.8109,3.7821,3.819,0.0,0.0,3.8564,3.8707,3.8707,3.8707,3.875,3.8892,3.878,3.8822,3.9101,3.9245,3.9376,3.9508,3.9892,4.0118,4.0118,4.0118,4.0176,4.031,4.0345,4.0392,4.045,4.0636,4.0768,4.0867,4.0994,4.1045,4.1054,4.1055,4.0968,4.0819,4.0869,4.0776,4.0615,4.0828,4.073,4.0519,4.0642,4.0519,4.031,3.9967,3.9868,3.9745,3.9669,3.9498,3.9336,3.9146,3.9051,3.9037,3.9104,3.9317,3.9534,3.9698,3.9938,4.013,4.0221,4.0384,4.0505,4.0597,4.0498,4.0479,4.0548,4.0649,4.0721,4.0805,4.075,4.0691,4.066,4.0285,4.0067,3.9947,3.9716,3.9586,3.9573,3.9967,4.0114,4.0152,4.0515,4.066,4.0646,4.0489,4.0554,4.072,4.0569,4.0612,4.079,4.079,4.079,4.079,4.0803,4.0796,4.08,4.0812,4.0788,4.072,4.061,4.0408,4.0195,4.0043,3.9979,3.9911,3.9781,3.9739,3.9632,3.9239,3.9085,3.8795,3.7911,3.8094,3.82,3.7575,3.8291,3.8813,3.8295,0.0,0.0,0.0,3.8732,3.878,3.8707,3.8792,3.895,3.9073,3.8979,3.9045,3.9477,3.9575,3.9675,3.9895,4.0157,4.031,4.031,4.031,4.031,4.0309,4.0392,4.0481,4.0577,4.0749,4.0876,4.0948,4.1038,4.1055,4.1032,4.1085,4.1025,4.0907,4.0935,4.0859,4.0754,4.0888,4.0807,4.0588,4.0668,4.0549,4.0346,4.0494,4.0546,4.0565,4.0449,4.0303,4.0242,4.0356,4.0158,3.9986,3.9996,4.0018,4.005,4.0068,4.0087,4.0237,4.0538,4.0466,4.0533,4.0851,4.0681,4.0613,4.068,4.0683,4.0727,4.08,4.081,4.0614,4.0242,4.0223,3.9982,3.9545,3.977,3.9848,3.9785,4.0082,4.0195,4.0195,4.0233,4.0251,4.0251,4.0233,4.0339,4.0519,4.0504,4.0612,4.079,4.079,4.079,4.0803,4.0808,4.08,4.0812,4.0856,4.0897,4.0877,4.0859,4.073,4.053,4.0386,4.0233,4.0057,3.9911,3.9889,3.987,3.9848,3.9826,3.9848,3.9854,3.9916,3.9958,4.0019,3.9916,3.9683,3.9271,0.0,0.0,3.8584,3.8847,3.8979,3.8738,3.9156,3.935,3.9129,3.9298,3.9477,3.9502,3.9739,3.9895,3.9899,4.0158,4.0344,4.0398,4.0328,4.0327,4.0389,4.045,4.059,4.078,4.0858,4.0961,4.1074,4.1033,4.103,4.1097,4.1095,4.1011,4.0917,4.1038,4.1015,4.0907,4.103,4.0996,4.0859,4.0742,4.0602,4.046,4.0703,4.0722,4.0762,4.0704,4.0634,4.0593,4.0502,4.0416,4.0288,4.013,4.028,4.0421,4.0403,4.0565,4.0699,4.0845,4.0759,4.0761,4.089,4.0785,4.0727,4.0698,4.0734,4.0781,4.08,4.0788,4.0655,4.0396,3.9967,3.9686,3.9477,3.9175,3.9125,3.9249,3.9618,3.9775,3.9775,4.0081,4.0196,4.0196,4.006,4.0139,4.0304,4.0177,4.0321,4.0598,4.0473,4.0598,4.0776,4.0662,4.0713,4.0876,4.0897,4.0876,4.0834,4.0846,4.0781,4.072,4.0662,4.0444,4.0176,4.0057,4.0015,4.0036,4.0137,4.0077,3.9935,3.9668,3.9939,4.0058,3.9534,3.9813,3.9977,3.95,0.0,3.9464,3.9189,3.9261,3.9324,3.9192,3.9376,3.9526,3.9599,3.9537,3.9637,3.996,3.9981,4.0021,4.0215,4.0334,4.0446,4.0462,4.0521,4.0516,4.0472,4.0648,4.0801,4.0863,4.0974,4.1042,4.1108,4.1074,4.1084,4.109,4.1089,4.1071,4.103,4.1078,4.1071,4.103,4.1078,4.1023,4.0878,4.0742,4.0635,4.0457,4.0863,4.0864,4.087,4.089,4.0863,4.0785,4.0675,4.0637,4.0552,4.0373,4.0549,4.0707,4.0714,4.0878,4.0977,4.0977,4.0935,4.0883,4.0869,4.077,4.0694,4.0643,4.074,4.0739,4.0612,4.0673,4.0534,4.0175,3.974,3.9438,3.932,3.8923,3.8815,3.9007,3.9383,3.9537,3.9537,3.9876,4.0,4.0,3.9848,3.9935,4.01,3.9937,4.012,4.0408,4.0319,4.0466,4.0688,4.0642,4.075,4.0907,4.0898,4.0867,4.0826,4.0826,4.0823,4.08,4.08,4.0598,4.0362,4.0234,4.0234,4.0252,4.0291,4.0253,4.008,3.9694,3.9981,4.0099,3.9443,3.9876,4.0176,3.9804,3.9829,3.9851,3.967,3.9628,3.9585,3.9508,3.9647,3.9785,3.9895,3.9813,3.9901,4.0307,4.0196,4.0233,4.0432,4.0511,4.0571,4.0571,4.071,4.0752,4.0657,4.082,4.0914,4.0955,4.1061,4.1099,4.1094,4.1107,4.1108,4.1096,4.1103,4.111,4.111,4.111,4.111,4.111,4.111,4.1038,4.0935,4.0796,4.0642,4.05,4.1012,4.1008,4.1016,4.1086,4.099,4.0916,4.0992,4.0948,4.0896,4.09,4.0896,4.093,4.0994,4.0947,4.09,4.09,4.0898,4.0878,4.0807,4.061,4.0489,4.0489,4.0693,4.0598,4.0214,4.0408,4.0175,3.9505,3.9505,3.9294,3.891,3.912,3.921,3.921,3.9483,3.9602,3.9602,3.9602,3.9602,3.9602,3.9602,3.9727,3.9892,3.9892,4.002,4.0233,4.0415,4.0511,4.054,4.0804,4.0907,4.0907,4.0898,4.0907,4.0907,4.0907,4.0848,4.08,4.08,4.0688,4.0559,4.0438,4.05,4.0549,4.0346,4.0342,4.0392,4.031,4.031,4.031,4.031,4.031,4.031,4.031,4.008,3.9899,3.9895,3.9918,3.9813,3.9532,3.9975,4.0215,3.9941,4.0158,4.0325,4.0398,4.0415,4.0432,4.0502,4.0621,4.0694,4.0694,4.0894,4.0994,4.0994,4.0942,4.0974,4.1096,4.1101,4.1094,4.1107,4.1108,4.1091,4.111,4.111,4.111,4.111,4.111,4.111,4.111,4.111,4.111,4.1078,4.0869,4.0711,4.0563,4.0925,4.0935,4.0938,4.0968,4.0961,4.0972,4.0994,4.0978,4.0967,4.0961,4.0967,4.0986,4.0992,4.0935,4.0894,4.0901,4.0858,4.0787,4.073,4.0593,4.0441,4.0304,4.0339,4.0321,4.0214,4.0269,4.012,3.9788,3.9571,3.9464,3.938,3.9256,3.9309,3.9483,3.9552,3.9602,3.9602,3.9602,3.9602,3.9602,3.9602,3.965,3.9679,3.9679,3.9916,4.0175,4.012,4.038,4.0761,4.0706,4.0776,4.0898,4.0907,4.0907,4.0907,4.0907,4.0888,4.0868,4.0868,4.0839,4.0765,4.0588,4.0559,4.0559,4.0408,4.0473,4.0504,4.0346,4.0345,4.0342,4.031,4.0291,4.0308,4.0308,4.0271,4.0233,4.0252,4.0252,4.0215,4.0139,4.0272,4.0345,4.0271,4.0379,4.0449,4.0485,4.0554,4.0621,4.0635,4.081,4.0902,4.0902,4.1017,4.107,4.107,4.1051,4.1055,4.1101,4.1105,4.1094,4.1107,4.1108,4.1091,4.111,4.111,4.111,4.111,4.111,4.111,4.1104,4.1045,4.103,4.0996,4.0699,4.0549,4.0477,4.0916,4.0922,4.0947,4.0947,4.0954,4.0964,4.0964,4.0941,4.0915,4.0915,4.0849,4.083,4.091,4.0811,4.0759,4.081,4.0742,4.0655,4.0626,4.0473,4.0321,4.0214,4.012,4.008,4.008,4.0158,4.01,3.9892,3.9679,3.9628,3.9703,3.9464,3.9464,3.9656,3.9602,3.9602,3.9602,3.9602,3.9602,3.9602,3.9602,3.9602,3.9602,3.9631,3.9807,4.0003,4.0082,4.0361,4.0706,4.0711,4.0798,4.0907,4.0907,4.0907,4.0907,4.0907,4.0907,4.0907,4.0907,4.0907,4.0869,4.0742,4.0718,4.0681,4.0515,4.0574,4.0635,4.0454,4.045,4.0462,4.0389,4.0389,4.037,4.0342,4.0415,4.0432,4.0415,4.0432,4.043,4.0438,4.0438,4.0469,4.0559,4.0549,4.0554,4.0588,4.0681,4.0726,4.0726,4.0902,4.0994,4.0994,4.107,4.1108,4.1108,4.1108,4.1094,4.1101,4.1093,4.1091,4.1097,4.1109,4.1095,4.111,4.111,4.111,4.111,4.111,4.1078,4.1064,4.1023,4.0988,4.0926,4.063,4.0506,4.0431,4.0888,4.0941,4.0974,4.0974,4.0932,4.0888,4.0859,4.0823,4.079,4.0746,4.0598,4.0564,4.0732,4.0602,4.0545,4.0687,4.0569,4.0489,4.0489,4.0304,4.0196,4.0196,4.0019,3.9951,3.9951,4.008,4.008,3.9889,3.9781,3.9781,3.9889,3.9703,3.9656,3.9717,3.9656,3.9626,3.9626,3.9626,3.9626,3.9626,3.9626,3.9626,3.965,3.9712,3.9721,3.981,4.0262,4.0442,4.0487,4.0798,4.0907,4.0907,4.0907,4.0907,4.0907,4.0907,4.0907,4.0907,4.0907,4.0907,4.0907,4.0907,4.0888,4.0859,4.0655,4.0732,4.0781,4.0629,4.0609,4.0597,4.0532,4.0519,4.0516,4.0444,4.0479,4.0495,4.043,4.0479,4.0519,4.0511,4.0519,4.0604,4.0791,4.0703,4.0642,4.0687,4.078,4.082,4.082,4.094,4.1,4.1,4.107,4.1108,4.1108,4.1091,4.1101,4.1092,4.1092,4.1099,4.1094,4.1089,4.111,4.111,4.1085,4.1085,4.1085,4.1078,4.1038,4.0988,4.0988,4.0935,4.0859,4.0642,4.0501,4.0377,4.082,4.0843,4.0834,4.0834,4.0831,4.0764,4.0621,4.07,4.0693,4.0372,4.0441,4.0504,4.0485,4.0454,4.0485,4.0607,4.05,4.0422,4.0422,4.0344,4.0291,4.0291,4.0234,4.0215,4.0215,4.0038,3.9935,3.9889,3.9867,3.9867,3.9889,3.9845,3.9845,3.9867,3.9845,3.9823,3.9823,3.9823,3.9823,3.9823,3.9823,3.9823,3.9845,3.9979,4.008,4.0196,4.0457,4.0623,4.0725,4.0849,4.0907,4.0907,4.0907,4.0907,4.0907,4.0907,4.0907,4.0907,4.0907,4.0907,4.0907,4.0907,4.0935,4.0945,4.0781,4.0858,4.0888,4.0653,4.074,4.0811,4.0688,4.0699,4.0718,4.0715,4.0738,4.0715,4.0642,4.068,4.0726,4.0662,4.0707,4.0752,4.0801,4.0762,4.0771,4.0771,4.0882,4.0967,4.0967,4.1033,4.1078,4.1078,4.1085,4.1108,4.1108,4.1103,4.111,4.1092,4.1092,4.1099,4.1094,4.1089,4.111,4.1104,4.1038,4.103,4.1023,4.0971,4.0935,4.0917,4.0859,4.0776,4.063,4.0427,4.0367,4.0332,4.0504,4.0504,4.0504,4.0504,4.0504,4.0473,4.0372,4.0457,4.0441,4.0233,4.0214,4.0269,4.0389,4.0302,4.0319,4.05,4.0408,4.0342,4.0342,4.0328,4.031,4.031,4.031,4.031,4.031,4.0157,4.0077,4.0077,4.0036,4.0036,4.0096,3.9954,3.9933,3.9994,3.9933,3.9889,3.9889,3.9889,3.9889,3.9889,3.9889,3.9889,3.9933,4.012,4.0252,4.0323,4.0602,4.0761,4.0848,4.0898,4.0907,4.0907,4.0907,4.0907,4.0907,4.0907,4.0907,4.0907,4.0907,4.0907,4.0917,4.0935,4.098,4.098,4.0917,4.0952,4.0972,4.0866,4.0926,4.096,4.0855,4.0874,4.0866,4.0801,4.0801,4.0791,4.0749,4.0771,4.081,4.084,4.0866,4.089,4.089,4.0909,4.0935,4.0898,4.098,4.1057,4.1057,4.1078,4.1108,4.1108,4.1099,4.1103,4.1103,4.1093,4.1093,4.1108,4.1099,4.1101,4.1106,4.1065,4.1045,4.1045,4.098,4.0943,4.0943,4.0917,4.0869,4.0849,4.0818,4.0687,4.0535,4.0431,4.0399,4.0399,4.0196,4.0196,4.0196,4.0196,4.0196,4.0196,4.0158,4.0177,4.0177,4.012,3.9979,4.0,4.025,4.0158,4.0139,4.0339,4.029,4.0291,4.031,4.031,4.031,4.031,4.031,4.031,4.031,4.031,4.031,4.031,4.0195,4.0176,4.0291,4.0057,4.0036,4.0137,4.0015,3.9973,3.9973,3.9973,3.9975,3.9977,3.9977,3.9998,4.0059,4.0306,4.0375,4.0392,4.0688,4.0848,4.0907,4.0907,4.0907,4.0907,4.0907,4.0907,4.0907,4.0907,4.0906,4.0915,4.0915,4.0924,4.0941,4.0991,4.1006,4.1025,4.1018,4.102,4.1025,4.1091,4.1096,4.1076,4.1031,4.1025,4.0974,4.0871,4.0855,4.0855,4.0837,4.0846,4.0898,4.0987,4.1,4.1025,4.1025,4.107,4.1078,4.1011,4.107,4.1108,4.1108,4.1108,4.1108,4.1108,4.1107,4.1092,4.1092,4.1091,4.1097,4.1094,4.1109,4.1106,4.111,4.103,4.0996,4.0996,4.0917,4.0878,4.0878,4.0888,4.0858,4.0796,4.0796,4.0681,4.0511,4.0511,4.0511,4.0492,4.0196,4.0196,4.0196,4.0196,4.0196,4.0139,3.9977,4.01,4.008,3.9727,3.9823,3.9873,3.9788,3.9873,3.9996,4.0138,4.0118,4.0195,4.0291,4.031,4.031,4.031,4.031,4.031,4.031,4.031,4.031,4.031,4.0291,4.0272,4.031,4.0253,4.0253,4.0272,4.0253,4.0234,4.0234,4.0234,4.029,4.0339,4.0339,4.0386,4.053,4.0662,4.0648,4.0588,4.0807,4.0898,4.0907,4.0907,4.0907,4.0907,4.0907,4.0907,4.0907,4.0907,4.0937,4.098,4.098,4.0983,4.0998,4.1003,4.1039,4.1081,4.1091,4.1086,4.1091,4.1091,4.1094,4.1104,4.1081,4.1081,4.1081,4.1055,4.1055,4.1042,4.0987,4.1028,4.1042,4.1,4.1057,4.1081,4.1081,4.1085,4.1108,4.1081,4.1088,4.1108,4.1108,4.1108,4.1108,4.1108,4.1107,4.1092,4.1092,4.1101,4.1097,4.1094,4.11,4.1097,4.111,4.103,4.0996,4.0988,4.0859,4.0818,4.0818,4.08,4.0815,4.0803,4.0803,4.0681,4.0511,4.0511,4.0511,4.0526,3.987,3.987,3.987,3.987,3.987,3.9826,3.975,3.9823,3.98,3.9626,3.9679,3.9731,3.9693,3.9826,3.9954,4.0096,4.0117,4.0157,4.0291,4.031,4.031,4.031,4.031,4.031,4.031,4.031,4.031,4.031,4.031,4.031,4.031,4.031,4.031,4.031,4.031,4.031,4.031,4.031,4.0328,4.0344,4.0372,4.0438,4.0515,4.072,4.0757,4.0732,4.0849,4.0907,4.0907,4.0907,4.0926,4.0952,4.0957,4.0968,4.096,4.0961,4.0978,4.1008,4.1,4.0994,4.0999,4.1006,4.1011,4.105,4.1099,4.1097,4.1091,4.1097,4.1104,4.1108,4.1108,4.1108,4.1108,4.1108,4.1108,4.1085,4.1066,4.1078,4.1085,4.1066,4.1078,4.1108,4.1108,4.1108,4.1094,4.1103,4.1097,4.1099,4.1093,4.1108,4.1105,4.1105,4.1093,4.1108,4.1093,4.1097,4.11,4.11,4.1059,4.1038,4.1038,4.098,4.0926,4.0878,4.0834,4.08,4.08,4.0803,4.079,4.079,4.079,4.0746,4.0654,4.0526,4.0574,4.0668]}]]